GFSNGP_2pvu_pres_000.txt.gz
Presure
241 224 251 234 235 243 248 232 249 168 203 256 225 201 230 221 191 179 179 161 177 183 190 198 173 176 186 183 188 177 178 173 176 178 174 186 176 178 183 188 192 200 149 269
94 229 219 234 216 237 238 248 249 245 245 178 176 176 227 210 178 177 176 168 174 179 178 178 181 180 173 179 173 176 173 181 173 172 176 178 180 187 182 195 200 216 268 236
224 163 235 129 224 234 194 252 265 215 245 176 220 226 181 179 178 168 175 171 172 183 162 177 176 179 173 173 172 175 170 174 177 179 171 183 186 184 193 146 217 134 209 154
184 182 234 228 173 179 235 249 88 170 263 248 224 199 178 176 167 170 162 163 171 178 189 177 177 175 171 176 174 173 178 181 177 155 184 142 192 189 136 225 240 231 215 244
196 207 233 181 226 206 233 249 257 238 248 208 192 178 178 177 172 168 171 170 172 181 176 185 174 180 177 176 181 181 179 183 183 183 187 191 184 209 245 227 216 223 247 238
232 254 206 228 244 258 211 248 252 262 236 189 182 179 176 174 175 172 172 186 181 183 178 175 179 177 180 179 181 183 181 127 131 193 189 203 215 249 236 206 240 246 247 268
199 242 225 211 221 246 256 237 270 218 198 179 177 175 174 176 175 182 174 178 174 182 182 180 180 176 181 182 183 132 175 194 188 194 206 231 232 231 223 247 240 266 207 177
217 226 183 213 212 211 229 254 194 190 188 179 182 184 183 175 172 176 181 181 182 181 182 183 183 183 184 182 172 193 190 197 205 232 243 167 213 245 155 258 260 155 201 194
247 223 229 222 231 235 220 234 179 187 182 178 178 178 180 184 185 182 183 181 180 133 177 186 182 182 180 193 190 199 202 225 242 151 209 228 245 262 254 190 195 199 165 194
233 233 240 247 262 293 286 210 193 192 191 191 189 188 186 182 181 182 182 183 183 131 178 183 193 192 186 201 202 240 232 133 161 219 248 249 256 233 213 196 143 196 199 210
207 231 238 243 277 296 273 211 203 202 196 192 187 186 194 194 179 168 181 185 191 193 192 189 197 203 208 247 223 139 222 214 249 256 261 238 215 181 160 196 169 202 208 218
198 203 213 231 300 320 293 272 206 207 206 193 194 193 194 195 195 195 194 191 188 200 203 203 236 254 163 134 136 180 222 252 254 245 215 198 162 157 197 192 212 215 230 284
265 265 201 200 202 215 283 287 292 291 218 209 206 205 205 206 204 203 202 203 242 248 256 237 235 117 141 136 208 264 164 243 215 194 186 154 153 188 184 206 213 235 291 291
198 226 218 206 201 198 198 199 202 233 250 256 255 245 245 245 246 213 242 232 232 229 222 123 137 136 134 198 275 250 214 191 184 181 190 152 184 183 205 233 274 292 280 291
206 208 210 213 215 219 222 223 225 227 229 229 230 230 229 230 226 215 214 210 212 126 135 243 133 127 310 239 213 190 187 188 150 152 160 193 200 223 235 266 279 286 288 289
196 194 191 198 196 195 193 196 198 194 194 198 203 208 209 205 210 233 248 256 253 258 259 131 133 209 211 196 184 189 186 175 189 158 202 211 233 236 271 279 284 286 288 293
199 199 199 199 197 197 198 201 230 218 205 236 238 245 244 243 255 254 248 253 257 280 131 211 212 203 183 182 185 180 188 190 167 208 215 235 230 277 284 282 287 293 302 351
220 218 227 217 217 223 229 233 234 237 237 239 247 260 270 303 316 333 268 179 196 138 181 187 196 180 183 182 186 184 160 173 208 220 229 234 281 282 282 284 296 348 342 439
228 228 226 224 226 229 223 235 235 234 235 266 144 152 296 253 208 160 119 203 176 191 169 183 176 183 189 199 155 192 195 219 226 229 241 277 273 282 289 311 330 402 438 410
220 223 218 223 226 232 225 236 225 242 260 286 251 214 208 203 185 156 183 185 185 185 187 195 191 183 197 176 199 205 223 228 228 248 274 275 277 287 319 291 443 441 409 361
234 235 232 231 235 227 228 214 241 256 268 206 200 168 194 193 177 198 196 195 196 193 193 194 198 181 151 204 217 220 226 228 247 273 272 271 300 305 302 437 441 416 359 481
242 228 235 233 234 215 218 234 253 226 202 189 192 184 151 166 195 197 196 193 192 193 195 193 199 205 206 223 212 225 231 248 266 272 274 301 306 326 431 439 415 511 487 509
275 272 268 259 213 241 150 156 164 162 144 140 141 160 191 193 195 197 195 195 194 194 203 207 203 208 222 214 225 229 244 263 272 275 308 307 343 457 439 413 485 521 491 502
201 286 251 276 277 250 164 137 129 135 186 195 199 195 201 199 202 199 194 191 199 208 208 202 211 218 213 227 228 243 264 271 283 306 303 320 461 438 410 481 481 507 520 373
156 154 152 175 248 168 169 142 184 207 204 201 200 205 206 199 192 191 195 185 202 204 214 215 214 220 217 232 259 264 273 294 306 341 358 461 435 415 486 464 474 504 403 353
212 214 213 213 212 212 212 210 206 207 210 200 203 200 190 191 202 205 199 202 210 214 211 223 211 214 250 260 264 262 292 314 306 405 460 432 410 478 478 463 489 469 358 322
214 213 213 213 209 207 204 203 202 197 200 199 196 197 205 204 203 211 208 206 214 207 224 217 218 258 260 268 266 300 319 295 464 459 431 400 473 487 650 566 529 362 326 304

GFSNGP_2pvu_pres_003.txt.gz
Presure
231 245 250 250 260 260 254 257 257 255 257 247 262 262 259 266 276 233 223 222 224 210 194 190 180 182 174 190 197 206 208 190 191 186 184 175 177 175 173 183 177 187 185 192
227 247 237 245 256 243 248 246 242 173 245 244 256 253 256 146 276 228 201 229 217 191 188 176 179 170 173 179 175 171 170 189 185 180 174 176 172 181 178 184 190 125 193 183
233 215 84 228 241 246 243 241 240 236 235 200 207 186 166 155 204 211 227 223 195 181 173 175 175 166 166 187 183 179 182 181 174 174 181 179 181 178 189 182 190 193 182 197
231 243 189 235 251 197 235 235 222 242 239 241 246 248 210 154 210 197 223 214 186 178 169 182 170 172 179 180 170 187 175 180 180 182 181 179 185 135 178 177 191 180 205 221
134 213 130 192 179 237 222 256 242 231 242 241 120 247 229 212 208 223 217 188 183 170 177 170 174 166 186 190 186 187 176 183 181 181 184 190 135 178 194 188 192 204 203 213
153 193 210 245 198 178 242 243 251 235 236 142 161 219 200 230 223 205 190 186 174 179 168 177 168 175 170 180 178 182 183 185 179 187 188 170 190 191 189 204 164 199 216 246
219 194 182 219 201 237 218 181 254 266 246 197 217 217 235 226 191 186 182 176 178 165 171 165 172 182 181 183 186 186 183 187 186 177 177 193 181 161 205 207 231 224 262 268
185 231 213 205 224 219 171 212 247 250 190 267 222 255 239 193 185 176 175 177 178 177 181 180 181 160 188 187 183 187 184 177 190 192 178 182 179 177 247 219 242 261 197 206
190 169 216 172 211 178 208 232 227 244 262 254 245 181 180 179 179 180 177 177 181 180 180 147 185 123 187 188 181 173 192 191 187 198 142 212 243 222 227 265 261 225 202 193
241 258 237 227 195 210 227 280 263 232 246 232 191 187 179 176 173 176 180 176 177 183 188 186 186 182 173 184 193 189 190 194 133 151 249 152 222 184 279 237 207 198 170 149
210 247 227 224 239 252 268 276 284 283 263 204 198 182 181 182 180 180 181 186 187 185 185 172 186 193 192 189 192 202 127 203 139 144 220 277 183 234 214 201 159 146 155 206
205 223 229 233 234 239 278 289 293 293 221 189 189 188 187 187 187 184 176 173 184 191 192 191 190 187 197 202 208 230 171 133 144 285 279 216 214 170 158 183 146 189 211 221
198 196 197 193 208 225 239 292 289 290 197 197 196 196 194 193 193 192 191 189 190 191 195 202 201 234 249 155 233 156 128 142 269 226 210 207 181 191 181 151 206 219 228 264
273 265 272 256 196 197 197 207 276 287 280 217 202 202 201 200 200 201 202 204 212 236 247 245 234 214 219 221 232 132 175 222 208 205 189 189 192 184 150 205 222 227 271 277
216 216 210 105 200 200 198 198 198 199 183 168 216 230 233 241 238 234 224 218 217 231 214 211 217 247 256 243 137 206 184 203 195 195 189 197 210 147 208 223 235 279 279 288
205 207 210 209 209 211 211 211 211 211 212 213 213 214 213 213 213 212 204 199 209 232 252 258 261 260 228 175 190 194 199 196 186 197 202 201 206 224 225 236 273 277 284 292
204 203 200 200 198 198 200 203 202 198 198 195 194 193 193 240 232 248 253 310 320 331 341 337 212 206 163 171 164 176 185 193 201 204 203 206 223 228 239 273 278 280 296 340
201 206 201 201 202 201 201 200 199 204 202 210 223 240 238 238 269 296 279 277 270 240 204 202 193 168 195 190 192 192 200 196 202 204 178 218 234 246 278 275 281 300 311 465
221 221 219 218 216 217 219 224 226 227 233 226 233 234 230 259 144 205 242 211 202 199 173 156 191 195 197 198 201 194 201 204 211 211 221 237 236 277 270 283 298 296 465 436
223 224 222 223 225 225 227 227 228 227 226 227 237 221 236 267 231 209 202 197 197 171 143 195 195 202 199 194 199 199 204 213 225 226 227 235 273 272 284 290 306 466 438 457
232 232 231 226 229 229 225 227 226 228 235 234 228 239 239 264 137 197 197 181 141 192 192 200 199 199 201 200 195 204 205 227 218 226 238 271 276 279 288 346 463 442 428 506
259 296 282 254 246 237 230 237 235 237 233 230 222 242 241 201 166 140 141 146 199 201 196 205 205 201 197 196 215 206 219 218 226 242 269 275 281 292 368 465 436 406 491 515
230 232 254 319 304 287 250 238 245 246 219 175 148 164 161 138 115 141 200 204 199 201 206 201 194 199 195 206 210 226 215 227 256 262 274 283 302 324 471 432 404 488 490 537
215 194 214 244 284 245 283 274 275 275 277 162 135 134 135 171 190 204 206 205 206 203 198 193 206 208 206 211 220 214 229 257 271 272 278 303 337 543 444 487 484 471 516 373
143 144 147 147 149 151 236 241 154 157 230 155 145 176 179 196 210 209 208 195 194 194 198 200 207 206 214 221 220 233 265 269 274 276 314 434 539 457 505 643 490 497 400 338
152 174 150 146 153 156 176 214 215 214 213 211 211 213 213 207 206 201 169 194 196 196 200 208 208 217 221 228 233 268 271 275 276 326 443 528 435 648 597 666 573 461 340 312
214 213 213 212 213 214 215 215 215 214 213 213 211 208 204 197 193 194 195 204 200 197 207 215 223 218 229 253 274 271 278 277 317 455 515 428 659 483 634 551 452 337 313 297

GFSNGP_2pvu_pres_006.txt.gz
Presure
241 256 265 267 268 278 304 315 145 312 305 304 314 318 335 315 137 179 119 238 247 175 256 273 232 205 225 215 201 189 188 172 174 186 183 192 196 189 171 185 180 177 174 181
238 242 241 256 250 255 264 275 260 266 255 284 289 296 299 329 228 133 241 244 257 259 264 288 218 216 221 207 184 184 190 181 181 184 187 189 178 185 182 180 173 183 184 165
245 229 243 240 241 259 260 246 265 259 259 264 253 266 278 273 272 269 251 258 268 217 158 226 213 222 215 192 188 190 182 181 170 175 181 184 166 183 183 180 184 151 192 190
244 232 233 240 228 238 235 244 245 267 253 242 245 250 263 256 264 262 200 282 225 289 224 223 202 216 194 190 186 178 182 181 174 178 181 183 188 183 182 188 189 190 193 199
192 239 235 220 247 232 236 234 226 239 234 240 244 242 245 249 245 150 160 277 262 217 223 224 214 189 191 179 174 186 178 173 163 183 185 183 174 188 185 192 184 200 191 167
233 233 173 231 216 241 243 229 240 229 108 238 231 239 239 247 245 257 257 228 202 223 223 215 191 185 174 174 172 179 177 169 174 171 173 186 187 189 187 199 194 178 207 215
161 154 177 197 227 226 228 241 239 247 235 229 226 231 232 247 247 245 216 155 224 224 216 197 182 179 176 169 176 174 163 169 173 180 188 188 189 185 196 153 194 174 210 237
239 209 207 178 219 213 220 190 196 225 235 205 248 207 239 234 238 203 209 222 222 206 181 186 175 172 173 178 171 170 175 179 186 189 191 183 199 158 176 142 151 248 268 267
222 178 222 184 221 202 189 227 211 235 227 236 244 242 265 226 205 220 223 222 188 185 187 175 169 172 139 180 180 178 133 187 191 181 198 188 177 206 142 150 216 273 240 215
214 210 211 215 180 211 216 222 171 166 247 241 234 187 217 215 231 256 191 179 187 177 173 179 179 180 182 180 183 189 189 188 197 186 181 201 134 142 218 281 248 221 216 193
227 225 236 232 234 222 252 236 247 263 277 252 232 256 242 250 254 200 181 178 178 173 173 180 181 182 185 188 183 192 194 193 204 158 230 148 140 230 252 223 200 203 194 159
217 235 233 249 234 243 238 241 245 276 297 297 295 240 219 188 183 180 181 180 181 183 183 183 187 184 190 193 191 201 206 208 244 235 132 141 237 185 213 204 197 197 208 214
209 218 229 219 222 240 315 327 311 285 316 310 306 255 208 192 186 186 186 186 185 186 189 193 194 193 193 204 207 213 255 226 203 135 271 223 212 209 190 200 203 212 218 218
199 199 194 198 200 266 257 309 289 284 284 284 280 259 197 196 196 195 195 196 193 190 189 199 204 204 219 247 226 212 201 208 274 250 216 207 185 193 197 203 208 211 219 231
219 269 199 245 217 221 230 194 199 214 247 248 249 218 176 201 200 199 200 201 201 203 223 237 235 218 211 209 284 315 286 248 200 204 199 193 194 200 204 214 207 222 237 284
220 217 212 215 206 199 204 201 199 198 197 199 203 211 222 224 225 224 223 201 200 202 209 207 245 291 280 265 260 232 210 206 195 195 196 198 202 206 212 228 223 244 286 294
205 206 211 204 205 209 209 210 209 208 208 209 210 208 208 208 209 211 203 202 201 197 276 264 255 174 252 219 147 193 193 195 199 195 201 199 210 213 214 234 250 289 291 287
217 202 204 207 207 205 201 198 197 195 194 193 194 193 195 202 194 192 205 235 200 235 245 238 227 215 205 142 197 197 199 191 198 199 197 205 209 217 228 251 291 292 290 293
202 212 202 201 201 201 202 203 213 221 223 225 227 227 227 232 233 236 235 230 245 270 237 225 212 201 141 195 198 191 194 200 195 207 206 203 218 231 253 290 291 289 294 479
218 220 217 220 223 222 224 224 223 223 224 225 231 230 227 231 233 234 220 232 246 243 221 209 136 177 195 192 188 202 199 205 207 210 199 216 232 253 290 290 290 296 557 446
225 225 226 224 222 220 222 224 226 227 228 231 225 230 233 228 232 230 221 233 268 161 136 157 195 193 194 203 207 197 209 205 209 220 221 233 253 291 289 293 295 533 504 507
223 228 248 254 252 240 252 258 283 256 241 237 233 236 239 230 235 212 243 155 196 144 141 182 191 190 206 209 211 191 205 199 218 230 238 251 293 286 292 303 506 497 496 490
244 236 232 233 236 238 244 245 254 285 285 294 288 268 267 194 144 138 161 136 137 176 179 187 192 206 213 210 188 205 212 217 229 244 275 288 283 292 310 504 632 655 619 506
211 203 205 214 220 222 223 229 232 239 253 282 310 300 282 273 261 249 155 207 190 181 191 197 205 213 196 198 206 215 218 228 246 273 278 282 297 311 515 599 498 676 502 386
201 202 196 191 209 206 200 219 218 202 200 151 149 146 144 205 216 214 211 205 207 210 199 213 206 191 210 204 217 223 233 258 268 274 291 302 311 491 593 530 668 512 387 342
207 203 176 210 172 145 144 143 142 138 134 149 173 210 210 212 213 213 213 214 214 213 211 197 185 211 203 217 226 245 270 282 286 297 297 317 486 597 491 567 531 382 339 316
144 162 181 201 192 194 194 207 211 211 210 209 210 212 213 214 214 214 213 212 210 203 196 202 206 215 223 238 251 264 291 298 304 308 312 539 540 479 510 541 372 335 314 303

GFSNGP_2pvu_pres_009.txt.gz
Presure
255 227 246 258 275 268 295 298 305 316 334 356 373 308 262 291 83 107 189 222 119 207 201 235 233 235 235 242 255 243 218 204 226 220 211 197 186 187 181 171 171 180 186 180
235 228 240 240 246 275 281 279 288 282 298 305 318 337 357 230 249 259 248 225 223 218 236 228 234 236 146 238 247 269 218 203 225 216 200 191 187 189 174 177 176 172 175 182
222 233 228 223 229 236 248 252 260 269 272 280 294 292 309 325 248 233 179 226 221 233 219 235 226 236 219 240 253 271 215 201 221 205 193 186 185 185 182 182 172 181 190 189
229 217 235 230 219 231 212 241 255 252 250 255 263 274 287 300 321 302 251 231 213 230 229 224 240 253 251 248 268 239 205 220 209 193 183 186 177 181 186 173 175 184 183 185
211 230 241 245 228 224 227 222 233 232 240 248 241 254 263 279 288 277 171 235 230 225 234 247 251 256 253 278 252 206 219 213 194 181 185 172 185 182 183 182 181 184 188 192
227 222 171 218 177 227 229 230 223 225 89 232 237 240 245 253 209 216 289 155 152 292 291 297 296 284 273 214 212 219 213 187 186 176 172 172 185 180 177 183 184 190 194 153
214 200 181 218 223 217 198 222 234 229 228 224 232 230 231 206 247 186 259 155 156 273 269 263 261 221 215 223 220 188 182 183 178 175 172 182 163 181 183 186 192 198 195 193
148 212 183 188 210 205 190 189 215 222 224 220 198 223 232 239 234 213 246 243 256 252 226 207 214 222 221 204 183 181 183 176 172 178 179 182 184 185 191 196 195 132 200 142
213 220 218 181 225 211 225 210 224 218 242 218 232 186 226 231 243 229 231 242 208 197 203 220 221 216 193 184 178 189 175 172 181 183 186 185 191 192 194 186 128 151 159 155
230 169 216 216 211 207 222 231 220 224 244 223 236 244 238 232 241 233 207 197 210 220 222 218 192 184 185 187 179 179 183 182 185 187 191 190 193 184 203 143 251 205 154 202
217 240 188 225 226 241 214 251 240 227 246 260 270 236 246 236 234 203 220 222 223 220 208 183 178 180 178 175 182 181 186 190 190 191 192 186 204 219 255 220 229 250 214 209
180 191 251 236 238 236 248 233 231 241 294 282 258 227 244 239 224 238 237 224 221 188 181 179 178 183 187 187 188 190 192 194 190 195 204 216 252 219 269 230 229 214 202 203
235 228 231 237 231 222 224 277 307 313 305 310 310 276 244 236 242 241 233 190 182 182 183 183 182 183 187 192 194 197 184 203 206 217 243 211 284 260 231 214 203 202 201 206
239 218 215 243 268 280 273 294 298 268 267 272 273 279 273 227 224 197 190 188 185 186 189 191 194 197 195 189 203 207 208 228 235 208 269 201 231 215 204 194 201 171 206 211
255 236 191 253 194 199 231 241 247 261 254 251 250 252 253 234 216 193 192 193 195 196 197 199 202 203 204 213 225 219 241 236 252 153 195 218 197 206 198 202 199 205 206 217
107 267 256 254 247 220 200 212 196 191 191 201 213 223 225 229 216 232 226 226 224 224 223 221 236 233 210 214 210 249 252 221 150 212 193 205 193 202 185 203 204 211 222 270
210 209 209 217 225 211 213 209 212 218 218 216 205 206 204 205 206 205 204 204 205 207 207 209 205 146 193 180 245 239 226 174 198 201 194 196 202 182 206 200 212 226 272 297
204 207 206 206 210 215 201 200 202 206 203 204 204 200 198 198 196 197 197 196 212 237 207 237 171 234 249 284 241 195 164 197 201 194 198 203 201 214 193 216 229 277 302 307
212 210 211 222 210 202 206 210 203 203 209 212 221 225 224 227 228 228 230 229 230 235 235 237 227 232 266 184 143 196 195 193 196 194 200 204 219 185 219 240 298 305 311 323
214 211 211 209 211 208 217 224 224 224 224 224 224 221 222 224 229 231 231 234 233 235 239 235 226 165 136 159 178 190 191 200 192 202 204 220 209 216 255 297 310 312 325 455
223 223 221 222 223 224 222 221 221 220 222 227 231 232 239 240 240 237 236 236 242 248 276 159 283 272 231 187 191 193 195 194 199 215 218 223 222 262 295 308 309 336 621 492
223 223 231 221 224 224 223 222 228 238 252 261 257 253 280 294 319 293 289 284 255 226 157 235 134 219 212 209 200 194 204 189 221 213 217 236 281 298 305 305 334 521 618 691
217 219 224 222 220 223 250 247 234 219 223 225 231 235 223 241 263 259 257 249 236 188 214 212 211 213 214 209 207 211 206 216 208 224 253 288 295 301 297 339 533 684 556 500
226 232 233 232 227 243 226 224 215 217 209 209 218 224 224 195 206 183 147 150 209 213 214 213 211 213 215 216 216 206 204 226 236 261 291 294 290 314 364 652 534 513 517 380
236 191 193 192 199 207 202 195 208 210 204 196 199 201 147 134 141 160 172 189 204 207 211 213 214 215 215 202 206 212 246 241 275 292 291 286 312 371 574 506 541 523 377 338
198 197 195 198 196 199 205 197 200 199 146 147 147 149 163 176 210 211 211 210 214 216 216 215 206 200 210 208 235 240 241 278 290 285 283 316 370 543 613 539 454 374 338 319
153 151 151 150 163 163 209 203 155 146 151 193 207 205 205 210 213 213 213 212 211 207 207 217 213 221 230 239 241 241 276 288 281 282 319 384 620 616 521 509 375 339 319 294

GFSNGP_2pvu_pres_012.txt.gz
Presure
242 217 225 245 249 251 258 269 301 297 311 328 363 419 402 438 223 212 304 296 276 215 245 195 225 208 225 247 242 237 228 240 245 251 249 227 218 215 211 228 221 212 198 195
223 229 220 212 227 245 253 255 260 280 291 306 326 385 427 304 279 305 292 89 265 250 243 234 222 221 199 240 240 229 234 231 239 244 253 237 222 215 216 227 217 206 197 188
231 230 81 222 224 225 238 250 248 258 267 281 304 327 366 270 317 296 284 271 258 245 236 223 180 201 224 234 229 229 223 225 229 237 247 261 224 207 230 219 211 199 185 181
235 237 217 216 208 217 227 232 242 251 253 254 268 313 321 235 305 284 268 263 250 231 228 221 214 221 235 231 228 226 228 233 239 243 247 266 218 202 223 215 200 180 181 173
224 235 229 227 226 216 216 219 229 239 240 252 246 266 302 304 232 278 268 250 250 234 221 213 222 202 232 232 221 233 173 249 254 247 263 264 200 219 216 191 180 171 177 184
226 227 225 220 226 226 227 223 220 223 230 235 240 245 131 280 237 225 221 213 205 224 220 214 223 231 221 226 235 243 251 249 264 269 254 203 217 219 180 176 167 180 180 185
222 208 177 223 213 226 225 217 227 223 219 219 168 234 246 244 276 278 249 228 229 234 241 237 224 231 237 264 270 280 269 259 246 209 216 221 194 183 172 145 181 186 189 187
169 209 174 214 223 211 216 223 213 230 229 220 222 222 234 243 235 250 264 281 278 247 232 295 291 286 269 258 250 241 215 210 218 223 186 181 181 179 178 186 189 184 187 192
205 193 169 202 220 220 211 218 227 229 226 240 226 224 228 230 237 246 240 237 238 232 244 243 237 230 220 211 212 217 224 224 189 183 184 180 177 187 190 183 187 192 194 201
161 215 217 222 190 226 216 230 219 243 233 246 243 232 238 238 235 233 234 233 235 232 223 212 204 211 214 219 221 219 190 188 180 185 186 187 189 185 190 191 195 200 204 212
221 217 213 237 226 219 226 239 239 246 246 235 235 209 241 237 238 231 232 230 220 199 200 210 218 223 223 202 174 184 184 187 187 187 189 190 186 187 198 201 199 209 250 263
244 202 229 243 239 252 240 232 232 250 224 286 260 280 244 245 240 233 210 213 211 224 225 231 228 205 187 182 183 182 181 188 191 191 192 195 200 196 202 208 180 244 248 234
256 204 242 262 249 237 234 283 260 304 301 292 293 257 233 231 236 244 232 233 233 225 232 193 185 185 186 186 189 191 192 191 196 199 201 193 202 220 224 154 247 235 209 170
222 220 246 221 233 231 273 259 289 278 271 272 276 262 261 260 231 227 226 224 221 217 192 190 190 192 193 192 190 196 198 200 198 195 219 260 189 157 246 232 218 213 157 200
199 234 291 188 218 264 259 274 267 267 268 265 261 259 244 250 245 240 219 213 201 198 193 193 192 192 194 198 200 197 196 221 258 240 136 243 154 229 222 213 165 199 186 212
197 202 201 197 184 193 249 191 194 196 193 195 197 229 232 232 232 233 232 229 221 218 215 206 215 218 216 226 235 214 243 151 245 250 240 178 226 221 209 203 196 182 213 224
276 272 212 267 253 246 224 216 219 204 204 209 209 210 209 200 202 204 204 203 203 203 205 204 205 203 201 201 172 244 241 229 138 259 232 222 216 200 204 198 166 218 223 222
224 236 213 213 211 214 215 216 211 212 211 197 192 196 197 200 200 197 196 194 193 205 233 234 235 233 238 245 248 279 243 136 161 179 228 199 203 203 211 216 223 218 260 312
204 202 202 201 199 201 198 198 198 199 195 199 194 208 199 211 218 227 226 228 232 234 236 236 240 240 248 277 237 203 235 235 190 221 206 212 197 216 174 218 234 301 311 308
201 209 213 213 211 218 221 211 205 209 217 223 223 225 221 224 228 240 261 308 316 287 289 288 291 288 268 147 237 229 222 208 211 212 218 213 224 221 218 250 300 306 308 341
202 218 203 202 216 223 219 209 221 223 223 220 225 226 229 264 233 234 246 261 278 278 275 263 243 171 232 220 213 213 214 216 216 217 222 216 213 253 264 296 304 307 361 701
217 214 224 227 218 219 218 218 222 222 225 223 258 254 226 222 222 223 223 223 228 227 221 183 214 220 215 212 209 208 214 217 214 217 173 248 250 267 295 303 307 351 688 524
220 224 223 217 219 223 223 221 227 225 220 243 229 219 214 216 212 201 201 220 220 215 168 152 194 198 206 209 215 217 215 212 217 248 248 248 287 289 299 311 346 540 526 471
221 220 219 219 220 216 215 223 214 232 227 230 215 215 196 202 200 195 210 202 133 153 165 207 213 216 216 215 211 212 216 214 249 246 279 283 293 302 326 432 651 542 528 379
219 223 228 216 224 223 224 232 239 244 247 210 203 198 210 206 184 137 147 161 164 196 196 212 212 206 212 214 208 214 239 250 254 284 283 298 304 331 409 635 544 534 383 340
198 162 213 225 227 256 232 194 189 191 192 193 201 195 175 149 159 195 210 209 206 204 209 212 212 215 215 206 228 242 251 267 281 286 299 303 339 574 633 623 546 389 342 308
229 232 242 245 213 204 200 194 194 212 213 214 209 208 145 189 202 205 210 210 203 202 206 209 217 212 224 238 248 257 269 273 285 296 310 341 605 625 630 550 393 344 309 296

GFSNGP_2pvu_pres_015.txt.gz
Presure
252 235 220 226 226 227 240 125 131 184 90 97 306 320 395 394 386 367 368 377 110 266 229 232 222 235 232 239 243 242 236 225 231 257 239 230 229 235 234 240 250 240 230 223
241 232 216 225 217 224 229 228 245 252 259 292 314 326 355 396 404 374 370 334 296 280 248 228 241 227 236 250 247 233 218 214 235 235 235 236 225 235 241 241 242 253 246 229
184 237 215 218 219 217 220 233 231 246 253 272 336 340 301 346 345 336 317 297 286 273 259 248 245 242 257 247 229 225 206 222 209 233 229 227 224 225 228 229 236 243 256 239
224 233 218 229 217 213 224 231 221 238 242 261 302 247 252 277 264 275 259 294 281 270 263 259 257 256 246 231 220 213 208 215 218 229 220 224 224 227 234 236 240 243 259 253
230 231 220 220 226 216 225 216 227 222 236 240 267 265 284 288 287 286 286 289 286 281 269 258 248 241 190 220 203 225 234 219 230 216 222 227 228 236 244 240 249 267 263 208
224 236 211 218 207 208 220 217 222 220 225 236 239 264 234 263 269 266 265 259 257 249 243 230 188 189 223 218 213 206 216 215 216 224 227 166 241 243 258 265 255 248 214 219
199 220 206 226 185 213 208 221 224 219 242 231 233 239 262 232 182 261 236 240 221 235 233 228 220 217 214 208 215 216 215 220 228 236 248 263 270 258 244 223 216 206 178 177
208 223 208 211 211 185 225 221 219 222 236 236 230 234 238 265 258 226 231 261 251 232 240 237 223 220 221 226 226 230 243 273 282 269 248 235 220 215 196 188 189 185 183 186
211 211 138 214 201 224 211 219 211 225 235 226 228 232 238 148 150 265 270 254 243 240 238 237 242 186 261 274 284 254 241 233 224 215 216 222 206 189 186 187 185 186 189 192
155 212 224 209 173 232 225 211 222 242 237 219 263 237 231 242 237 235 260 245 246 261 175 180 269 247 235 228 223 220 218 219 222 216 180 187 187 184 182 188 193 193 198 203
208 216 217 201 235 228 215 232 257 235 248 241 284 234 246 240 232 232 241 235 232 232 227 223 219 211 205 214 216 221 225 218 194 189 185 184 187 191 194 196 200 202 204 209
220 206 228 229 249 244 232 244 228 234 263 211 271 277 241 242 239 231 236 228 230 232 198 202 210 233 234 229 225 222 189 185 186 190 191 193 197 200 201 200 170 209 212 245
222 224 241 239 237 248 257 222 232 247 292 289 282 281 233 237 235 245 243 230 240 241 234 233 218 223 225 186 187 188 191 192 195 196 200 202 201 201 203 228 273 265 243 241
190 233 239 209 258 223 231 248 249 264 278 268 274 269 285 279 236 231 230 227 226 224 223 220 216 204 195 193 193 195 193 198 202 201 201 208 242 250 241 252 267 245 220 173
240 221 235 224 194 207 203 237 223 284 266 264 264 260 255 258 252 239 257 219 215 213 211 218 203 203 200 199 203 204 204 208 227 200 210 258 282 201 244 249 242 205 232 221
197 203 197 191 235 192 183 198 248 197 198 241 193 197 210 210 235 233 232 231 226 218 213 210 209 209 209 209 208 210 203 229 241 271 279 242 196 217 228 232 225 214 219 224
216 200 200 235 201 286 262 206 271 264 204 217 203 206 211 211 210 211 211 209 207 205 203 196 194 199 206 237 238 238 237 252 277 155 233 236 231 222 211 217 219 222 220 219
192 211 257 246 217 262 240 234 212 210 214 202 207 213 195 192 196 197 196 195 223 230 237 256 269 273 271 266 265 288 283 256 151 231 216 214 214 217 214 221 216 196 264 300
208 215 212 239 221 213 210 209 204 201 201 202 200 200 196 210 220 219 222 226 256 242 245 268 276 289 299 270 259 245 225 209 140 213 210 211 219 217 214 215 257 295 295 272
207 198 199 205 210 210 193 201 204 204 205 219 209 204 214 221 219 227 232 247 231 222 220 217 217 223 221 209 210 163 215 204 206 213 218 220 212 213 222 278 290 290 307 325
206 204 202 210 204 199 205 209 204 198 199 213 211 216 224 225 225 256 237 222 217 210 207 206 205 206 206 215 208 144 207 215 215 211 213 213 212 252 286 275 287 305 322 372
207 204 209 201 201 201 201 203 203 208 220 218 217 221 227 223 242 228 221 216 211 208 200 196 211 210 183 148 172 210 212 210 214 218 189 205 263 285 286 282 304 321 517 701
212 210 204 234 215 215 223 224 222 217 219 224 223 227 215 224 233 223 218 211 199 201 200 206 143 145 157 206 208 208 209 215 220 222 241 258 282 287 283 306 326 529 672 543
211 217 219 223 228 224 223 225 223 221 223 215 221 214 214 229 229 232 215 210 208 206 147 192 153 162 210 205 208 209 216 221 229 241 252 280 287 297 311 328 609 641 561 439
225 223 193 210 220 218 223 224 223 222 217 219 221 225 236 253 253 247 203 195 144 146 162 204 205 206 216 208 212 216 225 232 242 249 279 287 288 319 353 634 629 638 449 355
224 224 220 218 171 221 223 226 225 225 225 224 227 240 198 192 193 193 144 149 154 152 208 208 210 213 207 215 217 225 228 235 249 271 285 298 322 345 685 577 640 448 344 318
218 217 222 219 215 216 217 218 218 222 223 227 237 211 169 157 144 163 165 202 206 203 209 214 207 211 218 219 170 230 237 247 259 283 287 312 519 435 424 617 407 334 315 303

GFSNGP_2pvu_pres_018.txt.gz
Presure
225 218 238 229 224 228 155 233 239 241 244 282 257 261 285 337 370 372 371 390 362 353 355 358 176 300 341 304 238 244 237 237 187 241 207 240 235 228 223 238 252 234 225 225
214 208 236 222 224 220 213 225 218 231 208 280 203 297 271 323 400 391 375 356 348 354 349 344 325 130 255 97 237 204 225 257 235 235 239 227 224 213 235 228 230 233 232 221
247 219 227 222 218 212 213 219 226 232 231 258 239 284 288 256 319 361 349 348 330 315 302 288 272 241 235 232 220 214 249 224 228 228 223 230 233 226 246 232 233 216 223 226
239 242 223 221 214 211 221 201 217 221 236 239 284 262 271 280 282 285 288 280 276 272 268 247 231 226 222 219 226 226 230 237 230 216 204 205 221 206 227 213 219 225 230 232
228 239 225 212 225 218 210 216 225 217 238 225 241 248 275 258 270 289 266 259 252 249 243 237 233 228 227 233 234 229 238 218 210 208 206 228 216 224 229 217 226 233 236 242
201 198 217 224 219 207 210 224 215 219 229 231 232 257 249 256 248 259 271 279 255 249 248 245 241 239 236 236 241 235 204 212 213 246 207 212 225 216 217 227 239 242 251 259
221 206 179 208 217 212 214 223 224 231 222 220 230 233 269 252 259 246 246 249 251 255 258 257 253 248 242 237 234 225 212 209 207 211 215 217 223 225 239 245 265 250 214 211
226 192 194 205 206 208 211 219 210 219 225 231 223 234 239 282 238 257 247 246 240 246 236 247 240 211 225 227 225 209 208 209 213 215 217 221 232 250 271 209 209 215 223 189
214 200 215 168 229 219 153 230 210 221 249 233 233 250 229 236 261 252 231 252 247 240 234 224 223 225 217 219 244 216 215 215 215 224 241 282 217 206 218 221 188 189 184 183
196 202 210 219 136 191 232 239 235 224 252 234 234 208 245 234 235 248 268 252 243 241 232 226 227 229 230 230 233 237 260 288 269 206 207 212 215 216 212 185 184 184 189 196
222 208 186 213 214 224 238 250 182 219 238 244 233 286 256 241 227 233 229 235 243 257 254 265 264 269 272 238 230 204 207 209 212 214 215 213 198 183 185 187 192 199 203 208
220 193 211 210 234 233 219 241 250 242 243 245 288 270 271 236 246 227 225 219 205 208 204 200 201 204 206 210 215 219 216 213 216 218 184 187 189 190 198 204 211 235 178 271
246 202 209 241 234 237 247 258 258 232 250 260 289 291 272 238 238 246 244 242 235 240 222 203 222 216 216 215 215 217 222 223 188 191 191 202 205 215 223 245 271 268 136 221
234 215 240 211 246 239 238 225 231 237 242 291 271 281 282 294 237 232 232 228 223 222 229 224 222 218 207 194 194 193 197 212 215 214 213 214 233 239 256 263 247 135 228 192
242 247 211 230 244 219 225 210 249 244 257 278 271 270 258 262 258 258 227 246 232 223 226 224 223 215 215 215 213 209 205 204 220 234 238 240 262 273 246 229 223 216 213 222
198 206 240 236 223 219 193 179 191 197 197 197 218 195 194 199 213 211 210 210 207 205 205 207 207 206 202 196 224 232 239 254 261 276 287 279 232 222 214 174 213 218 224 213
215 244 191 188 191 189 189 197 243 231 273 259 210 232 212 202 207 213 203 192 200 199 199 197 223 247 254 261 259 261 268 270 259 226 218 213 212 209 162 217 215 215 226 234
245 221 191 194 203 267 259 201 261 268 217 210 213 209 206 217 198 198 204 208 219 218 221 251 238 232 230 227 224 221 220 215 211 213 209 203 199 215 214 215 224 229 243 284
229 212 201 194 196 253 260 243 243 214 212 213 207 204 202 202 222 201 202 218 216 228 248 234 227 215 215 218 215 210 206 209 208 175 172 174 210 214 215 226 234 246 296 308
199 207 200 195 204 211 233 216 209 208 208 204 208 208 211 213 201 208 220 220 225 248 239 225 218 217 208 214 208 209 211 194 147 159 211 210 210 220 230 225 238 302 303 321
217 206 203 198 208 202 198 201 203 204 207 207 215 200 202 216 213 208 214 222 232 232 225 220 213 213 207 198 206 206 137 153 162 217 214 213 221 224 237 150 305 320 335 406
204 203 202 204 212 215 204 204 215 209 205 203 203 204 208 210 214 225 228 223 222 232 226 220 214 210 208 209 144 146 156 188 214 213 213 153 229 238 200 258 323 364 624 578
211 185 213 215 210 211 207 208 205 207 209 209 225 227 223 221 226 224 228 217 218 228 252 242 215 211 169 152 161 203 205 214 212 217 220 230 194 251 292 322 417 500 381 624
210 208 204 201 206 204 204 204 209 209 219 221 222 223 227 225 226 221 220 224 230 245 251 248 200 144 149 209 212 214 218 214 217 216 230 214 250 286 306 450 403 638 570 488
221 219 221 214 213 197 218 221 205 217 227 228 222 225 225 223 219 221 225 226 237 232 229 145 174 163 164 229 206 213 213 216 222 227 234 245 276 300 338 729 651 541 356 328
226 228 226 224 189 200 188 219 223 223 224 162 194 220 223 223 217 224 225 185 153 153 193 195 205 216 223 222 204 213 216 193 189 226 243 271 284 293 755 459 349 328 311 298
219 228 228 226 226 228 227 225 224 223 221 220 222 214 221 180 218 223 228 148 142 143 191 214 221 221 219 200 216 217 228 229 228 240 269 286 292 312 376 348 325 303 295 296

GFSNGP_2pvu_pres_021.txt.gz
Presure
239 235 231 232 232 225 228 231 231 225 238 237 258 269 289 294 302 371 410 404 364 356 376 398 407 414 369 348 262 328 200 234 242 244 238 232 230 240 222 230 236 223 216 232
224 221 224 219 241 229 235 227 223 220 237 230 247 245 284 287 284 316 357 376 378 382 382 340 350 344 334 334 338 137 329 246 101 223 224 259 231 243 237 228 215 228 225 218
217 241 234 235 212 226 228 218 208 227 228 218 134 260 273 285 267 224 297 318 321 329 319 330 288 276 265 264 287 286 224 223 225 232 224 230 238 203 219 225 223 214 234 225
227 200 237 229 227 230 222 217 219 219 232 221 236 252 261 282 260 257 259 267 277 287 293 294 287 285 276 308 286 265 246 234 214 217 248 222 218 219 221 229 241 201 204 223
252 191 244 229 232 218 215 208 214 226 216 230 233 245 261 263 276 250 251 251 248 248 247 247 243 244 240 238 237 232 225 216 206 227 217 220 227 215 222 212 207 213 216 219
250 234 239 222 215 211 208 214 220 220 220 237 235 237 243 256 269 268 253 242 227 227 103 229 231 231 229 225 223 219 216 204 221 226 227 225 200 215 216 213 200 214 246 230
222 213 199 207 205 214 193 213 217 212 222 223 233 240 237 257 258 259 258 266 247 239 234 230 232 228 223 220 222 225 224 231 227 222 213 215 209 201 205 213 224 227 231 211
225 236 201 214 180 209 200 217 213 238 240 244 225 234 234 235 259 253 258 252 251 249 247 244 239 240 234 228 235 237 241 233 235 221 238 198 215 216 217 227 222 215 233 218
172 191 217 209 169 210 204 209 220 232 237 238 235 269 247 234 235 260 247 234 242 238 244 240 235 245 244 240 240 234 241 231 216 228 224 221 225 230 220 223 231 190 182 185
212 200 205 213 196 214 169 210 233 235 224 252 243 275 292 246 236 241 268 238 200 153 228 228 235 270 243 225 225 217 215 216 218 219 224 222 223 228 234 183 184 187 187 190
173 203 183 217 209 219 224 225 227 254 253 236 245 278 296 245 234 234 235 243 253 258 252 242 239 239 239 243 251 248 246 249 248 247 246 241 229 204 190 186 188 189 202 224
232 239 231 215 206 229 229 221 242 260 245 242 245 280 288 271 251 223 223 218 217 231 209 203 201 203 211 206 208 210 211 212 211 209 207 196 189 183 188 212 223 229 236 266
226 232 196 203 237 213 235 236 236 255 237 245 239 275 277 279 238 246 222 224 215 233 217 215 216 215 218 214 209 205 207 197 192 192 213 212 213 224 233 236 237 284 254 224
219 204 177 232 245 238 229 245 239 221 234 238 261 274 274 282 245 235 233 232 231 218 217 228 216 223 221 226 220 217 215 213 210 210 231 235 239 246 263 291 235 219 212 216
231 230 246 239 242 232 214 227 234 236 291 234 292 272 268 268 268 257 235 235 245 231 229 223 218 214 210 206 205 216 251 279 280 270 267 261 248 230 213 212 218 213 194 217
229 230 240 254 251 235 237 214 262 221 194 191 195 195 243 198 196 200 204 215 212 212 205 203 202 203 220 228 241 237 235 229 226 222 221 220 219 215 214 206 161 212 212 211
235 226 239 247 239 238 214 213 205 200 180 187 270 257 240 212 209 209 220 203 199 203 201 219 221 224 219 236 235 224 225 220 219 215 213 211 214 191 168 212 204 217 124 222
235 233 239 245 236 212 188 187 211 218 195 273 263 209 211 209 211 209 205 219 206 203 209 221 218 225 239 231 226 220 215 221 213 210 208 208 201 196 182 198 214 214 225 228
243 246 253 216 240 198 200 200 230 258 210 263 222 217 212 211 210 205 203 216 204 207 215 211 235 240 236 228 223 221 213 217 198 205 202 143 158 212 214 216 218 182 218 252
262 269 241 241 224 202 192 244 210 234 244 226 205 207 207 195 210 217 208 202 212 214 215 226 219 225 231 227 224 217 218 211 210 206 145 160 214 218 215 219 136 242 242 357
241 239 243 229 205 201 204 194 202 213 226 207 209 205 205 202 208 203 203 213 214 221 216 223 226 221 217 229 260 252 244 215 163 204 162 229 229 215 221 230 223 262 454 662
235 243 250 206 200 201 201 200 196 210 206 201 202 207 209 204 206 209 212 224 225 217 225 224 223 218 232 248 251 247 242 145 152 163 193 225 213 220 225 220 245 319 391 369
236 244 219 231 204 213 209 206 204 206 208 209 207 211 211 205 208 212 218 220 223 229 226 224 230 225 231 240 234 172 143 206 202 221 224 211 224 224 236 235 278 403 355 334
238 243 223 218 210 206 210 209 212 215 212 203 204 203 204 209 214 225 227 219 224 225 227 224 225 227 195 192 153 213 157 215 226 219 214 225 230 233 221 234 320 383 343 327
233 230 211 178 214 211 205 210 212 213 159 211 213 205 216 215 217 224 224 222 223 223 225 225 221 224 229 152 204 238 217 207 216 215 225 227 229 216 251 287 326 367 336 323
211 217 220 231 222 221 215 219 222 219 220 219 220 216 216 220 192 212 222 219 222 223 220 218 221 185 226 232 230 229 226 215 217 224 226 228 241 259 282 300 381 357 332 318
225 223 222 221 219 219 218 217 215 219 222 222 223 224 224 223 220 217 219 220 218 217 221 221 193 223 212 219 222 226 221 204 221 227 229 238 276 286 260 325 386 352 325 314

GFSNGP_2pvu_pres_024.txt.gz
Presure
231 229 226 224 218 228 239 237 235 234 238 223 240 243 243 259 278 267 296 340 347 393 396 386 374 375 413 427 420 429 421 361 321 390 278 247 269 245 245 244 243 233 225 211
223 218 255 244 236 233 235 220 231 233 236 230 232 222 243 271 259 253 100 334 273 361 357 346 334 343 362 434 441 422 410 333 126 94 152 225 230 240 238 229 225 222 234 220
253 245 238 231 226 222 229 215 214 235 227 232 240 237 242 260 253 255 263 276 154 273 290 287 292 298 292 293 315 322 322 325 301 275 290 227 239 236 230 225 240 220 228 187
230 220 209 243 209 228 227 224 230 222 222 220 226 247 241 262 257 244 250 261 265 275 288 282 282 280 259 274 288 270 274 276 224 236 229 238 225 218 229 211 196 193 220 206
210 219 219 206 236 229 228 233 227 216 220 212 232 237 242 248 265 247 238 229 243 257 273 298 286 294 285 291 259 264 257 200 232 234 225 226 206 214 204 172 226 216 214 221
218 203 207 246 236 231 225 230 223 215 213 223 233 234 234 240 256 258 238 224 224 225 232 129 237 249 247 244 218 212 226 202 209 222 222 214 212 205 212 205 216 214 234 204
211 233 220 242 244 221 206 223 218 227 212 247 224 242 286 240 247 246 272 236 227 223 222 226 226 229 233 235 228 227 227 219 219 197 221 239 239 226 224 234 235 202 212 216
234 216 243 221 229 212 206 191 213 216 215 230 261 242 305 237 238 247 245 263 255 240 236 228 225 226 222 221 215 213 218 216 223 222 224 219 235 235 237 211 214 214 224 221
207 222 235 245 201 221 224 209 214 213 228 254 260 244 286 273 236 244 241 246 206 235 259 260 250 237 237 236 237 239 228 229 238 229 228 250 218 214 217 216 222 229 214 209
226 224 205 203 208 167 219 222 224 222 232 257 249 241 278 295 236 237 239 254 231 228 238 166 222 237 254 251 245 240 233 231 234 232 232 226 227 228 225 226 231 195 186 189
241 226 179 199 222 197 208 218 238 212 239 250 226 237 268 282 239 236 236 237 253 258 258 249 248 250 237 239 234 247 247 241 241 237 239 239 241 225 224 194 199 202 208 209
210 238 230 223 188 210 214 203 212 245 229 253 235 233 259 282 278 237 232 232 230 227 221 216 219 224 213 208 216 215 213 217 220 219 202 194 193 214 210 206 205 207 228 241
215 227 240 244 186 242 222 217 219 235 244 224 232 233 270 283 252 256 239 220 212 214 211 213 216 229 233 231 224 220 197 200 218 219 215 210 208 204 233 244 252 289 266 222
210 212 227 232 190 220 231 236 238 229 245 220 246 264 283 282 268 241 242 238 233 230 221 225 228 222 216 216 216 215 209 205 203 213 254 250 246 240 230 219 215 205 214 209
204 211 214 222 205 230 209 250 213 222 240 216 274 280 290 270 279 247 215 190 225 236 228 227 223 214 204 203 200 213 240 246 234 233 225 222 222 219 218 215 214 219 193 199
214 221 212 218 182 238 214 254 256 239 226 258 289 189 191 186 193 215 199 210 211 214 212 202 202 196 203 224 226 223 237 235 232 225 225 218 222 220 200 204 200 209 211 217
211 210 228 227 225 206 237 247 241 218 212 202 196 192 182 257 252 205 210 212 216 208 204 203 210 208 224 221 233 244 235 230 226 224 222 225 214 205 209 144 212 164 206 225
213 204 221 211 238 229 244 240 243 213 227 211 243 261 226 245 210 210 212 211 209 209 222 215 202 219 218 218 226 225 227 232 231 232 233 229 228 231 215 160 211 234 217 199
209 217 223 213 225 235 245 251 235 213 194 185 192 236 211 219 222 217 211 209 209 211 208 207 214 224 223 219 224 226 224 223 243 253 251 247 225 237 154 197 221 198 148 234
215 220 225 216 224 241 263 238 216 204 190 194 210 266 255 213 203 210 203 209 218 204 209 212 219 225 224 221 224 221 218 217 234 246 244 235 222 153 209 238 180 134 215 252
220 223 226 219 235 268 256 201 216 207 193 193 194 242 233 207 203 203 203 210 203 208 212 213 223 216 227 226 225 226 226 232 235 196 238 147 185 215 221 220 228 243 244 281
218 226 221 220 249 247 244 247 215 212 203 231 197 194 205 205 205 202 200 205 207 207 211 218 222 221 223 225 227 225 218 223 227 232 234 188 223 221 218 237 217 225 267 305
230 240 225 226 258 240 238 244 206 207 201 204 203 204 203 205 210 208 207 206 214 217 217 220 223 219 222 224 224 227 226 225 175 192 159 222 223 225 239 217 225 275 295 328
248 243 239 228 256 239 240 241 212 212 207 204 205 205 209 214 214 214 214 213 213 211 216 223 225 222 219 223 221 221 223 183 222 212 227 214 217 228 228 244 275 280 297 335
246 248 241 242 253 232 241 236 230 225 215 212 212 211 212 216 215 215 204 220 218 216 218 224 222 218 221 221 219 207 224 223 195 217 210 216 226 227 240 281 273 291 323 365
252 248 243 247 246 236 234 242 231 218 206 206 209 206 209 221 223 220 220 223 223 224 224 223 220 221 221 219 222 223 220 222 219 227 219 225 228 252 275 276 274 304 326 386
250 243 254 248 240 238 224 213 228 221 222 221 219 216 216 217 219 221 224 222 224 224 224 225 222 219 218 218 218 207 227 224 211 217 226 230 262 274 272 271 299 324 329 379

GFSNGP_2pvu_pres_027.txt.gz
Presure
275 252 245 255 260 261 255 248 242 234 234 235 230 248 235 252 243 245 278 267 272 286 316 235 330 340 365 384 370 361 347 350 355 358 306 156 218 275 188 281 199 193 261 256
262 261 258 254 249 240 235 231 226 223 227 243 222 246 240 226 245 269 272 248 271 269 290 291 305 307 318 333 421 420 415 374 352 348 348 344 343 329 311 234 156 152 280 246
240 242 237 235 224 223 224 241 240 239 245 216 240 228 212 242 235 277 255 235 233 274 265 266 275 276 279 301 305 337 365 422 423 432 414 364 360 346 339 196 307 278 239 239
229 225 220 228 243 240 238 228 218 228 232 239 212 222 234 235 236 264 245 233 224 242 306 283 269 268 260 285 282 290 299 295 310 320 312 287 273 255 247 244 238 236 231 227
253 252 256 244 218 225 224 224 230 229 234 209 214 220 232 235 229 255 248 235 227 224 234 283 280 275 272 277 274 268 278 256 251 251 230 230 239 225 235 232 217 228 213 194
253 212 209 210 213 220 233 226 232 213 214 218 219 224 251 243 238 251 257 241 229 213 222 222 257 218 241 237 258 246 243 232 238 194 196 226 216 161 221 238 215 224 224 222
213 221 210 216 237 244 235 237 213 220 207 207 213 249 242 311 240 252 246 251 236 224 217 222 227 231 231 231 253 214 242 232 217 230 206 228 222 251 218 214 205 238 233 217
227 217 223 248 241 233 243 214 208 229 213 210 225 249 235 280 254 239 251 241 249 243 237 227 219 231 226 229 233 227 224 238 229 227 217 225 219 227 206 233 201 215 228 216
219 202 239 219 241 234 221 199 211 222 211 230 226 251 231 261 293 232 243 245 242 232 233 232 257 233 232 229 236 235 239 227 227 232 234 226 225 240 209 236 226 244 212 213
219 211 238 218 242 212 228 197 220 220 219 209 228 249 225 245 278 239 242 243 258 233 239 243 231 244 257 249 246 243 242 245 229 235 227 236 225 225 229 224 222 220 227 226
220 212 228 221 217 200 215 244 209 209 218 220 241 238 229 251 268 255 236 241 243 258 263 256 253 250 231 230 229 227 236 237 235 235 236 236 239 243 206 203 198 197 203 205
227 214 213 234 235 200 220 209 216 220 220 212 244 232 230 232 270 284 269 226 234 234 233 231 225 214 218 216 207 210 212 211 212 215 208 198 195 204 215 211 206 207 224 240
229 219 218 214 238 236 238 231 232 217 221 247 235 222 232 240 281 287 244 241 231 224 229 228 237 235 230 227 226 225 221 220 217 201 202 203 204 234 245 248 244 234 219 206
226 220 207 209 217 238 237 240 238 209 237 242 245 231 238 249 289 294 286 248 238 237 235 231 222 220 222 222 205 204 209 210 220 219 246 237 233 229 218 216 215 212 213 216
226 228 204 208 211 221 224 199 194 236 243 254 247 227 254 275 301 285 283 238 190 228 202 231 225 221 204 204 201 201 221 222 247 240 234 228 225 222 222 223 223 223 210 175
233 240 212 202 209 212 214 224 201 180 242 251 214 235 267 224 193 185 263 253 227 210 245 220 211 204 199 210 200 218 214 223 226 222 219 221 222 224 259 262 254 251 186 240
239 244 213 209 211 205 214 194 216 234 238 255 227 247 270 198 194 213 192 255 200 210 217 210 210 220 217 201 211 221 220 218 221 221 217 217 215 221 239 238 238 192 243 213
235 247 219 205 211 212 210 221 232 234 242 252 242 230 200 184 220 262 252 237 203 212 212 201 206 212 200 209 214 217 222 222 218 219 218 218 220 233 234 242 241 172 228 219
223 245 213 211 210 214 208 216 228 235 244 248 223 256 277 202 184 211 209 220 221 214 194 202 215 202 209 206 215 217 216 224 223 221 223 223 219 222 234 238 198 220 233 228
223 225 225 217 221 216 207 221 225 229 247 252 224 213 263 256 188 190 229 209 202 202 207 201 210 200 207 206 214 222 223 219 217 223 226 229 233 225 233 192 180 164 223 233
225 215 224 223 225 221 211 221 224 214 244 277 222 258 209 252 220 244 230 213 208 202 202 200 204 205 204 212 216 223 222 223 220 224 227 227 229 232 144 172 175 226 246 246
225 230 221 223 225 222 222 225 213 224 246 251 242 240 207 200 196 219 221 203 205 210 210 207 204 209 219 217 216 223 222 225 221 225 223 224 192 143 198 199 235 227 255 272
235 226 228 228 218 213 223 223 227 218 243 248 245 223 202 231 209 205 203 203 203 209 208 206 213 213 213 218 221 220 227 224 224 226 225 169 191 226 203 225 245 257 272 279
248 238 232 232 230 226 224 222 227 222 251 246 240 226 202 211 207 202 203 206 206 208 212 214 214 214 224 223 220 228 227 226 227 216 226 199 213 226 176 246 257 276 286 297
268 257 253 250 241 234 234 228 213 237 228 253 242 241 218 206 215 215 207 208 207 208 206 207 218 222 226 228 227 225 225 216 224 227 224 217 230 237 243 244 276 290 204 295
266 164 266 258 253 251 248 248 249 247 237 240 237 237 236 235 222 217 208 207 208 216 220 219 220 224 228 215 218 224 227 228 220 218 226 229 236 241 255 285 297 293 294 304
268 265 264 261 226 253 252 248 246 227 249 254 245 235 241 236 229 229 224 222 222 221 217 216 215 221 216 220 221 221 219 223 228 219 232 236 245 253 288 281 262 296 300 309

GFSNGP_2pvu_pres_030.txt.gz
Presure
259 259 258 264 270 270 272 271 273 259 253 249 252 256 257 253 243 233 257 245 256 259 277 262 294 272 265 307 308 356 405 381 353 356 355 366 395 311 289 286 157 255 289 135
258 256 259 257 259 257 256 254 246 245 252 252 251 245 240 223 243 257 235 258 255 271 256 237 295 227 282 299 300 315 349 423 386 354 349 358 367 362 387 309 290 279 241 187
282 271 258 254 253 246 252 257 249 244 243 238 228 233 243 239 226 232 257 241 275 257 244 233 223 258 282 285 291 295 309 357 436 419 354 349 347 360 374 357 348 260 183 171
272 274 274 270 267 259 246 240 234 230 225 236 232 236 233 230 234 248 258 242 263 249 236 226 222 267 203 275 220 278 287 291 303 302 297 298 307 334 342 345 315 319 307 327
246 248 248 247 239 232 227 222 228 239 216 216 231 223 220 230 281 253 263 241 258 252 235 224 214 217 236 203 249 252 221 253 263 266 268 268 264 268 267 266 262 232 252 242
230 232 227 221 222 231 243 240 221 211 225 233 229 216 215 241 254 288 260 238 259 249 242 226 226 225 215 232 241 233 202 230 223 255 251 210 236 184 183 227 218 238 171 230
225 223 266 258 256 217 220 216 231 233 235 226 224 210 223 242 241 263 273 238 250 251 243 241 243 234 231 224 219 214 234 239 219 222 250 249 246 229 230 246 240 207 238 212
276 269 232 220 207 222 223 231 236 239 221 208 212 203 223 243 232 249 276 237 248 240 249 236 244 249 239 239 235 237 243 232 254 233 225 237 216 213 227 214 223 238 249 224
220 214 223 210 229 231 232 236 246 208 219 213 212 222 234 233 204 241 272 272 237 246 237 227 235 242 252 246 236 242 230 230 230 228 228 238 245 236 227 237 233 245 222 220
216 222 212 207 231 219 234 235 202 237 202 220 210 225 227 240 226 227 254 283 242 244 248 237 250 229 223 245 247 244 228 232 236 229 229 230 232 229 231 229 228 230 241 207
217 225 218 206 226 228 239 249 238 194 215 218 218 217 224 242 231 226 253 284 242 242 253 265 254 256 248 241 242 239 207 224 213 213 213 212 206 213 206 206 211 206 205 205
219 224 223 214 218 225 205 209 209 184 229 218 221 219 231 235 240 238 245 286 283 233 215 219 228 214 210 210 214 222 226 223 219 214 210 209 199 208 214 229 233 233 232 228
214 219 227 220 214 214 224 229 225 192 210 233 215 230 235 245 256 233 238 289 283 243 238 226 232 241 228 225 223 223 219 202 204 220 222 237 238 236 232 231 231 230 227 226
215 213 219 229 219 213 212 219 235 190 244 242 235 246 240 256 235 231 268 296 279 249 198 226 232 223 225 228 216 204 206 202 220 220 213 228 230 227 224 222 223 217 240 250
221 217 219 214 226 215 210 213 224 227 235 197 241 239 244 256 221 251 281 333 276 200 220 234 199 225 219 209 205 207 214 205 208 221 222 221 222 223 221 223 222 216 217 223
222 220 221 223 218 221 211 210 214 221 220 227 231 242 242 257 226 263 294 199 192 184 228 238 216 245 213 212 220 217 204 207 212 220 224 224 224 222 222 220 222 221 217 217
228 222 222 223 222 225 216 208 213 212 217 212 220 234 239 248 228 263 220 202 195 202 196 203 206 220 206 207 210 205 204 209 205 219 217 216 223 225 223 225 225 228 232 178
226 226 228 227 227 227 232 213 203 203 216 215 206 178 232 248 227 265 255 192 230 242 246 232 203 211 206 200 215 206 206 204 206 212 217 224 225 221 224 224 225 150 206 173
224 228 228 229 231 230 238 221 212 213 217 210 220 224 234 248 244 246 212 238 257 185 212 230 216 206 204 209 206 208 195 205 205 215 218 221 224 227 226 226 193 226 173 237
234 226 223 217 236 231 244 226 216 216 212 211 214 220 228 245 256 246 265 262 262 187 209 214 204 200 207 203 202 203 204 204 216 220 215 219 226 227 227 227 202 233 231 198
227 226 225 233 216 213 237 237 215 214 213 218 214 221 226 243 265 228 215 259 260 195 193 229 212 207 201 212 211 206 206 212 214 212 220 223 225 228 228 226 228 170 177 250
235 224 225 225 230 228 226 237 228 223 221 223 218 223 220 229 262 239 242 249 206 242 188 238 214 202 200 204 210 206 214 214 214 216 222 227 228 222 228 231 221 238 251 264
251 234 231 224 223 228 224 223 218 228 224 217 222 221 222 216 237 247 234 221 194 211 211 199 205 205 203 205 208 175 212 212 217 224 226 215 225 227 217 234 240 252 261 265
284 249 234 233 233 227 225 228 226 222 221 228 215 217 224 219 211 244 244 231 215 194 206 217 205 205 207 212 210 204 215 221 219 220 220 226 221 217 235 241 249 260 255 300
283 282 250 246 239 236 236 230 227 227 226 226 227 227 223 227 219 233 242 242 230 223 213 204 214 215 212 206 208 215 218 216 212 221 232 227 217 238 240 246 251 261 309 280
285 276 279 282 270 255 247 242 192 238 234 228 227 229 229 215 223 243 238 251 241 227 216 207 211 215 208 212 216 219 216 219 228 235 209 237 239 234 247 248 258 322 243 254
283 281 277 277 278 278 271 266 261 259 257 257 255 249 250 247 244 244 240 241 243 240 237 234 230 229 228 225 218 218 229 226 215 228 241 235 236 248 248 262 310 276 252 260

GFSNGP_2pvu_pres_033.txt.gz
Presure
262 264 265 264 260 262 265 257 249 251 233 237 230 235 244 259 255 263 268 267 265 243 260 250 250 255 258 246 270 302 244 292 323 462 420 402 377 351 337 350 355 344 318 313
269 274 280 269 256 255 256 258 258 244 240 250 260 246 238 257 258 263 262 235 249 248 238 259 253 265 241 233 257 224 276 290 247 464 410 380 352 338 356 352 357 346 330 320
263 264 262 264 263 268 270 273 275 270 263 260 253 251 249 254 252 233 243 251 239 237 275 260 275 252 227 237 226 238 269 222 297 307 311 317 342 335 336 350 348 374 350 331
261 260 257 260 258 258 258 257 255 250 243 241 244 253 245 223 229 239 240 238 181 246 262 249 262 242 230 233 224 235 208 244 230 283 275 252 286 332 315 328 300 297 352 337
281 284 279 259 251 251 255 248 240 246 249 249 241 222 233 223 234 228 230 270 260 275 257 255 257 235 233 232 226 235 231 221 233 198 236 269 278 274 274 276 280 277 278 278
263 272 276 281 280 276 249 259 252 245 237 220 234 227 215 237 230 220 236 254 285 263 249 268 255 239 239 234 223 225 220 214 233 233 206 193 237 190 261 209 248 275 203 232
238 242 247 256 258 251 242 234 226 226 237 232 220 212 239 222 223 231 238 238 244 322 245 257 255 246 250 257 239 226 240 237 242 239 236 240 237 222 231 230 230 223 228 218
227 230 224 226 223 219 221 231 247 218 224 229 226 240 225 220 210 233 230 232 241 277 246 252 248 242 242 245 253 238 229 237 239 239 228 232 238 232 237 235 237 234 231 235
234 235 225 218 261 245 249 215 220 230 231 228 241 222 209 229 222 239 232 239 234 257 293 239 250 245 240 240 234 251 250 235 239 241 233 215 213 218 221 223 224 222 219 219
224 226 269 272 256 214 216 229 228 233 237 239 235 222 209 214 226 219 243 235 227 251 298 250 248 268 243 243 247 241 238 233 233 222 223 222 214 212 213 212 213 218 217 218
277 281 279 227 213 220 224 234 234 236 237 204 232 198 223 216 221 228 222 251 229 236 298 282 216 250 245 215 242 240 228 237 228 219 210 212 216 228 233 235 242 238 233 228
285 280 217 210 223 214 242 233 243 243 204 208 218 217 227 221 223 228 232 255 234 243 299 284 225 225 217 229 234 231 223 223 213 209 204 223 219 216 242 241 235 232 228 224
276 214 221 222 222 222 232 217 214 214 219 217 215 212 225 242 229 244 246 261 236 255 303 293 244 229 226 225 224 224 223 213 204 211 209 216 207 227 226 224 226 227 228 227
222 218 221 219 231 223 211 226 227 229 236 242 200 203 237 242 237 234 250 251 236 259 325 290 243 240 233 220 228 223 212 207 211 217 209 212 219 224 225 227 228 228 228 224
224 220 222 221 223 227 222 207 214 218 220 228 237 237 217 226 230 235 244 249 230 284 328 281 200 179 194 233 238 224 210 210 225 209 207 211 210 210 216 225 227 227 219 223
230 223 221 222 213 214 216 224 219 216 213 222 225 222 223 193 222 234 241 252 227 288 322 195 200 208 221 203 209 220 209 205 203 211 207 207 207 210 215 223 220 222 225 227
231 223 222 221 221 215 218 213 224 221 213 211 221 215 218 211 208 233 235 243 237 277 277 204 182 246 184 242 204 209 214 203 212 209 212 203 208 211 220 224 215 224 226 229
234 230 224 222 214 220 216 220 221 221 228 211 215 211 212 216 214 224 212 237 249 260 212 201 197 184 185 231 213 207 215 209 209 203 200 208 209 214 217 213 222 226 233 216
241 232 234 224 223 217 217 219 218 223 225 236 205 203 203 215 214 221 223 225 251 239 219 212 243 246 219 196 229 210 204 206 202 209 210 213 213 215 218 223 217 224 227 173
252 243 234 234 223 225 223 218 223 222 224 225 238 214 213 214 214 214 219 216 237 250 236 256 261 252 246 192 198 219 215 206 208 204 211 213 213 215 218 226 219 156 202 187
286 265 246 237 235 221 222 224 215 221 225 226 241 231 210 214 211 211 215 221 222 249 244 226 252 264 259 250 193 191 220 204 202 209 197 214 211 213 225 215 208 222 237 225
247 260 322 245 245 237 233 224 224 227 233 218 233 240 226 218 214 214 218 218 217 220 245 244 247 241 227 215 254 251 246 175 190 205 207 210 206 215 215 210 222 231 228 222
317 294 248 294 261 237 236 238 227 224 240 227 225 230 235 227 225 224 224 222 222 221 214 238 248 234 234 235 204 196 229 220 215 209 213 210 215 215 213 222 233 226 126 245
298 300 302 297 283 258 238 234 228 228 225 228 227 229 233 226 226 219 221 217 217 221 224 213 225 247 231 234 228 218 213 210 209 214 213 213 215 219 206 226 224 233 239 248
294 291 294 291 282 273 256 239 234 228 225 224 225 227 226 221 218 224 226 227 220 228 224 219 217 238 238 239 235 227 222 222 217 211 213 225 226 204 220 222 257 246 259 262
284 286 290 293 296 287 274 262 245 238 233 230 232 232 231 231 229 226 225 225 226 226 231 227 210 224 230 240 244 241 239 236 234 237 233 228 221 218 233 246 248 252 257 275
277 278 286 289 289 290 288 283 270 261 255 249 244 239 237 237 237 236 237 238 242 248 249 244 243 245 241 237 238 240 231 232 234 239 217 209 226 257 246 248 250 262 269 243

GFSNGP_2pvu_pres_036.txt.gz
Presure
280 290 278 256 259 262 261 247 246 251 251 254 248 246 241 238 238 232 241 241 240 241 243 252 274 266 265 258 259 255 267 250 263 252 243 243 255 379 368 368 370 356 352 370
274 267 271 274 270 276 281 287 288 246 246 240 238 234 239 240 236 252 229 223 242 270 269 261 258 258 248 250 256 267 253 244 222 246 235 230 239 365 357 365 356 360 350 340
273 267 265 262 260 256 256 259 268 272 272 267 245 242 242 243 254 247 246 265 268 251 253 249 250 249 274 247 268 255 245 236 230 235 245 244 217 304 322 324 323 362 351 339
266 268 271 266 266 260 258 261 256 250 250 252 253 248 248 245 248 260 266 248 237 261 236 260 293 284 246 260 255 247 238 240 234 230 219 226 221 202 227 229 297 299 323 341
255 263 263 265 267 266 270 268 261 257 255 258 260 257 257 256 256 257 234 229 240 246 252 249 291 247 247 262 247 242 228 227 223 225 238 241 245 258 238 251 253 245 234 280
287 262 251 258 254 258 261 251 252 251 249 248 245 245 242 245 246 230 233 243 234 233 250 243 309 255 251 266 251 240 250 238 227 242 240 246 241 203 240 247 239 263 241 246
255 270 279 279 258 257 255 249 248 245 242 239 240 242 244 226 225 231 242 234 228 238 237 243 264 301 250 245 260 245 251 236 239 246 246 246 246 229 230 231 229 234 237 237
245 247 254 268 276 278 269 249 249 244 237 242 246 226 227 228 222 244 227 227 216 244 228 237 246 304 248 251 244 231 244 262 256 242 246 215 221 235 225 219 224 223 223 223
237 238 241 239 251 265 267 266 258 258 258 223 222 231 222 216 232 233 223 225 201 239 245 237 238 306 246 251 260 241 236 243 253 215 228 216 219 216 229 237 243 242 244 241
235 233 228 228 231 227 228 227 224 220 226 239 222 213 231 237 232 221 211 217 229 224 244 239 238 301 249 251 272 267 252 235 220 226 258 212 212 206 211 222 240 242 234 233
235 234 235 230 233 223 218 218 240 251 224 214 232 232 230 237 224 237 216 213 225 239 224 265 239 304 252 225 223 224 226 247 238 226 213 212 210 210 216 223 230 232 228 230
240 237 236 226 224 222 271 256 251 217 230 230 229 237 238 223 221 216 226 232 216 243 259 259 257 307 305 232 230 235 233 221 224 226 212 206 215 212 215 216 213 216 220 224
245 238 230 221 282 281 270 215 222 218 232 232 235 237 236 230 213 241 214 200 234 236 252 243 256 323 304 249 237 227 225 225 229 218 214 215 222 209 212 210 211 214 214 224
244 237 247 283 287 273 214 223 226 235 238 246 244 239 207 235 213 212 243 239 235 237 249 227 251 335 294 184 182 182 199 235 234 216 213 209 218 217 214 205 206 215 215 221
246 241 264 286 279 219 214 224 219 236 218 215 218 217 228 244 190 233 212 224 226 233 237 249 237 326 287 189 216 235 213 199 211 220 216 214 214 214 212 206 211 215 210 215
254 238 251 280 221 214 215 226 220 215 226 231 232 233 233 236 229 220 219 225 224 227 235 245 244 275 277 198 191 233 231 227 209 214 212 211 212 212 206 210 213 215 215 216
257 243 235 268 223 221 220 215 226 226 218 206 213 212 223 222 223 222 221 212 201 228 224 236 249 247 220 207 194 194 188 185 235 219 202 203 197 196 208 211 209 211 214 213
251 257 243 236 227 224 220 221 214 214 218 225 228 218 207 214 217 216 215 215 214 197 224 226 221 250 260 269 231 198 241 229 189 191 224 211 211 205 207 208 204 213 207 209
286 255 251 241 235 229 223 221 217 215 216 220 218 220 224 208 206 210 213 213 217 215 217 202 219 227 253 237 265 257 251 244 238 223 185 193 204 206 210 202 204 215 211 211
247 285 257 250 242 232 226 225 221 216 221 222 220 222 223 224 222 204 204 204 213 215 208 216 216 218 225 254 244 250 264 258 223 247 211 242 238 172 242 232 204 216 214 212
286 271 282 261 248 240 235 229 220 225 220 215 215 220 220 219 225 225 234 223 216 215 210 210 216 219 218 216 236 251 248 243 250 184 208 235 198 201 213 202 214 207 213 212
267 299 254 276 276 248 242 237 232 227 219 222 224 223 219 219 222 225 227 235 238 222 222 215 218 222 218 219 225 154 225 245 242 238 234 226 221 217 218 224 222 221 214 229
268 283 289 251 264 298 266 248 244 235 230 228 223 219 223 225 220 220 213 224 236 232 227 227 225 221 216 218 218 223 224 217 220 241 242 236 235 234 233 229 231 233 239 240
309 313 312 283 265 247 266 302 261 244 244 239 237 234 218 216 221 223 241 239 228 232 238 232 234 218 216 219 218 223 225 222 215 213 232 230 243 243 241 232 235 236 245 240
289 298 302 301 298 303 267 250 252 275 270 250 239 240 237 238 234 230 226 226 226 225 224 220 218 217 226 226 223 227 225 225 235 240 241 238 236 237 239 244 247 246 250 254
276 279 286 293 299 299 295 294 298 296 280 273 263 249 240 236 233 231 228 226 225 224 225 228 231 228 228 227 229 228 235 244 246 245 241 241 243 242 238 242 245 256 256 258
276 277 279 278 280 293 298 298 290 284 284 283 274 265 251 241 238 236 234 233 231 229 229 229 230 231 233 236 242 251 250 249 245 244 248 248 243 238 243 258 254 257 262 264

GFSNGP_2pvu_pres_039.txt.gz
Presure
274 270 273 276 269 249 258 263 254 254 252 250 252 243 231 226 222 220 221 230 230 231 249 254 258 255 252 259 255 253 292 276 270 255 266 267 179 239 236 247 242 221 225 335
282 282 286 275 266 263 268 247 263 259 248 243 248 248 247 247 249 251 254 254 262 255 249 247 258 243 250 249 285 279 256 262 248 265 261 245 264 250 251 234 232 266 253 372
274 274 272 279 291 260 264 266 263 247 254 250 258 257 240 241 251 244 248 240 242 239 237 235 232 253 271 274 263 255 263 274 263 254 243 258 243 243 237 252 246 237 255 239
271 275 270 268 268 276 282 268 264 263 255 241 245 249 252 249 245 236 241 236 232 241 253 246 261 256 248 251 237 287 260 259 261 252 240 239 235 233 259 259 263 252 252 249
266 265 272 268 261 259 257 257 260 260 264 271 278 275 254 241 236 237 238 243 252 251 263 254 248 246 261 254 306 269 252 269 263 250 248 241 241 240 238 242 229 230 236 233
267 251 261 262 269 266 259 255 253 251 250 244 243 245 247 245 249 252 247 247 252 253 244 242 243 235 254 247 288 287 258 263 258 248 253 252 248 262 243 210 227 219 233 234
265 281 258 253 257 261 264 262 265 262 249 243 241 239 241 239 244 252 247 247 250 235 235 243 235 230 247 239 252 303 251 250 253 243 251 266 257 243 219 216 228 237 253 253
249 261 272 279 252 249 253 255 257 254 256 257 255 256 254 247 242 239 244 241 234 226 242 235 224 241 250 244 253 300 247 255 265 247 229 255 230 229 209 225 204 223 237 237
250 251 256 260 269 274 265 251 252 249 242 245 240 236 236 234 235 245 234 226 231 232 233 228 226 228 248 254 252 301 249 259 268 250 255 239 224 233 213 211 220 218 228 224
246 251 246 249 256 260 265 270 266 253 246 245 241 238 236 235 242 224 222 226 219 236 222 216 233 232 231 256 252 314 245 255 280 264 218 229 238 215 209 209 218 216 214 217
250 241 244 237 244 244 257 268 269 267 253 252 252 243 244 233 223 231 222 222 235 231 210 215 218 243 258 239 263 323 246 228 227 230 240 235 231 222 212 223 219 207 212 210
249 246 237 238 229 232 236 241 256 263 261 257 256 229 220 231 220 216 231 228 238 218 227 244 222 216 261 249 274 322 258 200 236 242 224 233 233 215 218 216 221 217 211 212
269 251 243 236 230 226 226 228 227 225 220 216 227 235 247 210 231 232 238 237 234 220 213 242 225 238 249 229 274 310 267 249 241 181 196 234 236 222 215 213 213 220 209 208
257 268 246 242 236 235 237 231 228 222 224 241 249 248 211 231 233 238 231 233 214 187 211 237 232 238 248 239 260 289 296 251 227 186 229 190 200 205 215 218 208 209 205 208
282 262 262 245 241 240 238 221 227 251 272 260 236 214 236 237 242 240 242 206 217 208 207 224 225 235 238 252 243 275 281 197 193 216 198 224 227 222 218 205 214 211 212 212
275 275 267 256 246 240 230 266 283 279 263 217 221 237 238 249 248 219 214 240 202 204 233 201 234 234 230 238 255 255 273 284 266 236 190 234 190 192 202 229 212 205 218 218
280 281 256 266 250 242 234 280 287 272 215 227 217 229 226 219 220 215 230 226 235 226 224 221 216 206 225 224 229 243 255 270 239 253 246 197 241 240 197 194 192 195 226 235
274 272 286 257 263 242 238 283 279 224 219 215 222 220 220 214 232 225 218 228 223 227 223 224 220 212 215 219 224 224 214 259 248 266 266 256 250 249 246 230 229 230 205 205
280 276 276 288 261 251 236 273 264 217 224 220 215 227 225 220 215 210 210 210 210 215 218 216 216 217 217 218 213 218 224 223 225 245 253 257 260 259 257 198 252 247 239 233
278 281 285 286 293 262 245 240 233 228 216 223 223 216 219 216 221 218 221 227 222 211 204 205 208 205 205 217 214 213 218 219 222 220 226 223 221 237 239 240 240 239 238 238
272 278 276 286 296 291 258 242 235 244 228 221 220 220 221 217 216 217 219 221 222 222 225 222 234 237 235 224 217 222 213 221 223 221 217 216 221 225 222 222 217 224 228 231
276 274 290 284 293 296 299 262 245 236 239 226 227 224 221 222 219 215 218 221 224 225 226 227 227 225 227 232 238 229 228 225 224 222 218 217 215 222 224 229 238 238 240 243
298 280 272 269 295 280 311 292 271 254 242 237 233 227 228 223 218 221 223 225 225 224 221 218 218 219 225 227 224 229 235 229 234 226 216 221 222 225 231 226 235 243 241 242
296 311 322 322 290 269 300 290 270 296 261 251 240 237 236 234 228 227 221 221 218 217 216 217 218 220 221 231 236 230 224 211 208 213 223 230 225 230 228 245 249 245 246 249
289 294 301 308 316 282 264 294 277 255 277 316 268 256 245 241 239 235 232 230 228 228 228 229 232 234 230 226 218 222 222 220 218 226 229 229 230 232 248 252 250 250 253 250
279 279 284 288 296 300 305 304 301 288 260 249 245 297 284 263 254 246 241 238 236 233 232 234 235 236 236 235 230 227 227 228 229 234 237 238 245 253 254 255 257 254 252 251
282 280 279 281 283 283 285 292 296 299 298 296 283 252 249 249 255 255 257 258 256 251 246 242 240 239 238 237 238 240 238 238 240 247 255 263 264 262 259 255 257 258 261 265

GFSNGP_2pvu_pres_042.txt.gz
Presure
265 265 267 252 264 266 270 280 288 290 291 280 265 247 250 247 243 241 234 226 221 216 220 223 221 220 219 223 213 213 219 228 236 237 273 254 288 269 285 274 266 253 243 233
274 285 285 278 254 262 253 268 271 280 286 271 281 263 270 246 241 243 237 231 229 228 226 226 225 228 230 226 220 218 231 273 271 248 291 269 263 276 261 261 253 246 239 249
285 277 283 283 280 277 245 254 255 264 266 268 256 260 253 254 238 236 230 227 228 230 227 229 229 225 224 222 236 258 256 257 278 267 270 255 271 259 262 255 251 248 250 244
270 277 273 278 278 281 283 270 258 251 250 252 258 259 246 250 252 234 230 230 231 231 229 228 229 241 258 251 214 248 268 264 273 276 284 264 270 263 255 257 265 243 254 225
272 267 273 274 265 270 282 271 264 271 249 253 262 255 251 244 243 244 246 250 253 251 252 247 243 245 248 249 268 256 251 249 247 309 274 257 269 264 261 264 246 254 224 219
271 267 263 268 272 265 262 272 278 262 258 264 263 253 259 258 256 261 261 260 257 258 254 244 245 238 270 252 254 246 238 251 260 237 261 262 272 264 250 265 263 214 222 227
273 269 252 262 264 272 257 258 255 262 266 267 273 271 268 260 251 241 240 242 240 237 238 242 254 259 249 250 238 228 236 276 247 310 252 262 254 247 238 252 213 219 214 210
256 263 273 268 252 259 262 270 259 252 251 252 251 251 254 255 260 261 262 256 251 249 241 246 246 246 239 235 244 231 234 280 249 315 255 262 262 253 254 245 232 220 218 206
255 256 253 269 275 254 258 255 262 265 266 259 248 246 248 245 241 243 244 239 235 245 243 241 239 237 225 244 230 234 239 261 250 322 257 273 271 262 245 225 239 217 205 217
260 252 251 247 265 270 278 254 254 259 259 256 257 262 264 240 237 240 253 253 245 236 240 234 232 235 242 226 224 222 266 252 314 319 240 231 227 227 234 240 231 227 215 221
258 258 249 249 249 251 264 270 272 263 250 259 246 245 250 254 252 242 235 234 235 238 235 227 231 222 246 215 216 218 257 259 320 312 254 237 221 237 223 234 233 232 219 215
264 264 253 246 249 245 247 256 261 264 272 258 259 244 240 244 241 239 237 237 239 231 224 228 224 241 218 224 236 226 251 246 287 305 259 247 231 235 197 201 233 211 210 222
278 264 267 252 244 246 237 244 244 254 265 270 268 259 247 247 247 246 244 244 237 227 229 230 235 237 221 214 245 239 249 244 266 290 287 247 242 189 234 220 191 185 222 220
276 276 260 261 249 242 235 237 227 235 238 251 267 270 265 255 253 249 250 228 231 228 235 238 237 215 228 235 233 243 246 254 234 269 284 293 251 195 189 192 214 200 193 212
269 274 277 256 263 250 241 235 234 225 225 227 230 226 218 216 226 232 236 228 227 233 238 238 241 216 215 220 215 235 230 239 251 256 268 278 285 265 228 244 198 199 211 239
287 264 273 280 257 265 252 240 239 233 234 232 234 227 222 230 238 242 214 221 237 233 240 242 212 216 205 205 213 233 211 225 223 235 244 260 269 275 269 262 256 247 247 248
270 285 269 277 282 265 263 254 243 241 235 235 223 222 232 250 261 216 221 232 230 243 235 216 227 212 226 232 225 221 219 215 219 222 220 225 226 235 256 264 264 263 262 261
279 275 274 279 283 279 266 260 258 246 242 238 226 260 273 270 215 223 232 235 244 223 220 223 235 230 233 229 226 224 217 220 221 220 218 213 223 221 216 221 223 222 223 217
277 282 283 274 273 277 282 263 259 256 248 238 231 285 278 271 222 221 218 234 220 215 230 230 212 215 213 211 210 215 214 212 202 209 219 219 217 211 224 222 217 217 218 218
273 272 274 278 280 280 262 286 256 260 254 243 236 290 276 228 224 223 221 222 220 221 218 216 213 212 215 215 222 227 210 213 232 238 241 237 231 229 228 226 227 222 223 220
262 263 262 278 278 280 280 266 288 256 257 247 234 284 272 217 215 224 225 224 226 227 223 224 224 217 218 221 222 225 227 228 223 220 230 229 228 234 237 233 234 218 224 229
276 276 269 266 274 283 279 278 293 294 264 252 246 247 276 225 225 219 215 217 217 218 218 217 218 220 219 217 220 225 224 223 223 221 224 225 238 235 233 224 208 223 227 228
271 270 269 270 265 271 271 284 281 293 299 281 252 247 236 270 233 219 222 222 220 218 215 214 214 216 218 219 222 222 218 216 216 215 223 226 227 232 228 225 223 228 231 233
276 278 280 275 285 305 297 283 270 303 297 295 291 261 248 242 238 230 230 227 222 219 217 218 218 218 219 221 224 221 218 221 221 225 234 236 234 229 227 226 231 230 237 248
290 289 290 294 295 304 315 322 325 288 278 268 317 284 286 260 249 243 240 237 235 232 230 230 230 229 229 230 232 232 231 234 237 238 238 235 234 235 235 233 237 246 253 258
282 279 279 280 285 288 292 298 303 309 269 268 281 302 271 271 289 279 254 251 250 246 242 240 239 238 237 237 237 238 239 242 244 243 243 243 242 242 244 252 257 263 266 267
273 272 279 284 282 276 275 285 287 292 298 301 299 269 297 276 262 252 255 282 292 281 259 250 249 248 248 249 250 251 253 255 258 261 262 260 257 262 264 266 273 273 269 273

GFSNGP_2pvu_pres_045.txt.gz
Presure
268 264 258 273 276 275 277 280 274 295 304 299 289 280 272 276 266 260 253 249 245 243 242 242 242 245 242 236 244 248 245 235 233 239 228 228 225 239 227 237 281 278 265 250
282 288 269 262 262 269 268 276 270 290 287 296 300 272 267 262 263 267 268 268 263 261 254 248 245 254 241 236 235 234 229 227 225 224 226 235 235 244 251 293 281 263 293 269
302 304 281 269 274 258 267 268 267 273 284 286 286 290 273 264 257 253 257 253 250 245 245 248 228 226 225 226 228 227 227 227 228 233 237 237 246 287 286 262 298 282 271 275
286 291 290 275 273 274 265 260 260 267 266 270 278 286 291 288 254 253 247 241 234 232 231 226 226 228 237 241 237 228 229 229 227 237 242 259 266 276 257 258 279 258 275 257
278 280 278 282 283 281 283 280 263 259 258 255 265 268 278 277 284 267 249 241 238 234 235 232 233 233 234 234 226 225 233 239 237 263 258 280 265 253 270 264 262 266 266 259
270 277 269 274 278 276 276 278 284 266 257 252 269 266 263 261 271 258 258 264 253 244 245 249 224 222 225 232 238 235 250 243 252 252 274 257 245 278 272 305 255 268 239 251
279 271 282 274 265 267 275 265 275 283 273 264 259 262 250 251 250 247 255 259 246 236 239 247 241 236 237 243 249 254 246 239 265 257 257 248 242 269 314 281 264 265 252 252
262 259 277 272 263 265 270 271 265 269 277 255 265 266 261 251 244 248 251 251 252 247 243 244 249 254 253 248 240 246 255 251 241 255 241 251 285 307 313 272 272 262 266 241
253 259 257 258 279 269 262 266 270 255 263 264 270 265 249 248 246 247 248 246 249 248 250 244 235 233 245 251 248 248 243 239 242 238 227 239 335 323 261 236 234 237 248 232
261 253 259 254 254 256 280 263 262 264 269 253 250 254 257 262 264 260 260 262 266 267 262 259 252 246 240 245 242 242 235 232 238 227 223 268 316 300 256 245 235 239 222 216
279 266 253 260 253 251 252 264 279 259 260 262 265 257 246 245 247 249 243 243 248 242 238 239 238 241 240 237 233 233 226 248 218 242 232 262 291 301 261 249 243 244 240 199
275 279 274 252 261 254 247 253 249 271 278 256 260 260 255 261 260 255 244 247 244 241 233 239 248 237 237 232 230 221 242 228 221 231 233 255 266 293 280 257 248 242 241 206
270 271 273 277 252 264 251 244 250 246 258 273 272 256 261 248 248 252 259 263 260 253 260 241 237 233 231 230 233 228 239 223 217 237 216 253 257 264 281 299 237 249 245 224
284 267 269 272 276 254 260 249 241 249 243 246 260 270 274 258 250 247 248 248 246 240 239 234 230 250 232 235 230 240 217 221 218 215 228 235 242 251 257 271 290 289 276 267
270 273 256 269 264 272 254 259 249 243 244 241 239 243 255 274 273 261 252 249 248 247 246 245 231 231 240 227 241 232 217 214 216 213 233 218 214 220 234 234 235 242 249 260
273 285 273 269 268 269 269 263 260 250 244 233 237 228 228 230 242 272 274 271 259 255 253 240 239 226 231 234 235 232 212 219 215 232 221 216 219 214 221 221 219 221 225 226
294 286 279 263 256 258 267 266 272 260 251 241 238 233 230 229 226 229 223 216 224 232 236 240 221 245 227 237 244 202 220 211 229 226 223 225 216 219 211 210 215 217 218 219
299 284 274 279 270 266 251 261 270 280 260 265 245 239 235 232 233 230 220 218 228 243 250 235 235 232 237 241 225 217 230 234 224 220 214 212 210 209 211 209 238 240 244 244
355 294 282 276 276 278 261 264 262 272 279 276 259 257 248 240 235 237 224 222 249 254 262 226 218 239 249 224 220 231 215 214 210 210 210 215 233 219 227 225 226 222 230 237
358 276 275 277 276 266 266 268 268 271 283 256 287 260 264 257 250 235 228 230 279 273 272 218 218 235 219 217 217 216 215 215 216 216 221 219 221 223 221 229 228 227 227 225
335 343 351 271 271 273 265 270 275 284 275 289 258 283 261 261 259 244 233 233 283 276 218 222 224 224 221 222 221 218 217 218 217 222 216 214 216 223 225 225 220 218 218 235
299 303 309 284 270 272 273 276 269 271 286 268 280 260 282 273 260 254 235 235 282 275 214 216 219 220 218 218 218 217 216 213 210 209 213 213 216 217 222 224 223 224 235 239
279 279 279 281 268 264 261 274 271 271 278 281 271 279 264 284 273 255 255 234 265 271 223 218 214 213 213 213 214 215 216 217 217 214 216 216 220 224 227 230 232 234 232 236
284 286 283 278 275 277 282 284 267 275 273 271 266 299 266 287 289 288 253 252 235 259 266 239 218 217 217 216 216 217 217 218 219 219 223 228 234 233 235 236 238 240 242 244
281 276 274 274 273 274 276 282 283 300 318 336 321 296 287 294 293 289 289 267 252 244 238 244 261 232 230 229 228 228 228 229 231 233 235 238 239 239 241 248 252 255 256 264
290 290 289 289 291 289 289 290 291 296 303 308 307 306 293 297 274 287 295 282 281 269 256 250 244 239 237 236 236 235 237 239 243 247 250 251 253 259 260 254 261 270 271 270
285 278 277 280 274 271 272 271 273 275 277 285 295 300 301 304 302 292 268 298 285 272 274 277 275 281 253 248 245 245 249 253 258 262 266 271 264 256 263 268 272 275 275 278

GFSNGP_2pvu_pres_048.txt.gz
Presure
260 265 269 270 272 273 287 288 298 296 305 307 315 313 325 298 298 296 292 297 297 284 274 256 266 262 257 253 250 249 249 248 248 247 239 245 257 258 253 246 244 243 237 239
267 255 259 260 259 270 281 282 283 277 287 290 299 297 301 317 293 294 292 277 270 271 283 286 281 265 241 242 244 224 223 227 248 244 245 257 247 240 236 97 238 240 236 243
285 280 276 273 262 261 267 275 271 274 283 279 288 281 294 295 309 294 279 276 281 277 266 265 263 270 259 252 251 252 239 256 249 255 244 236 229 233 236 241 241 238 271 285
284 290 291 302 317 265 262 268 273 267 265 284 278 289 286 281 289 300 292 279 272 269 260 256 254 251 250 238 245 256 248 248 237 239 227 229 230 247 242 237 253 276 290 255
291 283 281 296 305 283 283 260 262 267 271 263 271 280 287 286 283 291 292 276 269 262 258 261 261 264 255 249 243 240 242 239 232 224 225 237 235 230 246 256 271 279 253 251
255 281 277 283 281 289 289 273 280 271 264 265 263 261 274 273 283 287 287 290 264 263 255 250 253 243 238 234 233 228 227 231 226 232 234 229 226 247 259 277 270 251 262 265
259 252 281 279 272 275 281 280 281 283 287 267 260 263 263 262 269 270 279 282 286 288 261 250 251 237 237 232 240 229 249 249 246 229 224 232 238 265 283 253 243 243 297 318
259 258 256 263 275 283 273 275 276 272 274 280 284 261 256 256 262 259 259 261 261 266 269 269 266 253 242 248 252 242 233 236 236 236 242 254 249 269 247 238 244 329 324 265
263 262 257 259 257 267 274 262 266 277 267 271 277 282 262 249 243 239 238 241 252 246 245 250 249 247 244 247 237 232 231 234 248 246 236 255 254 239 240 229 304 302 273 255
280 273 261 256 259 257 252 267 271 261 271 261 264 268 271 259 266 263 256 250 240 235 240 245 243 242 245 245 248 247 246 233 228 248 246 248 237 254 227 242 268 306 275 255
271 278 281 264 254 258 254 251 255 264 270 266 268 254 261 266 270 260 245 253 253 253 250 246 242 239 238 232 230 232 251 243 239 242 243 240 246 229 237 239 259 275 296 277
268 164 275 277 267 253 256 254 250 250 255 273 265 262 266 253 251 255 256 259 268 262 260 260 260 257 258 251 248 241 231 234 236 237 239 230 245 217 240 225 244 256 269 280
266 278 256 268 275 278 262 251 256 251 248 254 256 273 262 260 261 254 247 245 250 245 246 244 239 252 250 242 236 237 228 238 235 238 230 235 229 234 225 231 223 224 227 239
280 268 273 277 261 271 271 277 253 257 248 246 249 248 261 272 257 259 253 257 262 253 247 240 238 245 237 241 229 242 243 232 235 238 231 240 220 223 225 216 217 208 211 215
307 297 270 254 277 260 268 272 277 257 255 248 242 246 243 247 264 264 258 253 248 248 253 256 259 260 255 253 232 247 229 238 239 225 240 234 216 214 223 229 215 221 218 217
308 304 277 270 269 276 261 270 267 268 269 253 248 242 245 241 240 243 253 270 265 257 252 246 244 247 249 244 234 237 246 235 226 237 236 228 224 230 235 227 223 219 215 214
458 300 302 273 275 265 276 260 260 258 265 271 251 251 242 241 239 229 233 239 250 267 274 271 256 245 240 240 238 224 246 240 228 239 235 202 216 226 233 226 217 212 207 233
390 352 293 289 274 252 271 260 255 262 259 269 264 274 256 245 240 234 228 224 224 225 223 218 215 217 227 229 236 215 229 234 227 241 239 216 227 231 218 213 210 215 222 219
356 343 299 296 277 278 264 271 274 262 259 252 257 266 273 283 255 238 234 230 227 231 232 229 218 218 224 233 241 241 233 233 234 236 235 223 221 212 212 213 216 224 220 218
338 337 345 307 271 276 268 260 276 261 258 259 259 258 262 273 280 275 258 243 235 232 230 232 217 217 230 253 254 257 223 227 242 215 213 215 215 214 218 219 218 216 216 214
309 314 337 352 302 281 274 272 259 269 273 274 265 252 266 263 288 281 280 278 260 258 242 238 234 221 273 278 269 263 218 221 224 220 218 222 224 220 215 210 211 213 217 217
308 315 313 328 342 324 286 287 272 271 270 267 254 267 266 287 276 282 261 276 290 263 267 257 237 228 262 278 270 217 217 220 221 219 218 217 214 212 212 215 218 217 219 222
289 291 295 299 306 318 326 265 263 261 259 271 263 266 288 271 279 269 272 276 267 287 266 257 258 235 230 271 269 223 217 216 216 215 215 215 216 216 217 219 224 226 227 229
284 288 288 290 294 297 299 300 300 280 285 263 244 273 264 281 277 282 284 263 283 268 285 292 253 238 235 247 266 262 224 222 220 220 220 222 225 226 228 227 227 233 237 240
280 276 276 276 276 274 275 276 276 276 275 276 282 286 279 279 274 309 275 283 279 292 283 290 282 255 256 237 238 256 263 255 234 231 232 236 236 235 235 238 240 245 252 263
301 290 281 275 276 276 275 277 277 274 273 283 291 304 320 317 319 313 309 287 281 287 291 286 285 285 272 257 251 244 240 238 239 239 239 240 240 244 248 255 265 280 275 264
288 291 294 298 298 297 292 294 295 293 288 286 284 284 288 298 300 299 301 301 298 293 277 268 283 289 282 276 276 270 263 260 257 256 259 260 264 274 279 260 255 268 278 283

GFSNGP_2pvu_pres_051.txt.gz
Presure
277 272 278 270 269 273 282 279 286 299 301 303 311 334 343 355 294 341 307 340 331 323 316 314 293 266 260 257 257 259 257 249 244 246 248 248 248 248 246 246 243 261 262 222
270 277 276 281 277 277 277 280 281 302 293 287 314 299 314 330 342 329 318 319 324 312 305 309 305 300 288 282 280 273 261 259 257 257 216 214 217 255 243 261 249 249 262 253
284 278 263 255 265 265 270 271 272 287 287 284 291 300 300 317 315 328 320 308 311 304 306 303 288 287 285 289 286 281 272 272 270 263 260 238 237 240 251 251 254 239 252 240
253 264 284 280 275 261 256 265 268 271 276 272 279 280 293 291 307 311 319 303 294 287 285 290 291 288 291 290 292 253 267 267 266 273 263 253 251 247 245 247 238 245 239 236
253 252 270 289 289 290 287 279 261 260 266 270 263 274 286 287 294 291 304 303 296 299 284 287 269 257 256 252 255 250 257 273 258 248 249 247 238 251 239 240 230 233 234 247
265 258 253 283 284 281 296 312 304 270 272 260 274 256 271 285 287 291 296 284 285 302 285 264 263 265 273 276 269 267 257 250 242 243 248 248 239 234 227 227 228 230 252 248
269 263 264 258 273 273 276 286 291 276 273 282 265 261 262 260 266 279 285 277 286 285 288 287 283 269 263 261 257 251 250 251 254 249 236 230 230 223 226 248 240 238 251 269
277 267 268 261 259 278 271 266 272 280 281 284 284 289 266 258 260 262 266 276 282 274 265 268 266 267 258 246 245 247 247 240 238 232 225 235 228 225 242 230 233 257 266 252
286 274 267 259 256 257 261 272 278 267 276 275 270 272 283 283 257 256 251 251 252 266 278 276 274 281 277 270 262 250 252 252 247 241 231 248 244 227 229 247 241 253 261 240
274 281 282 269 261 255 256 258 272 270 258 259 279 266 268 278 286 262 250 254 252 258 252 256 254 254 253 254 252 252 247 241 242 236 238 239 235 247 238 232 250 251 255 230
262 270 275 277 279 270 257 255 256 250 267 267 258 266 262 262 267 276 265 248 243 238 236 234 239 239 239 238 240 238 238 236 238 244 238 240 236 235 242 242 244 237 250 239
271 271 267 264 270 277 277 263 252 256 249 254 261 266 261 266 258 262 266 264 256 254 261 247 242 237 235 234 235 236 238 236 235 236 226 240 244 238 235 239 243 224 235 225
281 270 283 266 270 262 271 277 266 250 259 251 248 252 262 263 253 262 254 251 261 261 261 253 243 243 252 252 247 233 237 244 227 242 245 237 232 231 237 240 244 228 234 219
286 277 280 276 267 271 268 258 278 274 257 250 255 248 248 247 265 264 252 260 252 245 248 251 253 254 260 254 253 255 257 250 252 245 237 238 237 240 246 231 219 237 227 214
304 309 294 285 286 277 266 267 262 267 273 269 252 254 248 246 247 248 263 266 251 257 259 256 254 249 241 239 239 239 239 239 238 231 227 230 245 260 221 240 226 240 228 215
322 453 307 311 282 290 275 264 267 267 262 272 274 259 252 251 242 248 243 246 261 268 257 253 254 255 250 252 254 255 257 256 254 242 242 232 232 231 236 227 241 236 233 209
389 426 495 317 312 280 291 267 261 258 269 261 266 268 272 249 255 244 246 242 239 239 246 250 259 265 260 252 250 241 241 245 246 246 243 240 238 231 216 230 243 233 204 224
358 357 458 462 298 285 288 274 270 259 260 266 259 265 265 267 272 256 251 241 243 237 232 233 237 244 252 261 267 269 261 247 242 240 238 244 218 229 239 227 240 240 219 223
351 332 343 388 326 293 289 288 272 272 261 262 264 257 262 259 257 263 273 266 247 241 235 228 227 226 226 227 227 224 218 216 222 226 247 244 235 226 235 238 239 241 219 205
348 327 332 338 312 281 280 280 275 271 270 256 265 270 255 259 261 254 257 262 273 271 247 238 230 228 223 224 226 226 223 216 220 223 229 237 244 246 222 235 228 216 217 217
289 313 323 326 327 302 298 273 265 276 264 261 256 255 263 269 264 264 264 257 262 267 279 289 262 242 233 230 230 229 233 223 216 222 269 274 262 258 218 227 226 222 223 222
289 308 312 315 315 336 326 291 280 272 265 268 251 256 247 269 259 257 259 251 265 271 277 290 285 285 274 259 249 240 236 236 234 220 279 269 265 265 222 221 220 218 217 216
287 298 297 311 303 314 333 328 300 275 265 260 263 268 264 259 261 255 275 266 274 276 282 286 284 290 279 290 264 260 264 252 244 229 276 271 264 219 218 217 216 216 221 225
287 286 291 300 302 294 312 317 315 311 288 277 271 267 270 273 271 272 267 262 279 278 290 273 284 277 289 260 284 277 258 258 259 238 233 264 264 261 251 227 225 225 230 240
277 282 286 283 288 290 293 296 300 303 306 306 292 285 281 265 278 259 249 256 280 291 300 265 285 281 288 290 284 288 283 258 259 254 240 237 239 241 257 259 242 241 241 247
278 273 283 282 284 285 283 285 285 285 287 288 289 289 287 283 279 280 288 285 297 304 318 293 292 282 278 290 290 279 289 285 272 258 254 253 250 249 249 250 252 258 263 270
275 278 276 293 286 282 280 279 279 275 274 275 275 281 282 277 275 292 294 302 309 306 305 302 306 307 296 285 282 286 288 281 281 278 275 271 268 269 267 270 275 267 261 261

GFSNGP_2pvu_pres_054.txt.gz
Presure
285 281 267 277 297 283 278 284 289 284 304 300 310 317 314 321 338 359 378 286 263 312 338 357 261 257 261 273 271 264 264 218 263 256 258 260 256 265 262 251 249 247 247 245
285 302 282 281 276 271 274 276 275 292 278 294 306 301 307 307 326 332 351 367 304 305 354 149 310 289 335 326 269 263 267 266 266 258 258 261 259 247 245 249 245 256 241 252
264 263 259 261 270 272 271 267 269 279 278 285 293 297 302 303 304 317 332 344 341 296 288 322 324 306 314 324 329 322 310 305 290 295 279 284 280 253 238 249 265 259 266 246
252 257 267 269 263 261 260 263 270 267 279 275 280 285 287 293 300 308 307 327 332 335 325 284 330 291 292 314 311 313 288 277 270 263 258 262 268 266 265 271 280 264 252 249
252 251 248 250 261 284 278 270 270 258 257 253 267 276 269 272 285 291 298 294 320 321 322 317 320 323 302 309 299 288 278 271 271 270 282 280 278 259 257 264 254 244 245 252
257 258 255 256 251 251 283 276 291 287 277 272 265 261 261 275 266 272 289 290 302 305 307 303 303 297 288 293 291 292 289 282 287 276 273 251 248 237 255 239 234 242 244 242
265 260 267 265 257 257 252 276 274 284 301 313 282 270 269 266 266 265 265 276 292 295 300 302 291 280 272 272 262 273 251 247 244 237 240 251 256 245 235 242 246 240 236 230
279 273 275 273 273 265 260 276 270 272 277 290 284 281 268 270 272 265 256 267 271 285 285 291 291 291 277 282 272 274 270 259 258 265 257 244 241 236 244 246 247 241 227 231
278 284 287 288 275 267 261 258 271 272 264 264 277 280 279 284 286 291 275 261 262 259 273 276 271 274 284 288 260 249 247 246 264 255 243 236 242 247 248 238 230 233 238 239
272 281 279 284 283 271 264 256 258 258 272 274 265 268 270 270 269 276 282 262 255 252 256 254 271 273 258 264 263 261 265 261 253 242 240 239 251 250 237 235 236 230 227 233
257 274 275 272 277 282 276 267 213 250 256 259 273 261 258 259 270 263 273 279 266 253 256 248 259 261 264 272 267 261 262 265 266 263 257 252 241 229 227 229 228 238 234 231
269 266 268 271 270 268 271 280 277 264 252 252 259 262 269 260 260 263 258 265 277 263 251 250 247 253 252 251 254 261 260 254 252 248 246 238 235 229 230 230 234 231 224 236
277 277 269 264 265 266 262 274 273 277 274 259 250 254 254 257 270 256 265 255 260 267 265 258 252 248 243 245 245 238 238 234 229 227 223 223 229 235 234 231 228 224 239 232
283 277 275 274 274 274 275 264 267 259 267 278 266 252 253 248 253 263 263 257 255 252 250 259 261 257 252 254 252 249 245 241 239 240 238 236 229 228 233 238 240 245 243 236
284 286 285 284 284 281 278 275 272 265 265 263 274 271 258 254 250 247 250 256 261 255 253 255 252 248 250 255 256 256 255 254 254 249 246 247 252 251 242 239 241 225 227 232
291 283 292 286 301 310 303 298 288 274 262 266 263 260 276 266 256 252 247 246 247 252 263 260 254 251 254 256 251 248 247 247 243 239 238 235 234 233 233 235 236 232 235 233
284 295 313 334 361 418 434 633 313 273 261 263 265 267 259 269 267 264 249 250 241 245 244 242 252 266 265 257 254 253 252 252 249 249 250 251 251 253 255 254 255 253 244 240
298 308 308 314 391 537 526 472 310 291 275 264 263 261 264 264 260 267 271 262 251 252 239 241 240 238 238 242 246 249 253 262 266 263 259 254 245 242 242 243 242 241 242 233
295 304 297 312 352 349 343 339 275 289 288 274 270 261 260 260 264 262 266 265 267 271 262 250 243 239 238 233 232 236 239 244 248 253 257 260 263 267 269 241 226 244 237 239
291 295 295 304 339 345 341 313 275 293 289 275 273 271 259 259 261 265 262 261 264 261 260 265 275 274 249 240 237 233 229 229 226 225 227 224 223 221 218 217 220 224 230 245
295 288 292 291 328 325 338 335 302 288 257 279 263 269 271 268 255 253 261 266 251 254 260 263 258 261 259 270 273 255 240 235 230 227 227 227 228 230 230 227 219 218 223 276
290 288 292 276 306 313 315 336 332 297 279 266 277 271 267 263 261 262 262 258 261 269 272 274 273 259 268 269 276 271 300 293 267 246 238 236 234 233 231 234 234 236 221 270
300 291 289 282 283 297 314 312 320 315 308 296 269 263 268 265 257 262 257 261 247 253 248 265 255 260 266 276 279 286 289 294 300 287 287 264 256 256 253 247 244 241 233 271
300 290 286 284 275 287 289 300 305 314 318 313 287 269 268 261 263 253 260 262 255 260 257 254 264 254 279 278 293 287 288 295 286 295 264 287 275 260 258 257 258 248 240 237
307 291 284 285 281 275 284 301 292 296 315 316 307 309 276 271 273 272 264 265 261 264 264 267 281 275 274 256 291 324 315 278 288 285 290 265 280 279 262 252 251 260 258 254
313 301 288 284 282 277 275 286 289 289 291 299 303 305 305 306 292 279 276 277 276 287 281 272 279 271 290 287 305 300 275 286 279 291 287 281 277 286 283 271 263 260 257 260
322 307 290 284 285 283 277 276 277 288 285 289 291 293 294 295 295 296 299 301 301 293 281 282 279 311 309 304 303 302 305 306 287 276 282 290 286 280 278 281 281 279 275 272

GFSNGP_2pvu_pres_057.txt.gz
Presure
267 272 270 264 256 260 271 272 271 273 301 298 316 323 322 327 339 308 295 309 282 267 272 163 279 281 295 293 274 266 263 262 261 245 247 284 192 248 192 191 184 185 190 232
289 292 289 283 280 280 289 273 296 284 277 291 293 298 302 307 319 322 323 319 342 350 299 295 285 340 348 127 277 280 276 283 286 255 273 279 278 278 282 262 249 247 239 249
292 317 306 280 291 291 288 282 277 272 272 282 277 285 294 284 298 306 308 311 315 348 354 316 313 307 288 287 337 332 290 308 279 315 289 279 278 270 252 276 258 244 277 265
271 274 270 267 270 273 270 271 269 277 278 278 283 284 284 281 299 297 310 319 315 310 339 331 356 343 295 299 305 341 320 302 308 334 316 313 292 307 279 263 250 238 269 252
251 254 257 254 263 276 275 279 272 269 267 273 264 261 270 274 286 286 282 291 291 301 298 325 321 349 327 320 280 284 293 300 331 298 311 305 283 289 278 257 249 263 263 250
254 254 252 252 252 249 247 248 250 275 279 277 273 269 274 261 258 267 271 270 275 297 299 292 316 304 330 319 315 300 302 265 268 304 280 296 291 277 276 276 264 242 236 256
264 262 265 260 261 262 264 260 256 254 247 283 290 287 292 278 271 262 259 263 271 264 279 288 292 300 290 315 307 302 308 308 305 295 284 273 264 281 275 277 257 253 250 243
277 274 275 276 272 268 264 264 269 266 259 279 279 283 304 308 297 274 268 264 262 267 264 264 288 292 278 294 291 287 279 279 278 275 273 274 262 253 247 244 237 238 252 237
280 279 280 284 279 280 277 272 270 266 261 261 279 273 280 288 285 286 278 265 271 279 260 261 273 282 282 273 287 271 276 265 252 252 261 264 243 242 238 253 249 248 237 236
267 274 271 275 280 282 273 276 278 270 264 260 259 278 273 271 280 281 282 278 278 284 278 258 254 253 273 275 272 286 274 261 265 260 282 267 252 261 243 248 236 237 233 247
261 264 273 265 266 270 277 275 273 267 262 262 257 256 259 277 271 272 276 272 269 276 271 257 254 249 253 263 268 268 260 261 279 261 248 250 237 247 253 242 240 227 233 253
259 260 256 261 256 260 262 262 261 274 276 266 262 256 255 256 274 264 261 277 269 268 278 270 260 256 248 243 244 256 261 270 267 265 262 265 259 253 248 235 232 245 248 239
263 259 261 268 270 268 259 259 257 257 259 261 273 266 259 252 253 256 268 263 271 262 269 279 272 262 257 252 252 257 247 247 252 253 256 262 269 262 262 260 250 244 240 234
276 271 270 269 267 273 273 273 265 252 254 260 262 267 271 260 255 251 250 255 266 266 259 261 271 274 267 256 249 245 249 239 237 235 230 232 230 229 230 226 224 221 220 226
285 281 276 275 276 273 275 276 273 275 273 269 263 265 257 273 262 254 252 249 250 260 262 260 257 260 260 263 262 261 260 255 244 242 246 243 240 238 237 237 237 237 240 239
288 282 280 279 281 292 293 297 300 299 290 282 263 272 261 255 270 266 253 251 250 247 243 252 260 256 254 253 253 254 250 248 254 260 257 253 251 249 250 250 250 248 250 251
290 291 293 291 286 284 293 299 316 639 369 301 306 259 269 252 259 263 271 256 249 249 248 245 242 245 255 258 256 254 253 252 252 257 253 248 245 245 246 246 246 243 245 248
302 294 291 289 289 296 304 311 362 477 472 488 348 302 275 251 262 266 253 269 265 263 249 249 247 240 239 243 241 241 248 258 262 262 261 257 255 254 250 248 247 248 246 244
323 308 300 296 297 296 302 297 332 329 326 329 335 299 294 277 262 263 265 252 259 260 260 264 254 247 247 246 238 239 239 239 239 238 238 242 245 249 252 258 262 264 266 266
372 342 313 305 298 307 297 295 345 317 307 323 322 300 287 279 275 268 262 262 263 254 251 257 260 261 262 261 251 245 241 239 238 238 239 237 235 233 231 227 226 226 226 223
337 359 339 313 312 290 292 294 333 327 312 311 292 294 287 278 273 273 265 260 262 258 262 262 254 258 266 264 257 260 260 263 267 265 263 258 243 239 237 234 231 226 227 227
401 367 349 320 297 296 289 290 304 337 319 302 313 284 279 283 275 260 270 269 257 258 259 262 263 264 260 259 257 270 268 268 267 262 261 272 275 274 297 274 253 244 240 237
370 381 385 331 302 295 287 281 288 301 320 326 327 313 276 251 278 279 268 272 268 265 265 261 262 266 264 258 259 261 272 265 263 273 288 270 286 289 290 294 289 283 285 264
390 427 395 341 315 292 285 287 277 313 305 316 313 321 287 266 266 252 274 278 265 260 255 261 263 262 247 263 262 238 257 268 262 290 275 284 307 298 293 287 293 269 254 284
451 431 388 368 327 299 290 282 285 287 283 304 312 308 311 320 274 259 254 263 262 259 262 263 259 255 266 255 267 266 259 277 295 301 251 291 284 266 286 283 281 281 267 257
451 433 399 427 332 308 290 280 288 278 283 289 303 301 307 312 307 312 293 261 261 256 255 255 258 261 266 254 254 274 282 295 287 297 306 315 313 311 299 281 296 286 280 272
463 441 439 452 339 316 296 289 283 282 279 278 304 293 294 302 304 302 297 298 298 271 269 267 267 270 270 279 292 292 282 302 301 297 297 297 301 307 296 290 280 277 280 288

GFSNGP_2pvu_pres_060.txt.gz
Presure
252 272 260 259 264 268 260 258 263 254 256 261 276 297 288 293 296 300 304 296 292 317 307 175 286 178 244 243 275 245 250 266 256 212 121 219 274 267 266 270 276 277 245 200
267 264 263 263 260 259 264 251 267 273 266 287 318 299 303 312 281 324 290 291 294 296 307 311 304 282 253 244 293 275 308 303 303 278 256 270 262 269 268 261 258 272 272 242
291 294 290 286 285 287 281 267 322 322 291 300 295 291 286 287 302 302 304 305 324 325 330 329 294 300 305 305 268 259 328 281 167 292 244 275 285 284 246 252 244 275 278 247
315 303 295 287 304 306 285 290 288 285 281 280 286 287 280 283 280 282 296 309 301 304 305 311 317 329 317 293 298 301 310 317 335 304 343 299 278 214 302 276 277 274 242 241
258 263 268 271 276 276 275 276 274 273 273 272 268 269 275 281 284 283 290 287 290 283 285 290 301 315 330 324 351 344 335 295 297 314 313 317 326 357 308 320 303 297 314 298
256 258 259 256 250 250 256 254 250 252 253 255 257 270 282 275 271 269 263 270 285 275 282 287 289 300 291 314 314 336 312 323 329 353 293 279 285 290 312 305 301 306 289 280
265 262 260 256 249 249 249 252 251 251 251 250 253 251 255 282 278 274 277 278 265 267 271 264 271 283 291 293 303 303 321 319 311 308 332 306 303 299 306 288 287 282 276 270
272 271 269 266 262 259 255 252 252 254 255 261 263 260 255 267 285 285 288 301 288 276 262 267 264 261 269 285 289 288 290 307 301 295 301 300 297 284 288 280 279 277 263 256
280 280 275 277 279 275 272 269 265 266 265 266 265 269 265 263 273 275 290 298 308 285 273 262 267 271 253 263 277 280 276 287 292 279 287 290 281 281 282 277 270 272 269 271
275 276 276 279 280 280 275 278 279 273 283 280 273 269 265 260 265 277 269 281 284 283 285 272 271 284 256 262 272 276 279 265 278 276 280 266 270 264 264 262 257 256 248 241
273 280 274 276 275 275 274 270 272 276 278 273 272 272 264 261 258 260 268 272 274 276 278 276 280 282 271 257 253 261 274 265 276 275 260 269 267 255 248 247 240 250 237 240
268 266 267 271 269 261 270 258 255 262 269 271 276 271 266 262 261 257 255 268 271 264 272 266 267 275 271 255 251 253 260 267 268 261 273 269 278 272 260 262 267 257 245 248
279 270 265 265 265 267 262 253 255 251 253 262 259 259 271 273 261 258 255 256 265 267 255 270 264 264 275 270 261 252 249 249 249 254 258 261 261 255 258 265 255 247 260 252
289 286 279 267 267 270 264 262 265 262 263 255 256 261 257 259 265 271 260 253 251 256 259 259 264 260 265 275 271 262 252 242 242 249 250 244 249 248 249 250 254 253 252 252
308 295 286 282 284 278 275 268 265 268 271 271 270 258 256 254 260 264 270 264 255 252 252 251 261 260 257 256 267 274 269 255 247 249 245 246 253 245 244 242 242 240 236 236
326 324 327 297 289 286 286 284 282 279 279 279 280 283 269 272 261 256 265 268 267 255 252 249 249 249 256 260 257 254 259 263 264 263 264 264 254 242 241 242 244 246 244 241
326 373 330 315 306 302 299 289 285 278 275 286 298 309 314 317 280 270 267 268 267 271 253 250 247 247 246 245 250 255 255 254 252 251 252 253 255 254 253 250 253 253 253 253
297 302 329 365 349 318 306 298 295 293 290 292 296 328 508 507 317 291 276 266 262 263 273 254 251 251 247 245 242 243 243 244 247 250 252 254 255 258 259 256 252 250 251 251
323 311 300 312 316 335 350 316 312 307 303 301 307 328 362 372 375 315 285 271 266 265 257 265 266 251 247 245 247 246 243 240 239 239 241 241 240 238 237 237 241 246 247 249
320 322 308 314 315 354 369 352 323 308 302 305 295 306 316 334 366 309 301 281 269 244 263 261 256 265 262 258 246 243 245 246 245 244 245 246 242 240 240 241 241 241 241 239
318 322 313 319 324 345 383 367 333 316 310 318 292 328 314 315 289 317 292 289 271 268 251 261 261 249 254 260 261 260 260 261 262 259 259 261 264 265 263 264 265 270 274 277
314 315 320 334 361 390 391 393 340 320 311 312 289 328 301 318 306 304 316 290 282 275 269 262 259 264 259 257 254 253 251 259 255 261 265 264 261 271 276 283 264 282 290 291
320 322 336 399 416 426 421 401 346 322 315 297 294 321 298 302 309 313 320 285 279 280 261 274 267 262 262 262 258 254 258 263 260 260 273 261 257 270 268 270 252 322 251 315
325 347 491 477 463 448 432 408 346 323 312 292 289 304 317 304 273 300 259 253 283 278 278 265 265 266 264 262 258 255 258 254 265 259 244 272 262 241 275 310 309 341 291 329
396 514 523 497 471 446 432 407 346 324 314 291 289 290 302 301 315 320 330 253 276 242 276 271 263 258 254 261 260 260 255 262 263 262 259 266 269 270 295 297 320 325 325 305
512 507 493 487 478 455 433 399 345 323 314 291 289 287 301 302 302 303 309 288 268 252 265 263 249 261 271 275 271 264 263 254 245 242 260 260 270 302 292 307 301 298 307 316
503 485 466 458 453 443 425 391 344 323 314 299 289 283 287 275 308 302 309 308 315 279 269 266 255 255 254 255 262 265 270 254 255 270 266 277 296 292 297 288 283 283 288 290

GFSNGP_2pvu_pres_063.txt.gz
Presure
268 269 266 272 265 258 258 274 271 263 273 249 220 272 292 260 279 291 289 280 298 296 283 281 294 277 273 264 258 231 247 244 243 251 221 258 267 254 229 174 131 124 118 167
259 263 286 264 261 257 267 274 262 277 266 271 273 271 270 276 286 304 272 299 308 263 269 317 300 276 278 316 275 262 279 262 259 256 256 189 244 256 239 138 228 259 250 236
279 259 277 255 269 256 262 268 264 262 258 262 267 269 264 274 285 291 296 296 290 272 295 298 297 295 296 300 240 309 306 285 291 309 290 253 272 156 242 165 264 260 266 181
291 288 285 276 277 268 255 265 258 256 263 269 300 321 318 305 296 283 283 290 306 295 308 291 302 297 279 301 291 290 296 302 216 304 291 244 269 202 252 249 291 279 284 280
307 288 296 307 303 303 300 295 299 295 285 280 284 284 289 285 282 281 294 275 277 280 286 305 291 297 302 311 307 308 325 346 340 345 291 299 305 310 313 308 272 261 259 263
267 260 270 263 265 269 274 276 268 267 268 270 271 273 274 268 267 270 269 276 289 284 283 280 285 281 288 289 295 299 312 318 318 348 339 330 337 362 348 293 293 292 295 294
277 271 268 257 255 257 261 246 249 254 254 256 259 261 263 262 261 260 268 275 275 269 264 268 271 285 283 279 281 282 296 294 304 321 319 312 319 323 326 314 298 288 288 273
287 279 273 267 262 258 258 255 252 251 249 247 251 251 252 254 254 255 251 256 271 275 276 282 269 259 271 264 270 276 278 284 291 294 314 307 306 304 328 310 314 306 294 295
288 285 285 281 277 273 269 263 262 260 258 257 258 254 255 255 257 267 269 261 264 277 276 287 313 303 260 262 260 262 261 273 282 292 293 303 291 292 299 288 296 277 279 283
285 277 281 279 281 277 280 280 278 279 280 277 272 275 271 267 265 268 271 266 263 268 270 286 291 306 284 277 252 274 264 260 271 286 276 280 288 273 277 290 285 274 292 271
295 284 279 278 274 274 269 271 272 276 275 275 277 275 275 274 287 276 267 268 260 260 271 268 279 279 282 282 273 275 256 255 261 262 271 275 281 281 275 271 271 262 268 265
313 302 290 283 278 271 271 269 270 270 268 275 271 269 272 275 276 269 272 267 261 258 258 270 269 272 275 275 279 281 272 255 260 254 269 263 269 272 275 262 259 263 249 248
327 318 305 293 289 285 273 265 263 264 257 259 264 254 256 264 266 271 271 267 267 262 258 254 270 262 269 267 266 273 279 264 259 250 253 263 264 258 252 256 258 266 270 266
259 341 336 310 299 292 285 282 273 266 261 262 258 256 252 255 256 259 262 262 270 272 261 256 253 268 255 255 267 263 269 273 264 251 249 248 246 250 253 255 258 255 253 251
254 271 346 345 345 318 302 291 282 279 276 267 262 262 253 256 256 260 261 259 262 260 268 268 253 252 259 258 256 263 255 264 270 266 256 251 249 245 242 246 246 241 243 246
269 267 343 352 336 329 333 330 322 303 294 284 279 275 268 264 262 263 268 269 263 263 259 262 272 257 247 251 261 255 257 255 251 265 267 266 256 252 250 247 239 239 240 249
257 274 291 308 316 322 312 328 358 317 311 312 308 288 284 287 292 277 274 275 277 275 265 258 264 272 259 250 250 250 257 256 259 253 250 252 256 259 257 255 257 256 255 254
254 276 316 309 311 299 310 297 294 302 331 353 340 309 303 299 293 294 295 288 289 279 280 275 259 261 271 258 251 249 247 249 248 249 249 248 249 249 249 250 252 254 255 257
250 281 314 324 303 312 322 310 317 324 324 325 391 366 332 305 300 299 310 326 368 316 311 287 277 264 264 270 258 253 250 242 243 245 243 243 243 241 241 241 240 240 238 239
266 305 311 315 318 314 316 316 313 321 327 366 369 375 343 330 317 312 324 331 360 365 425 310 285 271 266 262 264 265 250 249 248 245 245 246 245 245 243 241 242 246 246 246
276 312 318 317 314 313 313 315 329 357 374 380 364 376 333 320 315 314 319 318 329 346 386 307 286 271 263 262 261 257 265 265 249 246 244 239 241 244 243 245 248 249 260 263
326 324 319 324 326 322 330 372 393 411 404 404 376 368 330 316 310 310 302 319 318 326 344 303 283 270 267 241 248 254 259 255 259 260 259 257 257 259 261 261 263 260 267 270
338 327 331 335 338 373 476 508 493 477 447 415 390 358 320 315 306 310 292 319 319 282 332 288 280 273 259 254 251 250 248 257 256 250 249 253 257 258 260 262 267 255 269 259
336 336 347 370 496 525 522 511 491 471 458 439 391 341 321 305 309 303 320 320 304 307 268 293 280 281 263 263 258 257 253 244 254 260 255 257 259 258 264 259 271 274 255 271
353 377 459 493 517 498 489 491 469 453 439 402 386 332 316 309 302 298 320 295 301 313 318 307 291 277 282 267 263 258 258 266 262 256 255 259 259 263 265 264 273 267 270 267
490 462 464 494 482 464 459 467 449 438 422 394 353 326 313 306 294 309 313 305 293 296 281 309 262 289 277 276 270 273 264 256 259 259 258 256 252 269 267 259 260 260 266 285
474 464 443 445 458 442 438 435 438 427 426 410 339 318 312 301 294 302 305 304 306 307 313 306 297 285 245 273 262 264 274 270 265 261 263 269 276 282 265 257 254 269 280 295

GFSNGP_2pvu_pres_066.txt.gz
Presure
284 288 287 284 279 306 278 285 283 280 287 288 285 283 270 254 272 269 263 265 266 267 270 266 262 257 249 244 193 234 232 232 231 226 229 227 229 228 227 228 222 219 219 216
285 284 301 285 282 275 298 296 291 288 269 266 289 284 274 278 286 289 255 256 271 290 147 274 271 273 279 281 276 262 250 247 247 144 134 239 203 241 243 243 156 238 241 102
272 269 268 265 273 263 272 257 269 272 267 266 266 273 272 274 276 288 282 277 280 267 265 272 254 231 257 255 293 293 311 288 284 279 284 278 267 262 255 258 221 252 254 258
285 278 265 258 268 273 260 263 264 264 267 280 262 263 272 276 263 271 272 279 283 284 285 288 294 294 291 267 296 302 300 289 288 303 302 291 302 311 318 313 298 293 264 269
300 291 231 292 279 258 275 270 279 251 254 257 265 262 268 270 268 266 266 273 280 292 285 289 291 310 302 310 295 277 278 326 324 322 326 337 342 350 296 298 320 316 309 306
287 315 313 292 280 290 299 297 280 284 279 271 258 293 276 274 306 298 296 294 296 288 285 277 274 281 276 296 285 297 288 291 294 308 307 320 326 325 342 353 344 339 374 348
294 289 284 271 266 267 263 260 263 269 278 279 277 278 274 277 276 274 276 274 269 276 284 283 280 286 284 290 282 282 279 288 289 289 294 297 305 306 326 334 334 319 347 332
310 303 296 287 279 277 266 262 257 252 250 255 252 255 257 258 260 260 260 262 264 266 265 266 273 282 269 265 265 264 267 274 273 274 275 281 286 300 314 315 315 305 298 311
339 319 307 294 283 290 283 277 269 266 258 255 254 254 250 249 249 251 254 252 252 255 258 260 260 257 278 283 283 290 265 256 254 262 265 269 268 288 290 300 299 301 299 298
286 126 342 320 303 289 284 285 282 283 280 274 266 264 263 263 261 261 259 260 260 260 258 265 273 269 268 274 295 303 316 293 266 260 257 255 259 262 276 276 293 281 288 276
296 130 267 348 328 307 292 282 278 278 276 276 277 278 278 277 278 278 278 278 279 278 275 274 273 269 266 273 268 288 297 291 277 264 261 251 265 272 276 274 279 277 268 274
167 267 271 329 355 327 304 293 286 276 271 272 270 271 270 268 269 272 277 280 276 273 283 278 270 266 263 264 269 274 282 287 287 278 270 266 255 255 264 269 274 274 279 265
242 258 274 272 341 349 323 307 295 285 275 272 268 263 264 267 266 269 268 272 269 276 275 271 271 263 261 258 254 269 273 274 272 277 279 274 260 248 255 259 264 262 266 265
240 243 250 256 210 253 363 347 321 303 293 278 275 266 267 262 262 261 261 262 262 264 265 268 272 267 264 259 255 252 271 265 270 264 271 275 261 247 249 241 243 253 254 259
241 226 262 264 260 316 302 346 363 343 342 318 293 281 273 264 264 263 264 262 257 256 255 254 259 262 273 264 256 253 253 263 258 267 262 266 269 263 254 248 246 248 242 242
243 232 223 254 267 318 308 300 301 323 315 344 334 324 310 289 278 271 268 264 263 264 256 259 256 255 257 259 270 258 251 253 254 256 262 257 259 268 264 264 262 253 249 247
280 247 226 250 254 317 311 312 322 283 293 304 303 302 314 329 329 310 289 280 273 270 264 265 265 261 268 256 259 261 261 253 250 249 259 254 257 249 250 263 263 265 266 266
215 234 249 239 299 329 314 317 312 304 312 310 318 301 291 296 298 313 349 325 303 291 279 273 271 269 272 273 270 256 259 265 257 251 247 250 256 255 256 251 249 250 250 251
234 245 259 259 335 318 319 326 320 312 315 317 319 314 306 288 286 317 333 331 338 315 308 295 285 284 288 281 271 276 259 255 268 259 251 249 244 247 249 249 247 245 245 247
248 243 261 261 317 322 326 321 317 313 310 313 316 316 317 319 296 345 340 370 355 330 316 303 303 297 287 285 283 278 274 257 258 269 259 251 249 244 237 239 242 244 243 241
254 270 259 272 349 332 332 332 331 329 331 333 336 339 341 343 352 363 350 367 351 326 316 316 238 315 329 328 318 289 276 266 258 257 266 261 251 249 247 247 246 241 239 242
233 256 322 342 353 356 360 367 384 414 440 478 550 544 528 506 475 400 373 363 339 325 313 315 330 338 343 371 411 315 282 270 263 257 256 254 261 264 258 252 247 247 254 256
237 249 350 371 477 506 500 498 500 521 524 519 499 492 485 457 443 430 404 347 328 311 308 306 306 325 308 346 357 304 286 269 262 261 255 255 256 256 256 255 247 245 248 248
296 268 480 422 469 490 478 500 486 484 498 486 473 462 446 433 418 407 351 335 317 302 304 296 301 313 322 336 298 293 283 270 261 255 238 241 244 248 250 252 253 253 253 256
271 416 398 471 460 445 463 458 464 453 460 473 450 434 422 411 399 361 338 328 305 300 298 290 304 313 318 320 297 287 277 269 263 261 254 252 251 244 241 241 243 249 250 251
422 407 361 464 460 437 421 450 464 448 443 439 429 424 413 396 369 337 328 316 303 299 291 309 302 295 315 323 262 270 271 269 265 263 259 255 252 252 251 252 261 263 259 265
420 393 342 459 456 431 420 456 447 439 441 424 417 412 392 363 341 330 319 303 302 294 305 298 293 319 300 308 299 270 284 276 263 260 246 253 259 257 255 260 258 262 263 265

GFSNGP_2pvu_pres_069.txt.gz
Presure
292 293 294 287 282 282 270 281 274 298 311 307 294 247 257 292 288 277 279 280 277 278 275 272 262 251 246 242 236 232 222 226 225 224 225 150 227 232 230 228 228 227 227 227
308 293 301 287 289 284 279 268 261 275 277 284 297 301 298 299 247 243 272 268 268 271 274 277 280 282 281 266 258 251 246 240 235 234 233 233 228 227 230 231 232 232 233 233
271 283 278 299 292 281 292 278 276 267 274 279 281 270 278 279 279 277 277 276 276 265 273 266 269 272 277 288 272 274 278 240 277 277 255 251 248 245 245 244 244 244 245 246
314 298 281 261 273 275 276 277 275 285 284 280 278 281 282 269 270 271 284 282 284 289 288 286 287 282 273 272 262 293 284 285 287 272 220 267 266 275 267 214 296 304 302 296
164 309 299 291 275 267 263 267 264 277 264 271 268 266 264 281 279 268 269 277 275 275 270 272 285 285 287 288 286 281 285 289 292 292 289 282 258 256 281 275 324 304 267 274
263 319 309 295 304 295 289 283 272 257 273 263 269 261 268 264 271 274 276 274 272 274 277 264 269 270 277 272 275 292 282 288 291 303 302 300 304 307 306 311 314 314 319 324
255 272 289 324 307 295 292 288 285 293 289 291 283 280 278 283 276 271 265 272 281 294 280 298 296 303 298 297 282 285 284 287 278 277 282 290 286 290 293 292 294 296 310 317
235 248 180 260 271 315 302 289 281 276 267 261 258 260 275 279 287 299 281 279 274 274 273 272 273 272 274 281 272 273 277 273 278 285 285 280 278 279 278 277 279 282 292 297
242 233 240 149 255 266 322 307 294 283 274 270 265 259 256 251 253 254 253 251 252 257 256 257 256 256 254 262 251 250 250 256 276 282 276 269 260 265 255 257 266 266 274 280
238 256 133 233 249 254 259 257 315 300 288 283 274 272 265 261 258 255 252 252 253 252 247 245 245 248 249 248 252 260 265 270 257 279 284 289 286 278 273 264 265 256 260 281
249 236 250 211 173 247 263 217 357 324 302 288 277 273 272 271 270 273 272 265 260 259 259 261 259 256 258 260 263 269 270 271 269 272 276 307 316 304 270 268 259 258 264 251
245 234 230 252 205 264 254 291 333 373 349 312 297 281 273 270 269 270 270 273 275 275 275 274 274 276 273 276 278 278 276 270 264 268 276 290 291 287 274 271 263 264 256 255
242 233 238 262 244 267 252 253 271 325 313 352 329 305 290 275 272 267 267 272 267 269 271 273 273 278 279 277 274 273 273 267 263 264 264 277 276 277 279 277 273 266 258 250
248 244 242 237 261 241 267 248 309 347 317 310 305 349 318 290 279 271 267 263 264 264 266 268 273 269 271 267 269 266 267 262 261 260 252 272 268 268 275 273 270 259 251 254
221 222 246 248 252 255 264 309 291 335 322 320 311 300 314 339 320 288 276 271 269 263 262 259 261 266 269 269 270 270 265 261 259 261 259 255 260 266 262 263 271 260 252 249
233 234 220 263 226 242 261 305 313 328 348 303 309 305 310 303 307 324 313 286 275 271 270 264 261 257 254 259 256 255 262 265 269 259 255 253 254 253 258 260 261 266 263 261
225 251 247 272 247 258 268 256 334 338 311 318 311 317 298 310 296 302 305 334 317 286 277 274 271 266 260 256 252 256 258 254 258 264 264 259 251 254 251 255 259 252 255 267
215 246 257 236 241 268 276 335 343 320 324 322 331 322 320 306 299 302 302 313 301 317 326 304 281 277 274 270 263 257 255 252 257 255 256 258 260 253 250 249 254 252 257 253
247 246 241 261 275 262 264 357 335 340 344 342 336 333 335 328 316 318 295 304 314 303 300 306 334 335 287 278 273 273 267 265 262 258 262 258 254 259 257 251 247 249 254 251
251 234 267 241 270 294 317 368 381 412 410 465 402 394 369 346 345 337 325 300 304 318 305 298 309 334 327 341 291 278 272 266 271 269 267 261 257 252 260 258 249 249 246 244
252 240 258 254 283 325 374 430 413 346 487 480 478 486 559 558 420 375 356 344 335 306 297 295 302 311 359 350 327 313 291 282 276 274 277 267 267 261 248 259 260 252 247 246
234 229 240 266 274 312 434 416 333 483 470 490 504 504 520 527 516 520 525 515 424 360 351 344 310 306 380 356 327 312 304 304 299 296 285 278 270 263 254 250 259 260 251 248
246 261 268 285 263 436 423 346 330 477 450 483 470 475 479 488 473 479 483 489 482 468 460 438 367 382 349 329 316 318 320 318 300 297 273 270 271 267 257 250 252 261 265 261
249 236 273 268 387 430 400 335 326 467 439 460 459 453 469 457 439 442 453 447 436 430 405 398 375 344 318 309 317 324 310 316 357 384 317 283 270 265 256 256 258 257 257 256
268 248 284 276 443 417 361 327 320 454 432 452 452 436 445 448 429 421 415 417 411 383 374 356 341 328 311 310 318 306 306 322 336 362 377 295 274 263 255 253 254 253 251 249
260 255 262 449 431 408 336 322 314 458 434 455 448 438 441 426 414 410 396 380 386 356 342 333 322 308 309 304 304 309 315 315 312 316 293 290 269 263 259 255 255 253 251 253
252 282 409 437 414 381 326 320 315 466 438 472 445 446 434 419 407 383 379 376 347 333 329 317 306 307 301 293 297 313 308 315 304 282 283 281 270 264 260 257 249 247 253 255

GFSNGP_2pvu_pres_072.txt.gz
Presure
305 298 301 294 281 281 280 289 324 322 320 315 325 285 262 285 284 274 278 285 284 291 284 278 277 273 270 268 260 243 224 223 218 210 207 205 215 237 234 230 226 225 201 201
302 304 299 298 298 293 283 282 276 295 318 309 301 296 300 267 284 258 301 299 289 285 279 279 277 273 270 271 270 267 266 270 250 239 233 229 221 215 247 248 247 217 216 218
304 296 297 298 307 301 292 288 283 285 275 291 297 302 298 289 279 270 268 262 263 265 285 286 279 287 291 289 285 285 290 301 295 287 264 244 239 236 235 204 130 237 237 236
298 328 314 309 297 300 307 298 293 294 289 298 278 273 281 287 288 300 293 288 285 280 269 249 249 248 248 267 266 285 296 283 275 276 299 299 284 279 289 283 270 263 268 262
223 225 252 279 237 308 291 285 279 283 285 293 298 289 278 273 271 279 279 281 280 282 284 284 283 283 282 286 294 289 285 298 291 259 301 304 277 301 295 314 319 257 167 321
225 265 278 274 239 249 291 312 304 287 279 275 272 280 283 280 280 278 274 274 276 293 286 275 265 267 276 270 292 286 293 287 279 277 282 286 283 305 318 298 308 304 313 305
217 233 231 256 265 222 242 283 325 307 299 295 287 278 272 267 268 278 264 259 259 266 264 260 264 269 273 274 272 275 266 264 279 301 308 299 297 299 296 294 287 291 290 288
236 232 249 231 245 255 164 264 166 316 319 299 285 285 280 287 282 272 267 267 268 265 270 275 270 269 264 281 308 303 290 288 289 287 293 288 281 281 282 286 300 286 284 283
237 235 250 246 225 253 255 220 262 248 334 301 314 296 282 274 272 268 264 263 263 293 295 286 307 305 285 274 274 274 273 274 277 272 269 268 263 261 259 269 283 280 273 268
225 236 243 228 256 258 130 280 269 274 246 333 318 353 313 289 277 273 268 265 262 258 257 256 260 262 259 261 262 260 260 260 258 254 252 250 250 251 252 257 259 281 285 277
226 234 240 239 222 241 238 246 239 275 250 337 331 335 313 346 303 281 274 271 269 264 260 258 255 250 248 247 248 245 245 242 246 247 247 246 256 266 275 273 273 311 321 308
228 230 218 241 189 254 243 254 269 268 285 338 273 347 341 311 335 329 288 276 272 271 271 270 272 268 262 257 254 254 254 252 253 252 256 261 265 270 268 270 287 296 294 286
175 227 226 246 232 228 259 256 254 275 252 357 307 332 342 333 310 301 346 303 282 269 265 267 267 269 274 273 274 274 273 272 273 273 272 272 277 275 265 265 267 280 279 278
190 221 239 236 238 226 224 244 258 272 264 294 319 331 334 325 320 307 296 314 326 290 275 268 266 264 266 269 267 271 272 273 276 274 270 273 280 272 261 265 263 276 274 281
202 219 238 228 246 216 225 247 258 279 293 307 344 311 342 334 317 316 312 296 302 328 311 291 277 268 261 266 265 266 265 269 270 272 280 276 270 261 258 259 257 266 264 272
230 212 239 233 242 227 221 256 274 284 297 348 329 333 330 342 327 318 314 307 302 296 316 319 293 284 268 263 261 263 263 266 268 268 270 268 266 263 262 256 253 259 257 259
215 244 220 246 248 231 255 249 270 270 314 356 344 359 364 348 342 334 329 319 306 306 293 308 319 304 289 274 265 262 260 257 258 261 265 265 262 265 263 259 253 250 255 249
214 239 221 243 245 237 234 263 252 316 360 359 418 422 427 384 378 380 371 344 321 307 306 297 301 314 315 294 284 268 264 261 255 252 253 254 249 250 259 269 264 257 249 250
215 223 219 228 225 256 266 255 296 371 380 435 425 386 311 331 457 433 403 402 359 335 310 308 301 295 307 318 317 292 281 269 261 255 252 251 251 251 250 249 251 255 261 251
228 228 237 215 239 238 273 261 377 407 435 415 387 317 321 485 517 497 532 538 441 373 335 325 310 304 302 300 305 314 324 289 280 266 260 252 251 250 246 247 249 249 251 253
242 208 241 224 262 241 278 281 370 445 420 402 334 316 470 454 482 494 511 523 521 536 384 344 334 327 307 296 299 304 305 312 336 291 283 265 257 252 249 250 243 250 257 259
229 244 228 245 248 272 269 373 454 432 408 329 334 320 453 475 464 470 470 469 483 494 519 446 354 333 323 319 303 304 305 306 321 322 338 284 277 267 260 259 256 252 257 255
251 237 239 264 263 266 337 461 442 416 371 322 360 319 442 465 449 458 441 444 456 463 467 494 498 365 338 322 329 307 304 306 305 311 328 338 296 276 268 260 266 256 257 263
226 245 241 237 252 273 476 447 410 395 331 320 368 321 451 462 435 442 435 429 430 444 440 440 443 452 429 348 326 322 323 304 293 352 344 330 315 302 288 271 268 268 271 242
236 245 242 278 265 477 442 407 398 341 324 325 422 320 460 462 449 438 423 423 414 416 408 408 422 445 442 431 367 334 283 281 330 317 322 322 309 309 301 286 279 279 272 266
235 234 257 250 463 435 415 409 343 329 323 318 401 316 464 460 442 430 422 411 405 406 404 411 418 404 395 381 379 358 335 316 311 298 304 321 332 352 299 304 294 273 263 262
247 265 278 274 433 421 381 345 333 327 325 414 396 397 468 460 445 423 412 402 396 380 381 374 364 352 336 328 314 306 299 302 310 309 325 328 323 330 357 302 281 266 258 253

GFSNGP_2pvu_pres_075.txt.gz
Presure
323 327 318 310 315 304 296 314 320 332 345 330 268 273 283 277 272 263 267 273 277 267 271 264 272 293 297 278 284 279 273 247 228 225 213 210 209 222 196 196 218 220 183 182
329 326 310 321 323 325 315 298 288 294 345 346 286 274 308 300 285 286 282 269 289 272 269 276 280 293 294 291 278 266 279 284 311 309 241 231 224 217 214 212 213 216 232 231
265 267 254 336 329 330 324 320 319 310 291 281 315 331 333 326 324 279 273 281 279 268 265 263 267 279 291 285 292 314 305 285 286 287 287 291 291 292 292 246 237 228 223 222
243 230 228 255 272 245 268 333 326 319 316 311 302 292 282 309 309 307 299 302 310 302 277 303 300 279 289 298 291 285 278 273 275 275 281 286 289 281 276 278 280 282 314 242
236 209 245 261 253 270 229 246 255 265 336 321 310 290 299 293 281 281 295 273 297 291 283 277 272 270 264 270 278 266 272 264 266 257 253 253 251 262 254 255 255 257 256 261
107 240 227 262 253 250 234 247 277 288 118 122 338 317 298 284 273 294 288 301 274 272 264 263 285 286 288 289 283 266 285 285 285 285 284 290 255 251 250 256 280 285 290 284
173 229 217 253 240 231 249 245 191 245 279 274 232 305 336 318 295 282 273 282 287 281 281 277 276 276 272 268 266 266 271 275 277 282 281 281 270 282 285 282 277 310 304 294
184 185 204 241 242 227 242 206 228 247 233 271 288 256 209 333 332 315 292 281 269 271 260 266 279 277 264 264 266 269 274 271 267 268 265 271 266 270 280 269 285 300 298 287
156 211 143 204 229 241 209 231 220 245 247 224 258 266 313 309 340 333 330 313 293 276 277 275 263 258 264 264 257 261 260 263 271 273 275 264 295 293 291 289 282 279 277 274
173 177 214 237 230 191 227 225 213 252 243 237 183 279 295 293 295 332 356 324 331 307 291 269 269 274 270 264 267 275 287 301 289 303 297 282 275 278 278 280 269 268 263 261
176 180 210 218 230 231 233 255 240 163 183 249 249 256 294 286 296 350 333 340 320 325 318 298 286 269 269 268 260 260 258 255 262 261 268 269 268 268 264 263 261 258 253 253
228 158 217 217 236 225 233 208 237 224 255 239 260 262 284 289 305 360 338 323 324 319 304 338 303 288 278 266 261 259 255 257 257 257 259 255 252 250 251 251 250 249 248 259
124 217 221 219 227 221 228 235 240 225 252 233 257 300 286 314 357 345 347 333 327 316 321 300 335 311 291 280 271 271 268 262 257 254 251 251 250 250 249 251 252 253 260 270
184 134 233 219 227 207 217 239 243 221 262 246 257 289 299 359 346 341 337 326 332 325 312 311 301 324 320 290 278 274 267 272 273 273 272 265 262 262 262 263 269 272 272 271
172 189 221 215 214 221 214 233 239 253 239 252 289 303 364 349 342 342 338 337 336 335 320 311 308 300 310 319 289 275 273 267 268 269 269 273 274 276 274 272 271 271 266 276
150 220 216 225 227 232 234 215 250 257 262 261 307 339 350 362 370 373 375 378 374 362 344 325 313 310 302 298 319 291 276 268 266 265 266 266 269 269 271 267 274 272 269 267
164 221 224 222 201 235 209 246 258 257 254 308 331 330 381 396 406 428 433 432 435 428 397 358 333 320 314 302 301 323 293 277 271 265 268 266 266 266 264 266 265 265 268 263
223 221 210 213 218 232 235 224 252 268 265 347 349 398 413 435 433 386 339 320 307 312 325 325 365 336 323 320 303 303 323 303 283 276 265 265 263 262 269 265 264 263 263 258
200 224 210 213 232 218 230 266 251 265 332 339 430 449 439 406 365 323 443 312 438 513 523 537 412 364 339 330 321 301 302 325 302 283 275 264 263 260 260 262 263 265 262 262
201 220 226 200 235 241 230 268 241 271 406 479 464 425 391 333 325 328 332 446 488 498 500 519 549 519 361 339 333 318 303 302 321 316 285 275 264 262 257 253 253 257 253 247
214 209 231 215 235 227 242 260 260 370 481 429 412 381 337 325 317 414 322 476 469 462 462 481 507 540 504 360 339 324 311 306 302 319 317 287 275 269 263 260 253 252 250 248
214 206 212 215 238 227 255 282 286 447 432 402 350 340 326 333 315 418 383 461 456 442 446 476 473 507 530 486 354 338 320 311 305 297 310 324 300 274 273 262 257 252 251 250
208 210 211 242 232 258 242 274 447 424 363 344 333 332 328 332 346 446 449 447 443 430 437 435 434 449 515 476 393 345 331 315 309 303 295 302 303 320 289 273 266 260 253 251
223 219 212 248 263 269 279 263 414 383 380 376 402 414 412 408 418 490 466 450 435 421 434 423 422 424 449 484 463 359 335 331 310 312 301 301 297 314 294 326 286 277 265 255
219 203 240 223 248 263 283 409 377 357 354 358 387 409 424 424 448 464 467 441 435 416 415 407 410 407 411 427 449 458 351 331 325 319 301 301 288 305 310 316 287 335 294 275
215 244 255 256 264 239 265 387 360 348 343 350 398 419 432 434 471 496 453 436 423 403 401 406 413 416 420 430 450 424 424 347 329 316 309 309 298 300 285 318 305 333 320 290
229 236 211 239 260 260 400 371 356 345 339 405 421 448 444 442 523 482 449 424 404 398 389 385 388 395 405 420 434 411 398 371 332 317 306 284 275 293 328 337 330 320 308 294

GFSNGP_2pvu_pres_078.txt.gz
Presure
300 152 346 351 335 336 302 296 294 288 297 292 290 289 288 278 273 272 270 275 283 279 279 279 280 281 296 298 285 234 152 210 217 151 211 208 210 211 154 195 194 191 163 173
139 226 127 225 359 364 351 323 324 324 336 310 309 296 286 285 280 286 278 274 281 281 276 282 286 282 295 292 290 284 278 261 274 232 235 215 217 127 129 213 210 212 210 205
260 138 236 249 262 256 275 288 285 327 349 313 303 369 328 312 307 301 276 274 274 273 266 271 275 278 273 265 276 265 263 264 280 275 278 288 269 250 233 229 230 163 210 179
104 226 242 242 251 242 240 233 250 261 279 272 286 347 336 296 282 289 329 303 295 292 291 284 288 286 280 280 276 285 281 279 269 295 279 277 298 291 282 292 299 276 275 281
148 164 215 240 249 239 241 257 233 228 235 239 274 260 267 253 346 328 309 304 321 330 326 317 312 309 306 279 276 275 279 285 282 271 250 254 272 265 296 260 286 283 294 299
199 221 230 225 233 205 228 212 238 231 250 205 271 260 240 252 306 344 337 325 306 278 294 295 299 302 299 299 295 288 287 291 298 267 265 267 266 266 264 264 264 253 277 266
129 181 204 212 137 228 239 223 218 208 220 222 234 215 209 258 245 279 299 319 341 314 295 286 277 294 285 281 282 283 291 300 299 302 300 272 274 280 277 289 291 285 283 285
115 153 153 219 191 226 237 235 227 233 206 249 246 242 225 250 232 267 252 242 301 310 339 310 291 279 269 276 286 279 273 273 276 276 277 272 265 263 275 273 279 296 288 287
155 153 142 142 219 226 172 235 233 235 202 235 224 245 254 258 250 281 287 297 297 308 314 319 328 301 281 277 268 269 279 275 269 266 266 274 270 265 268 271 276 271 269 267
141 166 123 136 188 224 214 218 207 231 222 233 221 255 251 253 248 283 283 303 311 343 345 342 315 317 311 292 276 273 266 257 254 259 266 275 278 268 261 254 254 254 284 302
202 147 148 141 217 194 231 224 227 234 221 243 228 259 231 246 264 284 300 313 294 358 343 340 335 311 327 327 303 290 278 270 269 266 263 259 264 269 253 263 281 294 298 284
135 126 145 213 207 199 218 194 144 218 225 210 242 250 247 248 291 312 289 306 345 353 340 342 335 327 305 318 322 333 296 287 277 268 267 267 273 265 266 280 282 267 273 268
211 96 179 170 153 213 218 196 215 213 224 253 239 245 269 263 322 308 358 349 344 341 346 341 335 329 325 306 310 312 341 309 292 284 275 265 266 279 276 266 255 260 258 257
149 151 214 170 206 209 212 214 222 214 212 257 263 253 254 303 324 361 355 351 346 341 336 341 344 334 329 319 319 305 308 311 312 301 287 274 265 266 264 256 254 258 253 252
142 167 193 217 219 221 209 220 220 235 219 245 255 270 280 319 375 376 373 371 368 362 356 352 349 345 334 325 323 327 306 311 295 319 300 287 277 266 261 260 258 256 255 250
142 209 201 147 220 221 215 213 225 232 242 255 262 253 316 409 411 410 407 405 408 409 409 410 402 387 373 349 330 327 329 308 308 300 308 292 284 276 270 266 266 272 273 272
142 137 141 218 222 221 197 218 213 219 240 257 278 291 429 448 453 489 466 466 453 426 321 326 341 412 421 447 379 344 338 319 308 301 312 303 289 279 273 270 268 270 272 274
167 163 153 223 222 223 215 214 245 233 243 260 249 444 529 484 358 341 339 337 324 342 310 327 439 308 308 311 313 310 355 346 319 306 300 310 292 283 274 267 265 262 265 267
179 218 165 220 231 211 214 199 246 245 245 248 309 429 378 398 391 414 379 332 329 324 321 434 456 431 505 511 507 344 323 350 340 314 303 312 304 290 278 268 265 262 263 267
174 223 202 207 235 223 215 243 223 238 260 276 414 382 361 352 351 378 410 420 402 362 412 486 484 475 473 486 522 548 356 395 351 330 309 301 315 297 285 277 269 264 265 264
196 204 209 213 232 223 218 246 230 268 258 266 394 372 356 340 340 365 396 416 418 428 438 469 468 453 457 478 483 524 538 370 357 342 320 306 300 307 289 277 272 268 264 262
192 176 219 218 228 215 217 243 244 254 290 277 381 364 353 333 346 385 400 419 422 424 466 460 444 445 442 438 455 504 523 432 369 341 331 315 302 316 303 290 279 273 265 260
158 207 211 230 225 230 237 258 255 271 265 389 373 352 344 334 358 415 404 421 424 433 464 449 426 437 426 431 443 474 497 440 384 340 324 330 307 297 324 297 285 276 266 261
156 188 215 232 239 216 237 268 275 269 276 381 361 354 339 352 462 445 436 432 432 495 461 427 424 409 403 406 425 448 479 479 390 342 328 320 319 303 292 315 296 280 269 266
217 217 235 228 240 212 233 262 247 262 390 373 346 345 342 498 483 458 442 438 476 463 440 431 409 403 408 413 414 430 467 446 409 346 329 327 320 306 294 294 298 307 279 270
168 232 236 225 245 248 252 262 273 332 385 353 349 335 503 492 480 464 449 411 474 443 412 404 403 400 404 409 411 413 431 448 407 359 334 328 310 309 301 290 290 294 294 304
223 234 234 230 258 252 247 297 259 391 375 356 341 423 478 474 486 455 454 494 439 409 391 384 385 387 396 411 419 431 444 444 393 359 327 322 317 306 304 301 290 313 297 297

GFSNGP_2pvu_pres_081.txt.gz
Presure
146 223 137 321 314 317 290 289 300 296 297 288 276 285 292 287 291 291 306 315 310 303 289 233 234 227 229 219 217 195 220 220 226 205 223 196 190 222 190 175 190 198 175 181
228 138 131 253 127 236 244 266 268 247 250 265 322 323 310 298 293 296 301 273 273 300 300 309 274 224 212 228 228 223 210 210 210 209 204 192 190 189 187 186 153 155 184 155
124 150 213 228 219 225 134 232 237 244 249 258 266 263 257 289 339 316 316 301 292 282 281 285 284 286 291 238 224 214 212 219 223 213 211 211 207 198 199 195 197 201 189 187
157 167 217 214 195 216 136 249 250 227 227 224 247 262 234 276 267 260 262 312 338 328 313 298 296 292 290 290 290 269 264 227 219 214 213 215 215 213 213 209 205 205 203 204
231 109 191 222 224 142 238 221 209 195 222 241 252 227 255 268 261 244 264 242 242 343 363 315 304 292 282 294 296 298 299 300 302 282 228 225 224 224 226 229 226 226 227 227
178 191 190 120 216 145 142 122 218 229 192 234 223 219 225 246 258 257 244 284 238 261 280 312 343 334 302 298 335 335 297 295 292 291 290 282 265 290 296 292 319 266 270 274
214 211 173 156 205 166 208 232 175 221 185 128 218 248 230 248 270 244 249 260 245 263 279 284 293 298 303 323 315 293 295 301 306 318 318 311 312 301 287 291 290 285 273 258
175 145 139 155 175 161 218 121 174 204 227 214 228 232 226 254 249 247 254 259 253 283 303 310 312 234 326 301 302 312 303 296 291 293 288 287 289 292 291 291 291 285 284 289
161 154 176 211 136 143 136 143 208 204 204 210 237 236 238 234 247 239 262 246 262 312 285 285 296 296 287 255 326 297 308 309 292 285 280 288 292 289 263 306 301 299 285 263
133 147 176 143 126 136 201 232 136 190 215 209 234 242 239 260 235 244 137 258 269 288 301 329 323 317 317 310 315 324 301 312 314 294 286 280 273 281 280 276 271 265 265 265
151 184 131 126 169 158 149 215 218 186 215 208 213 236 239 261 242 258 248 258 308 347 332 333 325 329 322 324 321 316 321 302 304 315 297 281 279 271 267 267 269 269 266 265
187 145 149 166 145 140 145 203 209 197 218 205 228 235 231 257 254 268 258 319 365 354 352 355 348 337 337 335 329 324 329 321 306 315 313 300 286 276 271 269 265 263 263 265
203 142 135 152 152 95 164 132 210 194 236 212 235 246 249 239 260 260 263 384 384 387 379 376 372 367 358 350 345 336 334 334 330 325 318 305 324 292 280 270 267 264 262 260
171 167 149 185 172 198 175 212 208 203 223 224 213 236 249 267 266 279 303 418 420 419 400 411 404 391 378 368 367 354 339 338 332 335 319 307 307 328 309 293 280 268 266 263
166 140 173 150 171 191 203 208 220 223 206 225 235 241 250 269 254 371 458 421 385 485 437 327 373 391 441 412 390 383 365 339 337 342 335 317 307 308 324 315 300 289 281 276
170 144 156 169 193 191 220 205 222 218 224 222 249 247 253 275 262 520 380 359 347 338 384 435 365 322 332 352 360 455 421 382 359 340 341 335 314 304 308 328 314 297 289 281
175 147 137 186 160 202 212 224 224 222 233 229 257 249 258 257 326 394 368 351 352 325 338 382 414 423 323 333 317 325 327 373 442 395 343 339 338 314 303 309 319 307 293 286
169 169 140 153 173 204 206 202 235 211 248 266 257 256 283 268 405 375 354 346 336 329 348 385 401 416 429 369 315 327 459 482 315 399 413 345 335 334 306 302 303 292 292 289
150 141 168 168 172 166 225 233 235 237 233 256 243 244 264 284 383 371 344 337 327 338 359 407 409 413 429 434 327 496 484 496 457 317 311 432 349 333 316 304 304 313 292 286
151 146 193 166 190 158 206 219 216 225 251 250 254 274 257 396 381 347 344 323 331 368 415 415 410 412 424 431 475 468 467 485 483 499 332 315 373 341 328 309 305 309 298 281
150 153 165 169 167 194 220 229 219 223 254 269 264 253 383 388 357 350 328 328 392 450 448 433 416 421 423 469 454 458 449 449 471 509 537 336 312 354 332 312 306 301 300 280
169 192 188 165 207 214 214 230 242 228 231 256 260 263 398 366 357 338 333 497 487 474 458 435 430 425 458 453 441 437 428 429 453 530 524 406 323 349 333 311 305 307 295 280
158 191 187 159 174 195 228 226 250 243 242 258 261 318 381 359 350 339 511 490 482 465 448 439 429 462 445 432 420 418 416 434 437 493 501 413 363 354 330 302 305 293 296 282
170 156 201 166 179 208 237 227 248 233 267 249 263 396 374 362 344 500 488 492 474 458 355 442 460 444 440 407 400 407 412 425 466 476 483 416 382 353 325 304 304 286 297 282
156 216 169 171 226 240 233 250 253 235 260 294 278 385 370 360 435 492 471 479 469 442 488 457 417 406 402 402 406 412 423 418 452 464 465 395 366 344 322 303 297 281 309 290
156 168 169 176 223 243 218 251 251 259 257 265 397 379 369 365 566 535 472 455 477 488 437 402 396 391 393 398 403 412 418 410 428 464 412 376 353 339 318 306 293 287 291 296
154 178 185 173 236 237 227 271 255 269 251 403 389 374 366 578 561 530 468 516 473 423 393 381 378 381 385 394 406 415 425 435 426 445 392 357 336 316 320 305 292 295 279 309

GFSNGP_2pvu_pres_084.txt.gz
Presure
119 180 196 253 147 263 263 261 270 267 276 320 315 302 298 311 311 296 274 264 233 238 240 227 232 221 221 207 209 220 217 211 215 216 190 204 190 194 191 162 182 188 181 187
157 178 135 246 152 242 203 229 243 251 250 250 272 277 269 321 322 329 326 307 265 229 234 179 237 219 215 225 224 176 214 235 219 211 204 221 201 209 203 204 200 182 182 176
218 169 111 230 135 244 226 165 238 212 209 241 239 255 262 260 266 262 278 292 310 339 275 230 241 237 232 219 214 216 221 211 220 212 216 218 209 212 223 204 199 188 189 185
239 166 162 167 224 190 151 204 184 124 134 174 218 234 252 260 268 263 268 259 249 211 273 215 329 306 227 227 233 233 230 218 230 219 212 193 191 207 212 214 215 221 220 196
112 220 164 108 149 141 149 189 217 223 176 225 211 247 223 223 242 273 271 256 248 260 269 283 251 258 278 377 359 325 235 229 234 220 224 223 224 226 217 226 214 220 205 204
166 156 162 140 117 168 233 149 139 212 144 210 106 210 232 206 232 249 257 267 259 266 265 239 260 252 272 287 320 310 360 357 338 245 235 236 229 226 229 222 226 226 222 221
181 137 150 181 169 146 172 156 145 164 186 213 178 217 229 232 254 236 259 264 261 260 266 275 260 243 251 290 299 326 305 299 310 339 344 324 329 236 237 241 238 230 230 221
173 170 167 147 158 135 173 135 148 144 225 198 208 220 237 224 219 245 238 247 261 256 251 271 226 225 319 304 276 270 296 301 298 319 326 314 337 317 315 296 298 287 229 233
162 193 185 159 174 168 153 191 144 189 209 183 223 217 241 229 239 244 238 241 263 268 272 260 286 333 329 330 313 313 302 297 292 297 300 317 304 306 323 313 302 286 295 299
191 186 160 186 158 124 184 136 191 203 196 192 214 203 211 223 247 244 236 239 260 265 257 305 374 356 346 339 345 317 315 305 306 290 294 281 296 228 297 326 311 298 293 282
186 186 175 149 138 140 163 132 182 186 194 208 236 205 227 237 248 240 236 256 247 250 288 361 364 366 365 362 363 346 346 331 315 314 297 292 284 290 301 299 304 309 298 286
189 164 171 141 149 130 144 198 177 184 202 190 224 209 222 234 250 241 254 269 245 298 397 387 386 387 388 387 384 384 379 367 360 339 317 308 309 291 292 296 306 299 307 294
160 159 181 152 159 157 152 205 134 195 218 191 225 232 236 222 257 248 251 251 264 413 420 434 453 465 367 473 458 363 367 409 389 369 364 335 329 317 307 303 296 308 302 301
198 175 187 144 135 156 125 178 154 184 194 221 219 227 225 239 253 268 263 252 456 469 473 398 360 352 342 332 334 420 353 342 486 425 393 363 350 343 328 314 307 304 320 305
164 197 172 150 141 166 190 147 169 176 188 220 226 227 223 241 247 261 265 264 495 426 388 370 345 343 336 322 324 341 398 424 331 341 467 435 368 350 346 336 325 320 324 316
183 163 177 135 140 168 164 169 157 188 223 197 227 243 225 261 257 278 261 443 407 384 374 344 340 321 315 323 337 358 384 401 424 329 350 446 438 365 349 346 339 334 322 314
206 175 173 147 175 132 136 165 161 188 193 203 218 224 252 250 253 288 270 408 390 361 349 348 325 319 332 353 365 378 405 404 412 352 323 320 397 442 360 347 338 336 320 314
218 134 195 141 171 168 163 162 162 208 217 231 237 223 263 252 274 274 395 391 361 351 344 336 331 354 380 390 404 408 408 410 420 439 371 317 320 323 432 354 345 338 322 313
206 138 123 155 158 203 167 176 163 203 207 244 239 241 260 248 263 269 401 374 361 354 335 343 457 464 453 441 432 426 421 411 425 435 489 323 330 434 318 428 347 343 324 313
171 136 202 147 156 169 164 162 169 176 206 216 225 245 259 276 263 404 388 371 362 353 355 501 490 481 472 462 451 436 423 425 428 467 468 473 484 523 480 304 359 345 328 323
180 130 125 209 164 196 160 162 175 175 210 237 247 257 278 280 274 402 384 369 359 468 505 494 488 479 466 448 434 428 425 456 452 450 437 444 454 515 536 313 376 348 340 323
199 131 173 150 157 214 201 161 205 205 232 250 236 251 262 263 414 392 375 374 509 492 476 488 476 459 446 435 428 446 443 437 423 419 423 441 467 533 539 322 305 349 335 318
165 125 126 210 154 195 199 166 179 215 257 257 247 288 276 264 401 386 495 555 516 479 489 477 457 443 462 463 448 438 419 415 409 410 424 441 491 525 532 324 305 344 327 317
190 126 191 171 164 207 213 173 198 207 242 234 270 253 275 399 390 588 579 559 500 462 455 468 478 428 417 410 406 405 407 406 412 418 432 477 497 520 402 321 354 341 325 308
145 183 164 157 202 178 206 181 208 233 253 264 289 276 266 402 488 581 554 514 467 486 471 416 400 396 389 390 392 396 398 409 412 422 456 477 506 492 344 315 307 330 317 303
145 171 187 212 213 181 186 222 225 249 262 258 265 302 274 392 586 545 502 512 464 410 397 387 390 384 384 390 405 407 421 416 411 428 473 483 471 371 326 341 328 322 303 293
144 165 159 199 209 187 177 201 203 252 231 277 288 265 377 402 539 517 466 420 404 394 374 369 365 383 379 393 411 427 418 425 423 453 478 450 400 386 363 330 322 295 299 283

GFSNGP_2pvu_pres_087.txt.gz
Presure
259 115 113 127 146 255 220 281 197 183 180 293 309 290 300 286 263 259 239 233 209 223 218 222 211 217 218 212 206 211 209 190 160 214 199 199 204 200 207 166 191 211 197 197
242 136 97 137 134 269 252 244 247 142 127 263 344 327 321 312 316 255 260 234 234 231 225 224 227 203 214 172 170 213 203 202 188 200 219 220 215 214 203 211 178 225 203 204
115 175 134 158 158 170 233 166 156 143 131 137 260 131 268 273 287 304 276 247 231 249 232 213 214 221 237 218 204 205 225 207 215 222 187 173 208 203 204 196 204 195 167 207
182 105 127 145 111 128 223 148 155 137 139 181 231 129 131 245 201 264 282 311 259 225 227 242 246 230 220 222 163 219 213 206 221 225 220 211 212 218 210 228 222 211 211 202
181 199 197 101 117 167 159 149 136 184 207 193 140 229 211 210 212 226 257 269 276 292 284 219 224 222 207 231 223 218 197 215 215 210 228 198 219 214 203 212 210 207 183 185
179 163 168 120 145 143 129 209 155 212 232 215 234 194 193 235 212 211 261 269 230 244 242 256 260 269 281 222 240 230 224 214 225 194 227 223 217 215 229 222 227 215 187 214
190 193 182 169 171 120 156 179 172 151 138 143 189 152 219 192 243 242 229 245 234 278 260 223 270 260 309 276 269 252 244 230 231 232 234 228 222 221 227 228 230 228 224 214
173 196 187 143 111 173 131 187 143 177 150 142 173 186 189 190 211 244 215 235 244 278 247 281 254 216 227 237 271 246 302 260 285 278 276 254 243 243 246 250 261 249 226 217
192 134 186 169 182 153 155 209 183 138 190 188 190 181 223 186 235 217 242 215 257 264 263 263 266 258 251 273 363 245 380 231 337 263 261 259 254 269 280 302 306 308 298 283
194 190 188 170 178 156 137 124 136 154 161 179 180 200 202 195 220 214 232 216 238 257 258 264 290 260 285 394 379 369 364 363 356 349 349 338 318 319 315 282 250 300 296 283
176 193 181 189 148 164 175 159 161 151 148 133 178 202 186 215 231 225 229 229 246 268 260 247 253 286 397 395 393 398 398 395 386 390 364 356 345 327 332 320 304 294 285 283
203 185 184 169 184 148 169 134 158 143 141 158 200 193 187 194 201 228 233 234 254 263 256 257 328 429 444 461 471 472 467 468 452 443 424 410 395 378 371 348 333 312 295 290
194 205 172 165 197 185 143 172 171 170 153 182 210 172 182 216 207 225 236 264 251 266 292 267 473 477 445 423 408 384 366 356 351 349 353 391 496 459 407 382 381 335 324 299
185 197 202 198 206 163 218 152 158 159 192 143 167 181 208 185 221 230 237 252 268 294 269 479 455 417 401 390 373 351 344 343 344 342 330 329 332 368 456 429 407 386 372 363
190 193 146 192 198 208 143 124 194 167 155 145 202 163 200 197 216 237 247 251 285 286 280 432 403 384 364 350 345 341 335 326 319 318 319 320 329 339 381 402 342 420 388 373
215 181 195 135 141 189 146 132 162 161 159 156 199 198 211 199 223 231 271 253 310 276 418 402 385 370 359 348 342 336 328 326 331 338 348 357 363 370 389 420 355 352 411 377
221 219 243 200 201 139 219 222 215 187 160 151 197 185 193 239 232 236 262 289 302 377 403 392 379 362 355 347 344 344 375 397 412 405 396 390 391 398 418 414 439 323 421 385
223 221 216 167 187 134 197 145 140 195 192 165 220 221 193 222 237 258 273 311 369 410 390 377 366 363 406 508 499 490 480 468 458 449 440 431 421 417 422 424 463 317 401 389
219 224 227 221 211 205 141 140 174 177 162 198 195 204 211 222 238 252 301 276 417 401 379 481 520 511 504 499 494 490 484 475 465 458 447 438 430 430 429 448 493 318 318 397
219 219 215 154 215 177 123 138 147 167 206 220 183 191 213 261 267 261 320 300 411 559 574 550 518 494 480 480 481 479 475 467 352 436 436 428 426 434 476 484 496 317 314 309
195 208 211 215 210 123 203 147 137 210 165 188 213 244 218 250 261 286 295 424 607 588 574 542 499 477 481 472 462 453 445 438 432 426 425 437 461 462 449 461 469 311 314 305
217 217 209 200 209 221 168 135 222 168 191 175 196 222 258 249 266 317 291 617 598 579 537 487 465 461 459 456 459 460 462 461 452 440 438 424 427 425 434 451 465 332 384 301
210 209 191 207 182 181 168 200 212 162 191 202 210 218 241 271 288 306 557 558 516 496 488 460 432 406 399 396 397 398 400 403 406 409 408 410 412 421 430 450 475 418 361 301
197 186 167 174 142 148 173 154 206 214 178 200 219 250 252 262 305 286 557 497 439 418 404 384 379 375 384 384 384 392 395 401 402 411 415 420 425 436 473 488 520 530 331 335
200 198 123 202 202 157 150 172 165 162 194 214 240 246 262 278 308 289 476 439 420 392 376 373 379 379 374 378 385 403 411 407 418 407 408 423 446 464 490 510 539 337 307 352
186 191 146 188 166 178 135 207 174 187 208 243 250 254 254 281 299 410 470 433 400 377 377 374 367 380 391 394 407 421 426 415 420 412 423 456 463 487 508 475 332 389 328 335
189 191 187 194 216 171 203 161 230 223 219 233 236 259 268 294 277 431 471 415 387 373 367 368 388 399 416 433 430 427 427 426 422 432 445 461 484 500 371 326 369 329 328 319

GFSNGP_2pvu_pres_090.txt.gz
Presure
142 142 113 139 176 150 148 268 141 137 172 313 293 280 271 289 266 249 264 202 247 235 218 248 220 195 221 236 215 191 227 205 210 215 204 218 216 201 202 190 195 193 190 187
120 187 174 110 139 111 248 126 238 216 118 334 351 118 128 293 243 274 267 253 252 244 226 224 224 232 239 240 227 222 204 199 195 196 227 174 213 215 205 204 206 205 201 219
180 142 118 118 153 138 201 165 148 150 225 159 137 279 288 301 319 314 270 268 269 228 234 214 235 226 232 200 238 203 220 214 201 200 206 209 200 200 211 213 218 198 213 209
204 209 210 147 176 118 139 193 155 111 130 129 173 166 150 194 266 260 278 271 252 246 221 228 213 220 233 219 229 222 229 215 216 215 224 222 205 208 203 218 213 201 195 197
187 180 206 201 191 163 172 185 136 166 127 218 157 131 225 219 146 204 225 288 249 255 245 220 212 227 217 221 215 202 223 212 213 215 212 224 222 213 204 209 204 217 209 186
149 182 171 194 190 174 121 159 143 178 186 136 164 148 224 155 133 170 197 230 221 239 279 291 239 221 222 213 234 208 202 219 213 202 230 227 228 217 220 209 218 225 226 218
178 159 155 159 168 163 200 158 149 166 186 126 168 160 163 145 192 190 167 184 232 206 184 202 198 246 253 312 280 214 242 221 218 206 220 232 227 207 214 205 229 222 235 213
187 190 178 175 171 173 180 150 150 181 136 139 161 163 135 176 147 178 223 175 220 220 226 233 220 236 251 267 242 230 235 251 215 254 238 237 233 215 250 239 227 223 222 233
189 208 119 191 185 187 187 193 161 165 154 153 161 180 174 156 199 171 196 172 185 217 244 260 244 251 255 192 201 313 200 276 280 227 261 265 273 386 267 250 247 251 258 272
202 207 207 188 178 186 168 180 200 157 168 147 158 158 155 162 163 159 181 200 170 214 221 236 242 256 278 294 285 308 351 420 408 408 415 414 341 258 251 259 261 347 359 347
200 203 203 202 207 172 206 180 146 194 189 153 143 163 152 161 146 189 211 202 176 216 226 242 247 257 297 275 310 446 464 480 483 468 465 488 478 466 449 430 321 254 245 282
170 203 199 197 198 202 195 183 202 199 193 129 146 158 178 155 150 192 213 219 174 223 256 249 259 295 291 338 500 494 473 452 420 403 397 393 391 404 509 471 432 418 405 387
224 203 231 230 211 106 210 192 224 215 137 133 135 136 172 178 187 188 174 237 182 235 243 253 287 289 297 481 448 425 409 402 392 385 378 370 363 354 349 354 353 377 456 433
231 226 227 228 213 225 219 118 215 173 181 140 134 171 160 180 184 174 161 174 230 237 251 268 313 296 437 418 402 388 386 377 367 355 350 346 343 342 341 340 339 336 339 347
223 224 224 227 231 223 208 177 208 224 182 225 135 181 187 163 175 172 207 224 239 246 256 285 291 430 412 397 387 379 368 361 365 361 356 353 346 342 336 331 330 330 331 328
222 223 224 223 220 225 229 151 226 220 217 223 140 163 222 179 219 184 215 235 251 251 269 307 381 419 414 433 443 452 451 426 418 367 352 347 344 342 337 333 326 317 315 321
228 223 220 222 231 221 220 203 130 201 145 220 145 168 210 158 158 181 233 252 244 257 309 304 516 589 577 558 543 527 512 503 498 498 495 488 480 472 463 447 409 385 376 361
219 224 223 213 221 221 205 211 215 224 165 173 141 200 223 154 209 222 244 245 251 268 294 642 621 603 587 566 543 518 499 488 484 485 488 486 480 475 468 461 451 433 417 406
218 220 224 214 214 210 208 208 190 174 197 172 146 170 155 180 213 248 246 242 261 293 310 622 603 581 549 518 498 487 483 483 482 478 477 481 480 474 468 461 451 442 432 422
220 220 209 193 184 216 211 207 205 210 155 205 208 148 221 163 237 239 258 249 274 291 441 453 422 414 413 426 432 469 462 456 450 445 445 448 450 450 432 446 443 438 434 433
170 161 204 207 184 190 197 195 163 203 164 184 159 169 166 229 253 251 245 263 295 307 447 418 400 400 395 392 392 401 404 406 415 462 454 437 427 424 423 424 433 441 476 475
196 165 185 192 171 194 202 202 180 167 165 131 212 188 194 236 252 250 262 249 291 306 432 402 399 389 382 384 384 388 385 396 400 399 405 416 432 435 432 434 436 438 443 459
190 186 193 172 191 181 192 198 132 210 200 178 201 194 175 229 249 250 252 268 282 312 418 400 390 386 393 413 415 410 400 403 404 410 404 403 411 414 417 420 424 434 444 462
211 165 216 209 167 211 215 231 179 220 134 227 196 203 163 238 250 257 240 285 286 400 407 395 385 382 401 430 430 434 426 425 427 419 420 409 413 418 424 433 437 454 473 502
226 225 225 225 226 226 229 222 167 191 173 229 175 231 234 238 250 237 261 288 293 438 397 386 378 386 403 447 441 434 429 432 425 422 423 418 419 438 466 476 496 517 531 352
233 234 226 201 225 230 189 171 160 229 186 207 214 162 243 244 250 251 270 279 292 416 393 381 382 393 415 460 449 442 435 433 435 435 447 469 502 494 500 514 524 443 384 371
230 233 234 179 222 173 221 215 155 228 234 158 231 237 232 240 253 255 278 276 290 397 390 380 380 409 415 427 451 458 455 438 445 449 461 475 492 505 465 443 391 404 421 318

GFSNGP_2pvu_pres_093.txt.gz
Presure
125 206 148 156 147 160 123 157 137 108 149 185 282 276 255 276 272 274 268 259 201 254 250 274 207 260 250 232 239 225 242 238 211 248 242 238 202 196 203 194 208 201 192 203
190 147 138 150 139 168 120 165 164 145 138 216 252 140 274 290 265 250 283 252 269 257 258 252 269 258 246 253 234 237 223 208 241 230 225 230 214 236 221 221 195 191 190 192
196 186 168 172 193 124 112 171 186 151 136 252 143 150 116 306 288 236 125 269 267 258 273 121 250 229 220 240 243 249 246 225 223 204 206 198 223 237 227 224 200 207 210 185
184 220 197 200 190 200 147 189 219 192 179 131 137 134 223 139 128 163 225 249 245 283 249 266 234 244 228 231 247 229 210 222 216 229 208 237 244 245 241 233 214 207 202 228
190 176 189 155 195 154 172 178 173 142 163 207 163 112 136 135 130 121 127 144 185 219 204 283 277 231 250 235 223 234 234 203 191 192 222 202 222 225 211 207 236 227 227 226
198 162 156 204 180 176 157 173 182 156 139 154 152 136 202 153 155 158 129 185 128 149 145 121 179 225 304 272 228 214 213 205 230 200 213 202 192 193 227 227 217 215 211 223
189 196 198 194 135 183 174 192 180 194 147 166 177 168 165 144 161 150 135 147 203 156 145 178 185 140 191 173 192 192 220 201 224 226 233 230 221 217 229 232 213 227 236 209
207 197 196 180 179 184 183 180 176 191 191 178 151 188 176 165 140 166 175 147 151 186 145 158 221 187 212 162 232 222 254 250 203 203 203 239 246 253 260 250 249 223 257 231
200 204 203 201 196 187 207 205 203 199 182 193 165 178 160 132 200 149 156 212 167 180 179 158 164 185 238 179 243 248 251 264 277 285 279 262 214 364 409 350 372 280 239 292
221 213 196 207 194 198 254 189 173 164 162 213 202 167 218 130 156 149 161 154 153 175 206 169 165 218 238 240 248 250 259 275 295 324 375 463 503 492 487 490 482 481 274 233
182 234 235 233 233 235 226 230 231 185 232 234 230 218 148 160 132 217 169 181 159 195 184 179 190 191 241 240 251 255 277 310 395 498 471 448 434 423 426 432 420 417 434 477
201 139 233 236 234 170 230 230 233 203 229 230 224 208 215 135 160 143 141 201 193 184 173 191 245 240 240 251 253 259 318 457 425 421 411 407 402 398 396 392 388 388 384 394
211 136 127 220 229 230 227 227 230 226 224 121 212 213 216 231 185 169 142 161 176 186 152 247 241 241 251 251 254 292 453 441 427 417 406 392 379 376 376 376 373 375 365 361
215 218 133 128 225 223 219 224 225 224 228 232 121 193 217 163 213 177 162 156 215 153 214 242 248 250 246 266 290 542 583 561 537 478 443 421 397 375 362 366 357 354 350 349
133 189 216 223 135 213 221 224 226 207 215 209 216 211 179 210 161 174 141 198 218 156 167 235 253 246 266 292 616 640 618 595 570 546 527 509 479 425 390 361 357 351 344 343
211 216 213 153 215 217 214 211 224 209 209 202 187 196 193 173 212 208 226 208 171 236 238 250 247 261 284 337 441 444 446 584 566 549 532 517 506 501 494 483 369 349 350 347
209 188 196 177 212 216 213 215 223 198 190 213 169 207 192 177 152 163 150 163 199 160 249 254 248 269 296 443 431 416 412 415 485 505 498 492 487 485 487 491 491 486 357 343
216 216 220 169 208 209 182 185 178 184 190 192 183 169 175 127 204 172 216 159 245 222 249 239 259 278 310 430 414 403 412 418 408 419 460 477 484 483 480 486 492 489 478 468
169 211 182 209 195 207 176 197 190 199 171 207 192 185 201 195 178 169 226 173 203 246 255 245 265 285 431 417 401 398 430 425 416 404 407 415 457 450 462 472 478 479 478 471
233 222 221 172 210 189 212 218 215 209 177 213 209 211 188 231 234 181 152 178 243 245 265 253 267 295 422 402 399 405 440 432 421 407 402 409 408 456 440 438 446 456 466 464
229 230 233 226 225 173 214 219 203 205 186 168 225 226 176 223 174 183 246 241 249 245 244 262 271 313 406 401 400 442 438 443 438 436 418 411 412 407 417 449 433 427 432 439
237 224 225 227 230 194 197 199 219 222 224 192 186 228 224 158 228 222 163 249 253 247 253 266 282 346 406 398 415 463 463 450 437 430 432 423 419 409 413 418 437 443 442 457
251 249 234 228 225 206 224 226 227 225 227 228 235 235 191 163 170 175 238 240 255 256 257 270 292 401 401 410 421 467 464 445 433 433 426 422 423 414 412 421 415 420 425 434
276 262 250 184 229 208 206 223 221 217 186 232 231 224 226 242 151 163 255 246 248 242 262 273 303 401 399 421 427 482 468 455 449 448 430 427 424 421 417 419 424 434 435 439
286 274 267 255 240 234 228 225 225 231 196 168 228 227 174 213 210 243 241 253 245 250 266 278 306 393 395 424 426 422 434 475 468 469 470 497 504 480 495 490 480 480 490 488
296 282 265 260 265 253 243 241 239 239 226 168 196 237 233 151 177 239 234 255 246 255 269 283 346 390 385 424 422 428 442 458 466 473 478 485 496 503 509 518 519 527 534 494
304 287 273 264 251 254 254 245 241 233 242 237 232 229 232 232 248 242 246 244 260 254 265 288 391 384 382 424 427 410 441 446 452 507 474 500 481 476 470 469 478 449 354 309

GFSNGP_2pvu_pres_096.txt.gz
Presure
161 131 139 110 158 120 160 144 139 108 111 147 158 287 242 253 205 274 255 261 227 268 233 243 249 270 273 206 251 242 176 237 246 248 244 247 235 233 237 202 236 197 229 200
231 139 207 251 177 228 240 160 240 119 152 144 118 267 148 118 269 279 149 254 266 247 242 262 263 272 291 263 252 222 241 230 204 224 236 234 203 240 226 219 217 238 194 217
184 185 192 218 180 166 189 200 195 146 161 163 208 125 217 186 114 109 241 180 219 266 230 242 238 245 263 273 260 258 249 242 242 240 227 243 237 245 243 237 241 239 225 225
199 191 192 192 200 189 182 176 154 165 197 185 171 185 123 141 126 181 149 157 160 155 139 207 237 221 230 266 251 223 256 241 236 238 218 242 239 223 200 228 224 231 240 214
195 189 209 199 148 180 157 166 199 204 170 171 145 163 168 137 141 133 123 146 202 155 160 163 145 99 173 179 193 160 220 203 234 166 167 234 236 208 238 213 231 190 195 225
145 200 192 185 187 171 194 119 184 190 191 193 161 133 185 189 135 149 147 155 168 164 153 138 118 112 199 138 160 174 169 181 218 171 198 262 190 195 165 224 234 222 230 231
193 206 200 159 201 204 192 137 119 170 188 185 204 211 176 167 186 156 164 187 136 152 158 149 147 135 199 142 160 162 139 143 217 200 184 182 209 236 237 241 212 218 224 232
216 219 214 164 196 164 199 201 219 205 197 180 172 184 204 197 181 166 199 149 151 148 148 142 184 153 186 217 191 223 178 180 210 225 178 236 241 208 260 275 235 249 250 252
236 236 192 233 146 235 244 253 252 244 244 247 246 203 242 242 244 225 184 221 213 220 197 198 142 203 228 155 227 156 192 243 190 243 247 263 272 290 299 331 223 223 223 228
232 238 238 234 229 234 164 238 228 232 233 234 231 234 236 225 223 207 194 208 157 187 201 134 135 143 190 149 158 161 248 248 242 249 253 270 290 437 467 457 444 436 429 425
223 158 198 198 176 140 224 219 233 229 230 232 228 228 233 233 232 178 197 212 167 208 192 205 187 180 180 197 192 162 253 249 255 260 277 352 584 554 521 485 456 434 416 404
159 222 229 199 227 230 229 228 225 222 224 221 228 230 229 227 224 153 115 154 211 219 166 197 218 235 152 169 239 230 250 257 266 269 319 466 462 466 541 512 477 444 418 398
217 137 216 210 218 131 212 221 220 216 149 215 208 215 215 210 215 206 199 163 196 221 232 215 153 219 186 175 205 245 254 270 269 302 454 439 439 437 555 509 492 464 430 403
181 152 208 199 200 148 209 126 203 221 220 220 219 217 194 216 187 199 211 191 210 179 170 240 180 172 197 172 245 245 265 265 290 440 426 426 446 434 553 529 497 474 457 421
179 176 203 188 215 219 220 174 222 183 211 192 186 201 191 193 196 218 171 185 216 227 190 169 213 238 169 240 241 256 268 277 411 421 423 446 443 427 490 525 514 494 468 455
234 176 229 224 216 208 213 203 216 216 215 196 197 203 207 209 216 208 214 184 190 224 235 235 239 188 249 241 242 270 266 302 418 430 443 449 439 425 413 495 492 492 484 471
262 245 192 222 221 219 178 208 216 221 209 213 205 210 168 208 191 162 215 229 233 150 170 172 243 167 261 239 260 266 286 414 426 442 450 446 437 430 405 412 474 479 479 481
274 263 255 248 237 169 170 232 223 209 176 216 190 219 222 223 202 202 225 226 233 173 241 203 251 248 239 250 269 263 295 416 448 480 470 450 441 435 407 407 441 453 472 476
306 284 273 262 248 248 237 170 233 227 227 200 191 221 224 223 221 222 229 229 233 227 237 239 205 258 237 257 254 288 414 439 467 483 466 452 446 434 418 412 407 441 442 465
342 313 293 281 269 262 250 248 238 229 225 225 230 229 225 229 200 177 229 221 233 233 232 162 252 236 262 249 259 298 411 441 427 471 456 444 438 437 426 411 411 422 435 438
364 337 315 266 286 276 269 263 252 248 245 238 167 227 227 225 202 230 185 222 202 235 260 248 263 236 264 250 276 308 443 434 444 464 455 445 435 433 431 422 409 413 448 426
415 314 323 288 275 262 283 252 261 258 252 252 248 243 238 194 237 238 226 168 192 223 169 251 249 247 254 255 295 396 446 439 466 484 472 457 461 436 429 426 408 417 432 443
451 413 364 331 308 287 294 284 276 266 260 255 248 247 243 244 241 237 149 224 187 254 254 262 238 265 241 255 292 441 442 381 485 498 496 485 480 488 436 425 415 424 421 430
379 435 409 381 356 331 310 296 287 278 274 261 254 253 259 250 247 244 248 162 255 252 257 254 240 264 243 265 287 447 443 448 443 490 484 488 494 478 526 465 440 433 431 430
324 342 431 401 374 349 328 252 296 285 272 261 257 244 249 253 252 249 248 251 251 236 251 241 253 255 273 287 350 443 435 445 406 489 526 527 532 522 519 514 510 500 486 458
297 324 449 424 398 362 342 320 307 288 275 266 256 255 245 247 241 241 249 250 252 223 249 238 263 245 265 288 399 435 432 442 443 367 454 461 472 483 497 507 521 536 545 550
303 294 318 319 372 391 353 338 317 301 283 267 265 252 242 248 244 241 250 163 251 242 255 240 261 241 257 287 436 383 432 425 427 423 418 392 404 392 390 368 344 329 320 304

GFSNGP_2pvu_pres_099.txt.gz
Presure
134 132 136 129 135 155 147 146 221 143 158 159 119 193 242 123 168 215 259 164 262 252 259 265 277 181 265 263 258 269 258 237 249 245 239 246 253 225 218 226 219 237 210 216
206 180 159 159 172 208 201 114 121 112 227 231 238 198 167 287 282 267 279 275 224 261 262 280 249 247 251 127 296 271 259 246 266 243 248 263 234 245 244 233 227 234 213 215
174 178 185 203 185 199 192 183 193 180 168 168 141 163 152 170 201 225 139 141 154 196 228 264 267 250 225 166 265 266 260 270 256 247 250 242 224 247 238 226 234 220 211 223
199 209 194 201 194 199 196 148 172 169 179 168 180 116 185 178 193 186 140 152 166 197 188 157 154 161 152 184 209 214 226 270 260 236 256 234 252 244 237 220 224 242 240 226
185 184 203 191 197 186 193 182 167 170 179 196 170 170 163 188 166 167 166 160 140 161 159 148 166 152 163 150 176 168 160 149 181 180 158 132 153 161 196 194 192 235 162 213
203 196 167 191 208 205 131 201 196 197 205 198 211 199 186 177 163 155 164 207 199 131 142 127 146 142 142 141 148 145 142 184 176 142 175 155 113 172 190 218 248 247 241 217
238 243 245 230 213 208 164 224 215 233 234 226 204 202 193 186 196 211 212 197 199 169 183 204 224 184 134 125 134 180 127 165 184 196 175 124 163 161 215 205 194 214 230 227
233 233 234 245 228 235 236 195 247 250 232 236 237 239 233 229 217 191 234 208 169 223 209 203 176 209 202 144 183 183 226 227 177 155 170 178 160 176 164 243 244 125 208 242
239 207 232 161 227 235 228 233 219 231 242 234 234 235 235 234 239 241 236 227 221 216 225 223 205 185 176 171 236 229 180 182 237 245 243 182 163 173 257 259 257 275 297 319
156 177 239 221 176 130 202 155 144 235 232 235 172 230 234 234 231 233 236 224 236 207 136 182 223 196 240 187 182 227 191 203 246 169 170 162 174 248 250 261 278 309 493 488
238 214 168 167 213 216 200 167 222 173 150 192 141 179 225 226 224 225 228 225 223 228 206 205 180 224 227 239 235 212 153 193 201 192 259 247 249 241 271 294 447 462 454 452
250 191 217 145 220 201 213 184 215 215 200 157 201 222 222 223 221 219 217 212 214 200 222 228 199 126 189 172 213 252 248 190 244 163 253 242 243 264 299 436 461 475 470 479
285 132 215 239 186 228 222 223 216 206 220 223 231 210 216 221 200 201 218 177 197 226 200 216 228 226 237 185 186 180 164 165 212 257 266 238 265 291 456 470 464 480 473 459
335 304 233 161 173 197 234 133 228 225 219 218 209 199 220 217 218 224 228 195 187 194 191 234 233 230 235 205 224 177 240 250 270 268 238 272 278 351 473 502 482 463 458 442
205 352 312 285 266 256 182 243 184 202 176 229 221 212 220 221 221 211 216 219 199 226 205 198 181 241 230 238 250 240 219 253 274 249 261 275 313 473 462 473 473 460 446 426
297 457 394 323 295 273 272 266 243 244 186 227 238 168 189 227 190 210 224 179 205 235 163 180 232 219 228 231 246 254 248 273 246 240 271 307 464 413 490 478 465 452 446 423
231 265 303 430 341 315 292 283 273 270 263 247 242 242 243 180 227 235 238 171 172 170 163 222 240 246 242 191 199 265 265 272 235 261 287 377 460 390 482 462 454 448 434 424
260 222 264 324 407 382 369 308 294 285 280 273 265 261 250 241 242 245 247 247 222 227 196 243 242 247 247 250 257 259 274 228 259 274 303 469 477 493 471 457 447 447 441 425
205 237 215 317 328 399 365 343 337 317 296 286 277 271 266 261 259 254 248 249 250 248 246 246 221 243 251 251 262 272 228 253 258 292 469 489 380 493 470 465 443 441 431 422
199 227 225 219 325 311 402 377 340 323 311 292 283 271 271 265 259 256 253 250 249 248 246 242 253 263 262 263 257 228 249 253 271 303 467 501 501 504 491 468 453 432 428 420
224 226 230 199 307 317 374 403 377 358 330 313 300 281 266 270 266 263 253 255 248 242 244 225 259 249 242 253 246 237 253 256 290 471 485 540 516 496 503 493 459 442 423 422
233 213 232 243 260 313 301 431 412 377 357 341 297 275 249 286 278 271 265 257 263 254 251 248 247 253 239 256 231 248 254 266 302 473 492 527 544 522 504 491 519 439 426 427
204 255 225 234 252 299 307 347 332 402 384 355 342 337 323 308 296 272 265 269 245 257 163 248 245 253 251 243 240 263 252 288 403 464 477 491 503 516 538 519 521 453 428 427
239 215 203 210 254 283 312 288 329 429 391 367 353 344 327 315 306 293 278 273 260 251 245 246 243 227 252 235 241 255 257 291 391 435 456 419 488 505 510 517 527 513 467 445
244 240 228 206 254 269 309 300 319 330 356 401 363 347 338 323 307 293 277 268 258 259 253 239 250 247 253 242 254 253 273 296 380 424 427 434 358 354 357 493 504 544 508 470
237 228 205 197 250 268 302 301 311 323 367 400 400 359 334 325 310 292 283 272 263 253 242 245 230 261 233 241 256 260 281 329 342 383 388 394 407 374 330 330 322 322 315 316
217 240 245 237 224 282 302 299 304 310 380 407 384 373 341 321 308 294 278 267 266 248 251 237 260 241 236 259 246 255 282 370 346 366 362 366 368 373 388 372 372 371 350 377

GFSNGP_2pvu_pres_102.txt.gz
Presure
121 175 139 128 159 169 120 152 231 245 118 108 285 154 176 230 238 270 244 170 181 170 206 246 259 262 272 152 276 276 265 174 231 234 224 253 258 247 251 254 266 229 262 239
159 125 125 127 192 198 137 186 200 203 193 195 242 109 110 222 116 244 229 254 224 134 126 242 199 262 251 252 128 288 266 250 270 255 262 252 237 229 242 249 238 235 221 222
206 189 186 192 209 182 203 182 172 184 176 173 146 195 185 208 216 201 212 205 153 204 162 164 114 240 255 260 259 145 151 215 179 244 212 227 228 264 245 258 250 242 234 218
198 164 201 172 195 160 187 158 138 186 185 176 195 182 175 176 164 170 167 167 169 167 158 149 136 154 133 138 151 171 137 160 181 146 157 152 148 144 240 241 244 155 213 163
234 240 250 245 237 210 197 201 189 169 184 212 190 177 207 193 188 178 214 177 173 168 169 143 184 166 170 150 137 156 146 141 130 157 136 139 154 202 150 151 143 145 159 168
235 236 237 237 233 248 150 233 230 250 175 247 243 234 203 242 216 202 201 206 215 204 225 194 223 216 205 162 214 203 135 178 202 203 204 188 213 206 195 133 200 198 145 134
255 252 239 238 233 217 205 238 210 238 241 231 227 233 236 235 232 230 230 230 225 213 209 217 216 224 215 197 211 205 211 205 204 131 198 200 210 244 187 201 201 165 150 131
270 264 254 175 236 240 230 198 233 229 225 198 199 184 233 236 202 236 233 241 241 234 229 225 225 223 223 204 224 219 215 195 193 208 195 179 237 245 236 223 260 203 202 241
146 242 265 258 139 242 240 228 233 195 236 237 235 234 228 227 173 231 230 229 225 225 226 225 221 219 217 229 128 217 199 217 195 191 241 233 187 169 253 247 167 163 270 277
195 144 274 277 172 259 177 232 239 183 211 227 156 220 224 224 223 230 227 219 215 217 214 233 239 232 236 231 237 226 203 130 172 214 231 218 234 172 234 243 255 258 270 265
198 202 203 240 284 143 181 135 244 206 220 226 127 219 184 218 220 220 229 228 226 226 222 226 229 228 215 207 220 172 223 234 193 214 179 178 216 254 246 265 264 272 277 267
193 136 175 206 277 187 295 170 160 186 188 239 232 231 228 228 221 220 219 221 222 222 223 221 222 218 226 216 182 213 186 238 179 229 197 235 183 251 259 272 235 255 262 270
216 220 225 216 235 237 229 314 292 272 201 250 169 241 231 232 235 235 230 216 217 222 225 202 172 183 190 235 168 235 182 174 176 247 165 163 162 263 270 248 258 255 283 329
206 224 170 200 233 227 234 253 328 312 298 275 263 254 246 184 167 188 189 237 233 195 220 219 164 185 171 240 165 177 245 244 219 250 253 209 273 274 245 251 254 281 411 518
196 216 221 226 187 232 229 335 301 351 319 307 297 282 269 259 252 245 209 239 218 244 242 240 241 242 242 239 182 241 251 251 249 254 254 273 266 249 249 259 291 435 522 495
189 207 224 222 234 191 264 229 234 343 395 378 330 305 293 286 278 273 271 263 255 248 247 246 247 246 248 248 247 249 253 253 251 258 267 270 248 243 262 287 441 527 507 484
192 208 223 222 215 233 198 240 231 239 315 388 364 348 340 317 300 289 285 280 277 276 277 273 272 266 260 260 254 256 256 256 259 259 269 252 241 263 286 326 522 517 504 482
210 199 211 219 216 230 243 254 217 229 280 398 397 370 353 335 325 322 322 308 299 291 284 279 270 267 270 254 253 250 259 262 261 257 265 239 259 277 324 552 524 509 509 481
208 200 214 217 217 221 235 249 223 219 227 312 330 381 399 369 340 329 318 314 309 297 286 279 273 266 266 265 262 254 261 252 254 265 245 254 273 295 481 513 535 512 513 481
200 209 221 212 213 226 233 234 242 213 214 242 272 322 338 331 381 365 353 336 321 309 264 300 242 246 282 268 262 269 251 263 259 262 249 265 279 457 437 389 548 525 525 457
225 210 221 222 217 225 227 214 245 241 252 226 304 308 321 321 413 390 361 344 334 328 319 317 307 306 296 279 272 268 261 263 268 240 266 269 313 474 485 373 526 530 518 443
230 224 220 218 215 226 210 232 241 255 263 262 316 296 310 335 372 386 370 367 345 334 312 307 300 287 282 277 279 266 270 266 242 263 265 284 452 461 486 357 350 536 523 446
214 237 238 235 222 226 214 240 209 251 267 262 315 306 313 323 409 415 397 348 322 326 328 297 290 281 274 265 259 266 260 261 248 263 271 328 437 441 458 346 333 338 438 463
223 194 220 227 231 225 218 196 236 250 265 262 306 306 309 319 386 398 379 384 342 325 321 292 282 289 282 276 271 266 241 237 259 255 275 386 409 425 433 451 456 318 327 473
216 243 231 229 230 223 233 244 237 247 261 268 305 304 303 311 416 403 387 366 330 316 316 289 275 268 274 269 265 246 236 255 255 264 307 376 382 382 404 406 426 444 458 455
235 250 231 223 225 238 246 227 239 248 259 251 307 305 303 294 434 419 376 358 332 309 306 280 268 270 264 260 255 234 241 254 255 271 375 368 362 367 366 377 381 377 383 394
227 240 236 226 233 250 247 255 241 250 260 251 314 306 305 293 442 394 362 340 315 305 289 275 267 265 252 262 232 237 253 251 258 281 369 358 356 360 365 358 365 374 376 375

GFSNGP_2pvu_pres_105.txt.gz
Presure
121 143 172 176 117 131 121 121 120 169 147 139 141 152 153 226 167 114 270 145 156 248 227 135 219 216 264 238 284 288 276 237 275 238 244 252 264 257 234 259 262 259 267 266
130 189 193 133 119 118 193 190 187 191 148 188 188 175 180 209 192 111 205 221 110 113 253 272 216 241 112 131 126 266 137 179 260 266 271 260 227 228 254 253 273 216 248 246
253 220 213 171 239 188 147 184 185 181 138 189 179 179 186 182 176 187 179 172 193 165 170 174 215 160 217 220 210 201 249 262 229 133 150 229 148 242 153 153 260 116 153 153
270 263 252 245 194 241 247 243 180 223 210 194 229 197 207 216 182 201 181 201 208 177 181 179 180 174 169 187 163 172 171 181 162 152 157 154 141 156 148 149 171 196 138 154
145 166 254 258 248 205 237 237 246 245 249 251 257 247 244 249 236 204 215 206 204 207 222 224 215 223 228 227 213 208 169 182 174 198 168 170 188 193 148 221 140 202 229 216
224 241 260 241 254 254 243 245 211 231 234 232 231 234 238 163 237 240 236 236 238 239 238 196 197 209 209 214 222 215 225 222 205 221 219 219 217 218 221 194 204 218 220 193
219 209 142 242 179 189 266 258 253 245 242 237 231 190 235 241 245 239 238 238 240 241 237 236 236 235 234 232 228 225 226 226 228 214 225 224 190 212 221 213 207 210 217 165
202 221 221 200 232 195 227 247 185 225 199 244 239 228 212 225 221 221 230 237 236 230 229 233 234 241 237 237 237 246 235 238 223 238 225 237 214 200 214 209 170 155 196 189
196 223 213 220 197 182 189 230 248 235 130 271 248 247 158 234 218 213 208 222 224 197 230 221 218 234 232 234 236 237 236 226 229 234 232 195 236 235 220 240 190 251 205 179
192 216 219 231 223 152 176 254 198 229 258 153 155 161 260 155 186 173 233 146 212 216 223 223 225 226 230 223 221 220 227 214 215 213 205 206 223 217 235 251 219 251 170 211
219 191 185 218 234 218 204 181 229 215 229 266 299 207 130 263 208 128 211 241 238 225 227 231 209 232 228 226 228 230 219 221 218 232 170 177 173 224 211 181 212 205 189 234
205 212 205 210 229 225 223 217 189 252 238 228 225 324 307 288 273 263 257 250 248 245 239 238 238 237 238 239 209 226 241 237 211 180 178 159 245 247 249 240 255 264 234 266
181 217 224 212 209 223 221 221 223 233 240 241 222 210 395 327 311 298 283 275 267 261 254 250 249 247 244 242 245 242 240 241 240 239 241 244 249 259 265 261 264 265 266 280
177 171 208 207 216 212 186 231 224 228 230 236 250 222 222 260 412 376 332 306 293 285 278 273 266 262 261 261 261 259 257 258 257 258 263 266 274 269 267 260 261 262 283 282
200 204 188 213 225 210 222 201 221 231 221 227 236 240 252 224 261 360 393 379 362 340 320 304 295 290 288 258 280 274 268 268 274 273 286 276 271 265 258 269 269 284 281 254
187 201 207 201 195 215 216 229 240 226 231 214 228 223 244 268 260 316 305 342 413 352 346 331 327 322 319 307 305 250 278 289 295 293 284 277 275 275 273 271 282 259 260 283
212 209 197 212 217 223 220 224 234 235 232 224 216 245 262 262 271 294 318 303 318 405 385 363 341 328 319 313 303 292 292 292 291 288 288 286 285 288 286 289 256 265 286 459
197 208 210 206 217 205 239 185 214 231 228 242 224 223 228 256 273 268 323 316 318 408 392 394 363 344 335 326 317 307 295 302 311 316 308 298 292 290 283 258 267 292 553 560
208 216 202 211 220 217 248 226 213 234 233 245 232 250 251 255 264 268 252 325 314 386 419 374 364 358 342 329 317 309 311 305 297 288 277 275 276 275 257 270 297 544 560 558
206 198 220 211 221 221 242 222 233 254 235 231 235 256 239 246 266 267 318 335 315 365 397 402 357 349 352 314 324 304 312 297 278 277 272 275 279 246 269 296 494 528 519 546
209 195 209 195 212 215 212 243 227 236 241 223 253 261 197 249 267 266 301 341 317 386 403 384 373 342 316 330 313 302 291 293 289 275 273 265 243 265 286 415 453 481 508 500
200 200 214 196 210 185 220 224 232 232 248 231 250 259 240 256 258 265 289 331 316 373 407 385 377 334 332 321 302 287 274 275 266 266 262 244 263 276 400 402 430 457 484 486
215 203 215 206 183 182 219 223 245 226 241 234 239 257 239 241 244 259 286 323 309 428 410 375 365 330 322 296 291 268 269 265 263 262 244 261 269 294 391 391 416 411 451 482
216 219 217 224 166 219 214 223 238 232 229 256 231 235 237 226 238 255 286 318 301 433 382 368 336 322 313 294 277 268 265 262 265 245 248 265 272 368 380 384 394 400 405 456
213 190 221 221 220 222 217 224 236 218 227 256 227 218 237 228 255 248 309 316 304 386 368 337 318 306 302 277 269 265 264 263 251 245 268 265 299 364 378 363 381 370 385 404
184 230 247 216 217 225 228 225 238 241 230 228 248 221 234 244 233 240 307 308 297 360 349 321 308 303 284 276 273 268 273 259 241 253 261 268 360 356 366 357 362 354 357 367
227 229 216 225 217 219 233 229 242 242 236 229 247 243 230 249 263 245 308 301 293 363 339 317 300 295 293 273 276 264 263 237 247 260 259 274 351 345 354 336 339 344 346 340

GFSNGP_2pvu_pres_111.txt.gz
Presure
232 182 127 233 257 273 267 262 256 189 122 250 198 126 117 248 173 239 211 118 152 167 112 142 104 124 111 139 132 100 100 96 134 123 261 269 279 263 268 270 270 261 267 282
230 229 229 138 124 236 237 269 270 272 267 137 128 190 247 246 248 249 238 245 244 242 240 235 203 188 214 127 136 130 120 222 272 270 267 251 250 248 242 252 242 236 257 266
234 205 180 205 205 214 226 228 216 266 275 267 264 265 255 248 244 240 236 240 240 242 244 241 243 241 239 238 226 216 221 181 174 177 181 241 147 224 239 173 227 131 134 269
179 141 213 212 224 225 224 237 223 249 197 217 272 278 271 274 263 215 252 246 238 233 234 238 242 241 246 247 247 244 243 243 227 217 217 216 192 196 168 170 166 168 221 265
214 208 207 205 232 214 154 155 166 222 235 244 243 172 198 255 289 281 273 266 262 256 252 250 243 228 225 227 229 235 238 239 239 242 245 244 235 218 210 215 221 222 220 216
187 186 204 186 131 219 174 132 134 204 249 223 231 236 240 241 227 232 230 250 288 286 149 269 261 181 250 247 241 236 230 227 188 233 237 237 232 229 230 236 236 238 239 238
209 204 201 195 225 202 206 229 223 214 211 224 185 244 230 179 232 234 239 265 205 204 249 273 237 135 283 198 123 251 242 202 240 235 228 231 235 233 236 236 237 238 240 237
197 216 205 213 201 199 219 233 217 191 219 229 216 227 239 246 240 232 223 143 178 152 135 240 267 218 331 248 297 269 280 262 253 250 245 240 239 235 230 229 233 236 234 230
170 204 206 199 224 207 194 222 181 220 209 213 212 225 144 222 223 240 147 258 191 276 276 227 234 272 258 252 319 394 317 299 298 289 278 264 258 179 251 247 201 238 235 232
180 183 207 197 196 197 203 200 192 190 199 226 189 225 218 221 221 219 246 246 253 237 213 202 231 272 272 290 346 320 331 309 362 387 302 300 288 287 281 274 265 261 162 169
195 186 189 170 196 178 172 176 177 182 199 217 224 205 216 220 227 217 173 248 243 245 251 258 251 243 250 260 313 347 327 324 328 326 329 335 371 335 304 296 288 283 278 280
199 196 202 184 181 191 209 195 209 209 204 198 182 225 210 224 225 229 248 226 255 238 248 223 253 234 240 246 261 345 333 313 365 392 390 393 392 369 361 365 361 339 323 306
200 200 176 192 186 179 194 194 186 194 201 209 214 223 207 186 225 207 232 236 243 244 272 240 250 228 238 234 249 345 317 376 397 391 389 378 381 368 371 367 354 343 331 329
189 200 180 182 201 190 197 197 197 207 176 177 193 211 215 203 207 241 239 250 239 248 235 263 238 259 238 250 245 342 334 401 397 397 378 366 376 365 348 357 334 324 333 338
198 176 194 185 183 191 182 183 198 169 196 182 202 182 215 207 186 221 240 234 235 232 217 230 246 245 250 281 252 336 420 398 403 395 366 361 351 369 338 330 331 327 319 313
191 192 190 186 182 181 181 198 193 199 201 191 206 211 209 215 219 231 235 227 213 237 246 224 250 249 242 275 265 331 418 405 397 353 345 337 345 342 343 330 311 296 290 287
191 190 171 196 195 191 198 185 195 200 184 196 205 212 219 223 213 228 244 230 221 205 255 227 250 246 242 279 297 325 407 387 348 339 328 330 318 305 299 289 284 281 282 285
182 192 180 190 189 187 195 173 179 189 201 190 191 212 185 216 209 224 233 227 224 204 256 259 242 243 256 279 277 323 299 353 343 330 305 295 293 282 277 276 278 276 268 279
198 193 203 170 181 175 197 173 200 194 200 197 187 205 213 186 223 220 231 229 232 235 258 260 241 240 252 273 270 319 289 336 339 302 294 288 281 275 278 275 270 262 280 402
190 203 202 205 211 204 200 180 210 208 218 220 220 200 222 225 223 220 234 246 230 250 263 253 245 239 245 259 267 321 292 331 314 297 280 276 277 279 274 265 264 276 379 401
150 199 142 204 202 140 216 216 220 212 172 232 202 214 225 225 219 229 236 202 236 265 239 228 245 240 241 257 268 321 292 340 314 292 279 280 279 272 264 260 272 289 380 387
173 192 182 152 146 207 234 161 213 226 220 230 210 206 224 222 230 240 178 253 236 271 237 245 245 246 240 265 278 321 295 350 319 297 280 279 274 267 251 268 271 367 382 372
237 166 184 221 139 220 233 215 216 171 233 218 192 229 166 236 235 235 175 236 249 267 233 244 250 267 238 266 279 307 297 291 319 303 284 276 270 261 247 268 278 360 376 363
255 249 242 152 210 121 229 226 175 180 248 224 221 196 232 237 233 246 182 235 257 227 246 242 244 276 241 267 276 302 300 283 330 296 288 273 268 260 252 269 282 351 362 359
161 133 258 256 139 236 246 227 223 195 234 239 243 233 182 238 249 248 234 241 249 229 246 256 242 256 268 267 274 311 295 280 334 304 281 271 267 245 257 268 286 348 300 350
200 254 282 277 216 214 257 162 276 217 207 240 207 231 236 251 239 262 238 234 269 243 237 255 260 249 272 265 279 311 289 277 335 299 282 272 265 245 261 267 292 345 338 343
190 171 237 236 131 267 165 282 167 277 251 234 200 245 252 254 254 236 242 261 245 250 251 257 266 266 275 275 282 316 287 277 332 297 283 269 262 248 262 267 325 326 338 334

GFSNGP_2pvu_pres_114.txt.gz
Presure
198 226 235 233 229 233 146 140 243 205 193 234 214 121 129 124 253 170 130 138 132 239 237 212 240 244 247 241 242 245 246 204 160 135 130 232 109 218 181 149 265 285 284 281
221 223 227 230 227 237 243 240 123 126 250 247 121 249 257 242 223 244 279 274 271 269 265 261 257 247 232 229 233 238 244 244 245 243 168 188 146 221 271 266 263 256 260 250
207 199 214 210 217 215 222 213 206 230 233 229 240 247 247 243 241 241 242 241 237 228 248 275 279 275 269 263 259 250 232 228 217 240 241 245 244 231 188 207 216 240 266 265
169 190 202 199 214 209 215 185 208 213 198 210 233 237 231 218 223 250 244 247 254 238 203 252 246 252 259 256 264 277 269 262 258 250 239 234 239 241 244 237 226 223 201 186
186 187 213 197 195 187 202 211 210 214 217 156 206 201 233 227 239 232 222 244 235 252 248 244 259 259 251 254 183 283 299 278 288 276 265 262 254 161 222 240 243 245 247 243
184 174 209 197 196 193 137 205 143 132 132 196 195 138 198 228 214 228 237 236 219 242 242 236 240 263 261 225 263 272 272 146 281 162 137 291 277 149 144 260 252 247 240 245
194 184 208 202 192 193 183 187 194 200 195 189 206 209 212 203 199 201 236 173 231 234 210 248 242 242 172 135 250 224 213 162 226 187 211 293 320 301 292 279 270 264 264 256
193 187 193 212 193 189 190 205 217 197 207 195 200 181 190 198 223 182 208 218 235 202 236 225 256 240 199 207 259 212 201 232 239 242 252 239 344 329 329 326 299 248 169 209
169 201 192 205 179 180 179 180 172 181 196 208 207 210 208 206 211 217 205 220 221 232 237 127 131 235 252 252 237 251 249 250 246 281 247 281 331 331 334 322 328 320 338 301
180 188 186 201 179 200 202 188 196 191 192 177 210 189 187 185 191 209 221 188 220 219 217 227 235 248 222 232 251 253 227 246 258 287 271 329 348 412 412 412 325 317 333 339
188 195 189 169 201 198 180 190 191 198 197 210 195 203 190 200 182 199 197 218 189 217 226 236 259 212 242 259 235 251 249 248 275 276 332 436 418 409 396 387 387 395 402 387
168 198 179 192 199 185 176 192 180 173 191 200 190 203 174 211 204 208 199 191 226 224 212 212 248 230 252 265 266 243 260 245 275 342 457 422 401 407 400 386 366 366 387 366
182 188 176 189 182 169 189 194 177 191 183 197 198 170 200 201 202 205 216 206 172 227 203 237 217 249 256 274 239 244 247 246 266 339 447 421 380 357 347 354 365 367 370 368
179 193 185 187 194 200 170 174 193 194 198 165 179 194 191 189 204 211 207 221 216 229 213 235 227 249 239 268 233 243 248 251 260 282 324 363 335 335 330 327 326 326 319 311
186 182 188 187 196 163 198 197 180 197 200 200 199 195 177 183 203 215 220 222 229 220 227 231 236 249 249 262 231 240 247 250 252 280 309 354 327 312 304 300 295 290 287 287
179 188 187 190 190 179 184 194 199 161 193 204 172 177 202 171 204 213 222 213 225 230 229 233 234 250 249 252 240 243 244 250 242 278 314 313 318 304 295 292 283 279 278 281
190 189 192 191 195 197 199 156 200 200 203 202 174 209 206 183 218 218 181 229 210 227 232 243 235 240 251 248 230 245 241 252 252 281 326 290 323 306 289 286 278 285 279 269
207 201 192 201 203 208 195 209 199 199 190 200 202 191 185 208 213 143 215 215 238 229 230 239 237 237 251 248 234 246 239 260 268 271 301 293 323 307 291 286 282 279 271 259
174 176 214 207 196 203 193 205 201 147 197 201 163 208 222 219 215 216 225 234 236 240 237 235 249 236 247 244 237 247 242 260 263 268 282 298 278 323 299 287 281 275 257 264
267 237 231 199 241 228 219 230 232 196 219 228 220 232 185 238 221 195 179 231 219 233 253 225 242 249 191 257 240 244 247 278 265 268 283 301 273 317 307 289 279 272 258 267
251 126 139 147 266 236 239 271 167 191 220 258 186 202 240 237 209 219 168 233 252 233 190 227 241 242 185 257 270 241 249 275 271 267 282 307 273 322 298 287 277 268 259 273
231 241 251 269 263 181 127 126 240 227 247 200 238 235 239 238 210 241 248 257 249 243 231 257 245 226 245 257 259 240 248 275 271 268 281 305 273 334 304 287 275 261 260 279
296 192 255 131 263 148 191 217 273 144 252 278 228 186 245 197 240 251 185 264 273 241 229 252 260 237 250 261 239 277 252 274 270 268 278 302 271 327 301 282 271 260 262 286
131 262 266 300 303 281 238 152 179 210 132 284 230 145 267 186 220 243 249 274 279 205 260 254 200 248 259 266 237 251 284 278 269 266 280 300 268 323 295 279 267 259 263 320
314 302 203 341 307 283 305 308 318 141 238 225 238 229 232 256 257 246 269 281 260 243 254 207 229 230 257 265 275 249 281 281 261 274 285 298 340 322 294 276 265 258 264 348
335 133 284 360 294 332 342 332 326 265 154 216 237 198 265 261 268 261 274 232 280 254 272 259 256 255 258 236 269 274 274 273 272 270 288 289 374 317 286 272 261 255 266 346
391 379 320 192 335 323 307 262 190 243 224 248 258 221 249 203 204 267 283 277 252 285 279 267 240 252 252 258 253 294 280 266 274 278 286 281 368 308 280 270 256 255 272 341

GFSNGP_2pvu_pres_117.txt.gz
Presure
218 219 200 224 215 222 215 224 203 220 216 210 233 207 229 240 242 241 166 129 168 224 255 221 241 252 260 256 262 250 275 254 268 273 267 253 180 196 253 250 218 214 147 272
208 196 194 199 201 204 206 204 205 204 211 214 130 133 215 200 228 233 235 234 242 239 247 247 249 244 250 275 269 255 248 176 280 243 283 252 276 267 263 255 184 192 246 241
197 187 202 187 190 194 189 202 161 194 200 201 200 202 207 216 211 217 227 222 222 237 225 230 231 219 247 245 251 253 286 282 276 251 177 211 301 290 261 263 267 264 261 253
192 185 193 176 214 198 218 181 168 193 207 208 204 203 212 162 155 135 192 195 221 224 237 232 223 234 232 259 196 198 201 256 263 250 228 245 221 257 263 296 295 277 263 259
200 204 223 179 187 199 212 143 194 130 134 178 133 160 186 195 195 212 201 146 147 183 211 229 223 221 161 154 190 241 258 222 252 293 246 238 141 154 244 203 157 267 274 267
179 143 165 213 204 188 186 193 199 204 190 205 198 196 199 210 198 217 199 200 221 209 199 199 228 231 240 229 229 239 234 228 252 246 162 259 265 246 262 291 293 256 251 243
172 186 197 191 211 175 175 188 187 191 208 170 187 186 188 209 184 192 196 193 201 182 219 229 222 220 233 231 245 241 208 221 282 226 252 299 236 298 286 279 356 353 339 338
199 190 188 196 198 198 193 192 196 186 186 201 200 207 205 202 200 197 201 191 217 208 198 197 190 231 221 220 236 258 237 269 262 252 253 263 257 261 283 473 444 426 422 427
192 179 192 180 173 183 194 196 181 194 177 182 193 187 179 179 182 200 204 204 202 189 215 228 192 221 239 237 217 249 225 266 258 247 251 258 255 261 351 409 436 424 422 416
195 171 178 172 171 173 177 178 190 184 183 173 198 195 200 203 201 201 183 188 199 202 212 210 221 225 225 236 228 239 253 258 258 253 245 251 264 267 291 375 360 358 363 367
172 187 180 192 191 180 174 176 190 187 178 169 167 180 204 192 200 185 211 200 204 207 212 209 227 201 227 162 237 239 239 256 260 247 239 252 279 256 293 332 341 331 329 326
183 188 184 188 188 193 188 190 177 193 167 191 171 188 196 196 198 204 201 206 184 209 217 200 220 230 226 242 232 243 240 250 266 239 248 251 263 256 291 314 335 325 313 305
195 195 182 196 191 181 184 173 195 189 190 192 199 184 187 200 197 212 208 194 196 194 198 225 220 220 237 235 236 244 232 249 249 257 249 256 254 254 287 331 298 325 316 301
179 198 196 189 187 190 196 191 192 195 185 195 175 186 199 202 202 207 203 197 201 188 218 193 236 226 215 218 237 241 238 251 255 260 203 258 249 283 285 301 300 354 314 293
199 199 199 196 195 203 210 208 206 204 220 217 213 211 207 212 202 201 215 176 184 236 226 233 225 231 214 242 239 225 233 253 243 258 256 256 251 287 282 295 305 291 332 307
199 210 219 215 209 205 190 191 193 224 206 158 237 240 169 184 179 206 223 235 233 244 223 231 240 216 226 239 244 233 226 251 252 256 255 251 265 285 282 283 304 284 330 309
210 207 209 208 213 225 214 211 225 233 228 228 233 205 244 230 243 222 229 239 248 240 226 240 242 232 229 243 249 235 227 251 214 257 256 252 258 284 283 281 305 279 323 308
193 130 192 182 202 208 238 227 239 133 241 212 238 242 241 233 241 232 237 242 248 240 246 205 212 243 242 219 260 257 230 253 245 258 260 250 257 284 277 284 307 276 325 308
191 186 238 153 172 244 178 180 132 200 178 241 197 201 183 247 257 248 234 271 253 209 223 235 240 253 214 248 269 240 255 263 238 256 260 256 272 282 264 281 298 278 320 305
220 246 171 202 224 210 212 254 274 240 231 210 167 257 297 145 249 245 219 252 255 243 174 176 247 260 170 236 259 238 252 268 228 251 260 254 285 276 263 281 293 354 318 295
232 178 245 244 265 258 189 240 249 261 185 262 271 167 282 246 247 283 273 269 241 251 267 228 258 185 259 246 251 242 254 262 229 252 277 258 285 273 263 278 290 357 313 291
253 259 252 253 317 236 215 299 351 133 248 256 298 269 168 283 291 274 240 255 241 256 239 250 246 246 252 258 256 237 253 270 255 259 248 257 285 284 266 276 283 353 309 283
388 388 379 365 199 125 143 227 215 237 273 293 294 311 315 243 292 285 250 264 215 284 242 243 236 195 259 258 271 266 270 276 227 269 244 261 283 283 275 276 275 348 299 279
271 138 261 127 134 392 364 173 289 171 366 352 360 124 171 286 284 280 266 286 285 210 242 235 281 264 268 261 274 284 269 257 268 250 265 271 280 259 278 276 275 337 293 278
169 364 213 363 352 394 383 372 372 267 369 375 312 253 290 338 283 228 303 310 284 201 247 249 276 276 185 273 288 277 279 260 266 238 259 280 273 261 276 274 293 323 287 275
346 336 303 349 379 374 282 265 183 382 373 367 239 293 253 326 322 240 309 299 252 249 298 281 281 266 268 291 288 278 264 274 249 253 258 270 262 274 270 276 371 311 280 270
331 320 320 360 166 379 127 220 235 209 371 225 167 206 336 165 280 311 211 253 248 300 291 279 272 285 296 287 277 274 280 264 246 268 243 252 263 279 266 280 359 294 277 265

GFSNGP_2pvu_pres_120.txt.gz
Presure
144 142 155 143 141 141 141 179 144 201 182 188 152 151 198 194 211 208 146 202 202 199 197 209 236 230 234 241 239 227 240 251 254 253 249 252 247 254 252 250 275 298 283 252
136 196 159 180 191 195 188 197 200 201 184 201 189 191 185 211 184 186 180 181 197 208 221 225 145 144 146 144 145 145 231 241 240 259 138 136 255 251 268 252 249 247 251 265
188 201 185 206 189 197 201 204 186 193 219 192 195 202 182 179 203 198 185 140 192 192 205 203 179 181 198 234 225 214 204 240 242 171 271 251 257 264 277 251 255 266 230 252
194 191 203 174 189 182 178 182 160 163 153 164 135 135 178 179 172 207 199 193 211 212 212 214 213 203 210 227 198 238 240 220 222 252 234 265 262 252 251 241 287 281 252 238
172 174 178 191 174 199 175 190 182 185 192 185 195 195 193 192 148 195 190 194 204 190 190 212 204 212 215 211 229 225 223 236 244 227 253 263 266 151 214 254 253 271 262 261
128 170 171 195 204 188 214 192 183 205 191 197 183 182 186 185 187 174 177 181 184 185 204 203 202 185 211 212 218 217 229 234 203 247 231 257 262 263 264 247 258 282 261 288
169 185 185 187 195 189 176 172 171 173 186 171 181 181 173 179 199 199 191 188 194 194 211 186 206 197 211 205 209 230 201 233 241 181 253 239 253 268 261 252 266 261 284 284
197 185 180 166 177 165 174 177 181 177 173 182 190 197 190 184 191 185 177 189 185 205 197 211 208 216 211 203 226 218 236 216 235 251 236 240 252 241 270 264 253 262 293 313
181 195 180 188 183 180 187 189 191 190 168 188 187 194 197 190 188 198 201 191 202 206 195 214 181 184 191 211 209 230 241 242 221 248 242 239 253 244 268 262 253 262 298 299
178 193 187 186 167 190 188 177 181 186 191 174 191 172 198 206 210 188 211 213 224 225 219 225 205 216 188 221 198 237 236 245 237 220 252 247 236 261 244 266 250 263 295 281
193 205 205 193 193 181 190 180 192 200 193 181 184 192 198 188 200 202 203 209 176 201 241 230 217 219 238 233 201 235 230 245 230 233 250 255 233 266 239 268 279 255 292 288
183 189 198 198 202 195 194 198 187 191 192 204 200 204 205 214 219 204 202 210 225 225 231 232 215 244 170 236 250 249 227 248 243 228 250 270 261 251 232 261 286 250 292 293
190 192 191 193 197 197 207 203 206 205 193 201 207 193 200 198 194 202 207 234 244 231 230 171 236 249 229 237 264 245 225 240 248 240 249 271 270 249 209 260 281 243 297 289
191 192 193 207 202 206 217 213 216 209 215 211 193 194 202 205 198 206 231 226 242 240 238 231 193 236 245 246 236 249 258 238 252 239 251 266 273 248 276 253 281 245 288 289
197 207 202 204 205 208 202 205 203 208 213 225 199 191 189 182 238 248 237 238 244 244 238 225 229 240 256 205 260 259 211 234 247 247 255 249 274 267 281 246 281 256 253 277
152 210 188 192 221 212 223 219 217 224 249 246 236 233 233 233 163 219 245 252 250 179 237 218 230 224 252 246 255 260 257 223 235 240 255 251 267 261 276 257 275 258 250 263
115 100 150 212 201 135 208 219 142 218 163 251 244 187 141 149 248 247 248 243 247 228 223 265 240 286 249 257 258 162 254 218 244 241 256 250 262 252 276 260 280 265 249 271
180 236 247 241 187 215 239 235 148 229 246 159 196 265 172 242 245 242 246 232 194 248 256 253 294 274 244 273 179 240 253 225 246 240 251 248 279 275 272 262 274 288 262 274
241 238 235 219 190 222 246 133 252 230 260 263 135 242 272 284 239 266 245 132 281 316 319 302 285 263 267 161 283 241 257 278 262 253 258 253 278 274 267 273 257 292 280 269
233 232 218 219 240 133 127 251 253 270 276 271 322 274 321 343 276 232 311 310 324 283 295 293 282 182 278 242 209 239 281 248 248 267 262 259 282 273 265 283 256 248 265 277
227 226 231 239 243 193 145 259 272 351 377 399 364 279 269 363 332 237 169 321 333 262 282 286 161 304 294 172 183 271 275 237 274 272 261 272 281 272 267 277 250 250 263 287
232 243 248 258 181 258 252 266 290 368 203 301 134 294 382 311 261 298 355 328 274 278 306 198 263 305 302 279 281 276 267 236 272 270 263 286 278 270 269 268 291 252 254 285
249 259 263 264 317 316 317 239 378 146 156 405 367 394 180 365 358 325 306 290 295 223 321 332 308 282 204 284 287 241 241 274 275 218 287 284 275 271 291 252 304 254 272 274
264 283 211 337 305 347 347 326 334 334 142 349 370 367 386 375 369 386 379 356 355 274 310 262 260 297 311 255 293 194 261 284 269 271 290 277 269 264 250 255 251 296 271 274
283 310 326 338 129 326 133 172 333 328 329 152 365 364 383 200 382 359 383 383 371 311 310 279 324 314 261 260 264 265 285 274 266 295 279 270 271 254 259 254 259 273 266 275
322 325 325 229 120 244 306 311 333 307 292 132 199 379 375 374 396 384 292 237 255 245 324 161 284 307 301 254 199 290 274 266 299 290 281 274 264 247 253 254 259 275 288 294
296 293 313 287 317 273 317 329 309 305 307 154 366 262 243 378 380 312 366 332 252 329 319 309 297 183 294 296 287 270 267 306 293 254 282 269 253 265 254 253 289 284 277 349